Date StartTime U_cm/s V_cm/s W_cm/s Ustd_cm/s Vstd_cm/s Wstd_cm/s Uvar_(cm/s)^2 Vvar_(cm/s)^2 Wvar_(cm/s)^2 KE_(m/s)^2 TurbulentKE_(m/s)^2 HorizWindSpeed_cm/s FrictionSpeec_cm/s DragCoef SpeedOfSound_m/s SonicTemperature_C Pressure_mb 
10/19/2013  00:00:00     -104.149      -25.152      -13.568       17.350       13.594        9.311      301.018      184.805       86.688        0.612        0.029      107.143        6.193        0.003      336.581        7.980      866.272
10/19/2013  00:01:00      -82.470      -14.632       -5.922       16.270       12.893       11.591      264.721      166.223      134.356        0.381        0.028       83.758       10.124        0.015      336.512        7.863      866.277
10/19/2013  00:02:00      -93.701      -26.577      -11.682        9.303       12.304        7.086       86.547      151.397       50.209        0.496        0.014       97.397        5.785        0.004      336.532        7.898      866.266
10/19/2013  00:03:00      -93.093      -25.096      -14.002       10.577       10.040        9.487      111.869      100.798       90.005        0.490        0.015       96.417        4.545        0.002      336.532        7.897      866.269
10/19/2013  00:04:00      -98.290      -24.366       -8.820       13.671       12.224        9.624      186.901      149.435       92.615        0.538        0.021      101.265        6.939        0.005      336.549        7.926      866.261
10/19/2013  00:05:00     -106.844      -19.789      -10.402       13.006       13.123        9.139      169.155      172.212       83.521        0.617        0.021      108.661        5.361        0.002      336.550        7.928      866.251
10/19/2013  00:06:00      -95.144      -29.449      -17.878        8.553       13.227        9.737       73.148      174.961       94.813        0.529        0.017       99.597        6.598        0.004      336.376        7.636      866.245
10/19/2013  00:07:00      -81.059      -28.509      -13.251       20.490       15.685       13.999      419.854      246.018      195.979        0.421        0.043       85.926        9.038        0.011      336.266        7.452      866.241
10/19/2013  00:08:00      -76.067      -34.279       -6.555       16.502       17.256       12.837      272.317      297.774      164.783        0.387        0.037       83.434        7.478        0.008      336.249        7.423      866.231
10/19/2013  00:09:00      -86.484      -11.967      -11.390       35.864       23.383       13.303     1286.216      546.755      176.966        0.488        0.100       87.308       15.693        0.032      336.278        7.471      866.231
10/19/2013  00:10:00      -71.340       -7.047       -9.387       39.607       22.338       18.322     1568.694      498.973      335.682        0.381        0.120       71.687       18.183        0.064      336.202        7.343      866.227
10/19/2013  00:11:00      -43.384       -9.761       -6.357       24.450       23.920       18.738      597.800      572.166      351.113        0.177        0.076       44.469        9.427        0.045      336.206        7.352      866.210
10/19/2013  00:12:00      -79.544      -18.647      -14.045       19.576       17.814       11.816      383.218      317.350      139.620        0.386        0.042       81.700        5.005        0.004      336.226        7.385      866.205
10/19/2013  00:13:00      -78.168      -21.608      -13.098       25.172       14.010       12.347      633.646      196.272      152.447        0.387        0.049       81.099       11.268        0.019      336.269        7.457      866.197
10/19/2013  00:14:00      -88.905      -17.729      -13.612       21.513       13.180       14.478      462.829      173.717      209.618        0.462        0.042       90.655        8.984        0.010      336.220        7.376      866.188
10/19/2013  00:15:00      -78.587      -40.037      -15.503       19.694       18.942       14.923      387.865      358.806      222.683        0.449        0.048       88.198       10.778        0.015      336.251        7.427      866.198
10/19/2013  00:16:00      -58.628      -46.917       -9.001       24.822       16.510       19.831      616.141      272.593      393.278        0.350        0.064       75.090       15.026        0.040      336.231        7.394      866.220
10/19/2013  00:17:00      -89.830      -33.292      -15.920       28.005       20.516       14.928      784.293      420.903      222.841        0.543        0.071       95.801       10.141        0.011      336.146        7.252      866.231
10/19/2013  00:18:00      -96.846      -46.638      -17.096       19.844       16.300       12.039      393.794      265.698      144.927        0.633        0.040      107.491       11.249        0.011      336.174        7.298      866.235
10/19/2013  00:19:00     -110.219      -53.432      -11.709       21.257       16.210       13.393      451.873      262.756      179.384        0.802        0.045      122.487        9.272        0.006      336.158        7.273      866.244
10/19/2013  00:20:00     -135.169      -41.920      -15.807       10.907       14.386       12.395      118.972      206.955      153.628        1.038        0.024      141.520        8.738        0.004      336.122        7.211      866.245
10/19/2013  00:21:00     -127.050      -58.129      -12.531       14.323       19.844       10.519      205.143      393.787      110.650        1.019        0.035      139.717        8.956        0.004      336.246        7.417      866.243
10/19/2013  00:22:00     -103.783      -40.336       -0.565       21.118       15.433       12.225      445.987      238.184      149.450        0.662        0.042      111.346       10.959        0.010      336.232        7.395      866.252
10/19/2013  00:23:00      -79.898      -31.537        2.178       29.095       20.645       15.923      846.543      426.199      253.529        0.445        0.076       85.897       15.754        0.034      336.223        7.381      866.259
10/19/2013  00:24:00      -90.091      -42.336       -3.709       27.793       22.159       19.596      772.427      491.031      384.022        0.578        0.082       99.543       18.241        0.034      336.245        7.417      866.266
10/19/2013  00:25:00      -50.405      -27.610        5.563       41.290       25.782       23.681     1704.823      664.722      560.795        0.313        0.147       57.472       26.076        0.206      336.200        7.341      866.280
10/19/2013  00:26:00      -50.771      -25.992        8.934       36.802       26.885       23.269     1354.399      722.821      541.440        0.298        0.131       57.038       22.779        0.159      336.118        7.204      866.283
10/19/2013  00:27:00      -60.815      -54.363        7.251       37.731       33.292       25.081     1423.611     1108.352      629.064        0.493        0.158       81.571       21.589        0.070      336.184        7.316      866.287
10/19/2013  00:28:00      -48.515      -45.077        6.505       45.635       29.855       23.516     2082.568      891.324      552.983        0.398        0.176       66.224       24.554        0.137      336.234        7.399      866.296
10/19/2013  00:29:00      -73.334      -47.625        3.173       38.875       29.359       21.534     1511.272      861.945      463.708        0.525        0.142       87.441       21.722        0.062      336.250        7.426      866.296
10/19/2013  00:30:00      -84.019      -44.976        7.184       52.288       26.473       19.501     2734.080      700.834      380.288        0.647        0.191       95.300       21.547        0.051      336.161        7.277      866.285
10/19/2013  00:31:00      -98.187      -71.121        0.209       53.986       31.527       28.859     2914.527      993.937      832.819        0.972        0.237      121.239       28.023        0.053      336.300        7.507      866.284
10/19/2013  00:32:00      -85.583      -48.514        5.076       43.287       34.159       24.185     1873.745     1166.826      584.900        0.666        0.181       98.377       23.632        0.058      336.292        7.496      866.283
10/19/2013  00:33:00      -57.613      -49.015        7.005       47.936       36.740       26.212     2297.886     1349.833      687.054        0.505        0.217       75.642       25.565        0.114      336.324        7.549      866.278
10/19/2013  00:34:00      -98.578      -71.103        1.393       37.931       34.581       22.542     1438.764     1195.818      508.146        0.896        0.157      121.545       21.299        0.031      336.343        7.580      866.286
10/19/2013  00:35:00      -99.503      -63.171        2.388       50.648       24.883       24.700     2565.220      619.168      610.080        0.885        0.190      117.862       20.375        0.030      336.327        7.554      866.284
10/19/2013  00:36:00     -103.388      -79.371        2.593       43.621       39.862       26.363     1902.751     1588.946      695.030        1.059        0.209      130.341       26.100        0.040      336.311        7.528      866.292
10/19/2013  00:37:00     -115.394      -73.476       -5.092       40.811       28.361       19.148     1665.568      804.373      366.628        1.079        0.142      136.801       19.221        0.020      336.344        7.582      866.295
10/19/2013  00:38:00      -88.003      -66.717        5.224       50.183       34.896       22.662     2518.286     1217.760      513.569        0.824        0.212      110.434       24.869        0.051      336.322        7.546      866.292
10/19/2013  00:39:00     -108.858      -58.912        2.926       43.527       31.974       25.705     1894.579     1022.339      660.746        0.945        0.179      123.776       26.456        0.046      336.358        7.606      866.298
10/19/2013  00:40:00     -116.058      -56.991        1.177       36.094       29.081       22.236     1302.796      845.710      494.458        0.968        0.132      129.296       20.510        0.025      336.312        7.530      866.299
10/19/2013  00:41:00     -115.860      -71.297        1.754       30.643       33.435       22.202      938.979     1117.902      492.946        1.053        0.127      136.040       17.186        0.016      336.361        7.612      866.286
10/19/2013  00:42:00     -100.973      -63.462        0.289       37.236       24.870       20.850     1386.530      618.531      434.724        0.833        0.122      119.260       22.771        0.036      336.367        7.620      866.285
10/19/2013  00:43:00     -124.474      -57.233       -4.059       29.854       23.891       15.830      891.279      570.791      250.583        1.025        0.086      137.001       13.598        0.010      336.351        7.595      866.279
10/19/2013  00:44:00     -125.243      -55.498       -4.556       24.318       22.070       17.125      591.354      487.097      293.274        1.008        0.069      136.989       10.173        0.006      336.263        7.446      866.262
10/19/2013  00:45:00     -105.442      -57.070       -7.201       16.925       15.777       14.006      286.450      248.909      196.168        0.758        0.037      119.896        9.376        0.006      336.211        7.360      866.261
10/19/2013  00:46:00      -87.596      -52.923       -8.928       38.868       15.743       16.355     1510.729      247.828      267.495        0.629        0.101      102.342       20.939        0.042      336.186        7.318      866.248
10/19/2013  00:47:00     -101.538      -37.711       -1.126       27.160       17.770       14.518      737.655      315.768      210.780        0.650        0.063      108.315       15.742        0.021      336.112        7.195      866.233
10/19/2013  00:48:00     -101.927      -53.781      -15.778       26.715       21.887       14.029      713.712      479.039      196.802        0.746        0.069      115.246       15.197        0.017      336.100        7.175      866.238
10/19/2013  00:49:00     -124.812      -51.114      -12.998       19.428       14.331       13.391      377.429      205.373      179.313        0.956        0.038      134.873        9.862        0.005      336.114        7.199      866.237
10/19/2013  00:50:00     -147.074      -59.382      -22.240       17.927       21.737       12.061      321.380      472.514      145.475        1.330        0.047      158.609        7.730        0.002      336.205        7.349      866.227
10/19/2013  00:51:00     -143.705      -75.096      -14.805       16.100       18.413       13.722      259.210      339.039      188.283        1.365        0.039      162.143        9.070        0.003      336.138        7.238      866.214
10/19/2013  00:52:00      -76.689      -53.841       -6.194       40.834       28.771       22.945     1667.377      827.764      526.458        0.592        0.151       93.702       21.782        0.054      336.062        7.112      866.218
10/19/2013  00:53:00      -58.838      -37.636        1.345       28.131       34.716       19.127      791.372     1205.209      365.829        0.362        0.118       69.845       12.758        0.033      336.101        7.176      866.209
10/19/2013  00:54:00      -51.789        1.732       -3.969       28.153       26.972       15.984      792.589      727.462      255.488        0.224        0.089       51.818       12.267        0.056      336.136        7.236      866.211
10/19/2013  00:55:00      -70.212       12.115      -14.310       12.674       16.956       11.485      160.627      287.491      131.915        0.293        0.029       71.250        7.749        0.012      336.245        7.417      866.202
10/19/2013  00:56:00      -54.911        0.674       -6.865       14.511       13.072       10.966      210.560      170.877      120.255        0.178        0.025       54.915        9.757        0.032      336.330        7.559      866.192
10/19/2013  00:57:00      -45.135      -22.569      -12.662       12.468       15.286       10.225      155.451      233.665      104.544        0.160        0.025       50.463        7.773        0.024      336.424        7.716      866.182
10/19/2013  00:58:00      -35.168      -29.012       -4.303       19.366       18.569       15.347      375.040      344.825      235.541        0.153        0.048       45.590       10.562        0.054      336.350        7.591      866.188
10/19/2013  00:59:00      -45.778      -33.002       -2.986       19.029       14.353       13.224      362.085      206.022      174.873        0.197        0.037       56.433        8.469        0.023      336.312        7.529      866.183
10/19/2013  01:00:00      -22.659      -35.255        2.089       41.452       22.754       19.976     1718.306      517.722      399.059        0.220        0.132       41.909       20.622        0.242      336.293        7.498      866.179
10/19/2013  01:01:00      -91.428      -64.117       -4.586       23.986       20.484       13.554      575.324      419.611      183.724        0.683        0.059      111.669       11.000        0.010      336.145        7.250      866.179
10/19/2013  01:02:00      -96.719      -21.747      -12.743       26.604       17.649       10.534      707.783      311.482      110.960        0.556        0.057       99.134        8.325        0.007      336.134        7.231      866.177
10/19/2013  01:03:00      -49.969      -42.370        0.079       27.590       23.411       17.508      761.217      548.069      306.541        0.295        0.081       65.514       13.381        0.042      336.181        7.309      866.172
10/19/2013  01:04:00      -40.367      -37.022       -0.583       26.539       15.513       19.343      704.339      240.662      374.162        0.216        0.066       54.773       16.822        0.094      336.245        7.417      866.169
10/19/2013  01:05:00      -83.851      -58.867       -4.067       28.663       17.573       19.846      821.593      308.817      393.848        0.602        0.076      102.452       19.129        0.035      336.182        7.312      866.181
10/19/2013  01:06:00      -75.297      -47.960       -7.371       21.747       15.031       13.753      472.949      225.919      189.144        0.446        0.044       89.274        5.627        0.004      336.198        7.338      866.179
10/19/2013  01:07:00      -71.883      -40.736        0.137       24.937       21.160       13.167      621.874      447.742      173.361        0.403        0.062       82.623        9.384        0.013      336.156        7.268      866.171
10/19/2013  01:08:00      -91.011      -43.265       -2.755       16.800       15.109       10.248      282.237      228.292      105.018        0.539        0.031      100.772        7.711        0.006      336.274        7.465      866.167
10/19/2013  01:09:00      -42.590      -27.556        4.330       31.933       19.565       18.653     1019.722      382.796      347.920        0.217        0.088       50.728       18.580        0.134      336.141        7.243      866.167
10/19/2013  01:10:00      -53.007      -33.502        2.302       31.708       16.645       16.576     1005.419      277.052      274.762        0.275        0.078       62.707       15.602        0.062      336.139        7.239      866.170
10/19/2013  01:11:00      -87.799      -48.410       -4.680       17.152       17.727       12.977      294.208      314.238      168.391        0.543        0.039      100.261        6.868        0.005      336.150        7.259      866.176
10/19/2013  01:12:00      -82.953      -49.623        0.918       33.727       23.168       16.317     1137.478      536.740      266.242        0.564        0.097       96.663       15.914        0.027      336.157        7.270      866.167
10/19/2013  01:13:00     -102.946      -31.791       -4.580       25.757       19.931       13.500      663.412      397.230      182.246        0.644        0.062      107.743       10.979        0.010      336.147        7.253      866.163
10/19/2013  01:14:00     -113.047      -22.851       -5.719       21.402       15.607       12.761      458.061      243.565      162.844        0.710        0.043      115.333       12.293        0.011      336.138        7.237      866.165
10/19/2013  01:15:00     -111.063      -40.703       -6.955       18.757       13.722       10.405      351.815      188.299      108.255        0.734        0.032      118.287        7.724        0.004      336.045        7.083      866.176
10/19/2013  01:16:00      -76.319      -50.492        1.616       36.096       26.200       19.836     1302.932      686.434      393.451        0.538        0.119       91.509       19.056        0.043      335.983        6.980      866.176
10/19/2013  01:17:00      -81.037      -54.835        1.710       36.987       21.836       20.779     1368.042      476.806      431.750        0.593        0.114       97.846       20.982        0.046      335.988        6.990      866.175
10/19/2013  01:18:00      -64.652      -41.578        9.628       39.740       24.670       23.712     1579.244      608.628      562.282        0.438        0.138       76.868       25.311        0.108      335.986        6.986      866.166
10/19/2013  01:19:00      -68.952      -43.998        4.026       45.414       30.882       22.635     2062.441      953.705      512.343        0.512        0.176       81.794       25.417        0.097      335.960        6.941      866.166
10/19/2013  01:20:00      -77.069      -41.157        8.836       45.202       31.925       24.893     2043.218     1019.188      619.646        0.570        0.184       87.371       28.374        0.105      335.923        6.879      866.172
10/19/2013  01:21:00     -116.335      -74.223       -8.427       24.678       20.465       19.033      608.984      418.813      362.257        1.025        0.070      137.996        7.688        0.003      335.950        6.924      866.176
10/19/2013  01:22:00     -114.961      -47.245       -5.472       22.194       22.636       17.139      492.552      512.394      293.750        0.839        0.065      124.290       11.689        0.009      335.907        6.855      866.163
10/19/2013  01:23:00     -125.898      -69.445       -3.210       28.557       24.137       20.311      815.481      582.596      412.524        1.125        0.091      143.781       15.823        0.012      335.860        6.776      866.151
10/19/2013  01:24:00     -105.807      -60.331       -3.342       37.244       24.133       19.214     1387.103      582.413      369.171        0.859        0.117      121.799       18.084        0.022      335.801        6.677      866.139
10/19/2013  01:25:00      -73.387      -36.000       -8.859       35.922       21.194       16.354     1290.391      449.190      267.457        0.438        0.100       81.742       19.371        0.056      335.764        6.616      866.135
10/19/2013  01:26:00      -86.282      -52.178      -12.772       14.205       12.010        8.945      201.769      144.232       80.004        0.538        0.021      100.833        5.591        0.003      335.752        6.597      866.125
10/19/2013  01:27:00      -72.019      -43.813       -7.689       16.062       16.874        9.712      257.974      284.728       94.318        0.390        0.032       84.299        5.787        0.005      335.747        6.588      866.115
10/19/2013  01:28:00      -70.263      -31.853       -2.488       24.677       18.308       11.619      608.971      335.197      134.996        0.352        0.054       77.146        6.612        0.007      335.871        6.793      866.107
10/19/2013  01:29:00      -44.774      -11.963        1.010       24.058       23.247       11.953      578.766      540.446      142.870        0.171        0.063       46.344        9.283        0.040      335.926        6.886      866.104
10/19/2013  01:30:00      -18.116      -16.497       -3.463       24.534       17.247       17.019      601.898      297.467      289.648        0.090        0.059       24.502       15.988        0.426      336.000        7.008      866.105
10/19/2013  01:31:00      -18.822      -11.323        8.291       26.032       19.934       14.836      677.677      397.361      220.099        0.092        0.065       21.965       10.402        0.224      335.964        6.947      866.103
10/19/2013  01:32:00      -44.133      -16.263        2.575       25.905       31.575       15.994      671.066      996.963      255.820        0.207        0.096       47.034       12.379        0.069      335.978        6.971      866.103
10/19/2013  01:33:00      -25.776       -5.019        1.482       24.730       21.910       11.936      611.551      480.059      142.477        0.096        0.062       26.260        8.387        0.102      335.976        6.968      866.110
10/19/2013  01:34:00      -28.465      -27.132        1.006       24.092       20.418       17.249      580.419      416.905      297.513        0.142        0.065       39.324       15.418        0.154      335.967        6.952      866.128
10/19/2013  01:35:00      -61.803      -25.242      -12.774       11.519       17.776        9.405      132.690      315.980       88.459        0.258        0.027       66.759        8.357        0.016      336.020        7.040      866.143
10/19/2013  01:36:00      -78.023      -13.534      -20.501       15.007       19.827       13.894      225.211      393.091      193.048        0.375        0.041       79.188       10.489        0.018      336.004        7.015      866.145
10/19/2013  01:37:00      -76.695       -7.824      -13.345       13.198       18.824       16.298      174.183      354.360      265.616        0.346        0.040       77.094        7.734        0.010      336.018        7.038      866.142
10/19/2013  01:38:00      -66.603      -29.570      -10.424       17.644       15.617       15.110      311.324      243.879      228.301        0.310        0.039       72.873       11.061        0.023      335.996        7.001      866.142
10/19/2013  01:39:00      -71.643      -18.568       -6.545       23.460       22.413       17.115      550.360      502.354      292.929        0.343        0.067       74.010       15.870        0.046      335.962        6.944      866.151
10/19/2013  01:40:00      -64.665      -38.357       -4.661       20.419       18.620       15.309      416.921      346.700      234.379        0.334        0.050       75.186        7.779        0.011      335.914        6.864      866.147
10/19/2013  01:41:00      -59.220      -39.088      -13.059       18.484       14.429       13.318      341.653      208.182      177.356        0.297        0.036       70.957        6.039        0.007      335.863        6.779      866.146
10/19/2013  01:42:00      -65.886      -43.217       -9.074       11.963       12.901       10.795      143.119      166.437      116.526        0.336        0.021       78.795        7.483        0.009      335.803        6.682      866.149
10/19/2013  01:43:00      -65.756      -42.566       -6.691       25.059       18.120       11.829      627.958      328.337      139.932        0.364        0.055       78.331        6.515        0.007      335.890        6.826      866.150
10/19/2013  01:44:00      -58.081      -40.771        1.718       36.260       26.642       19.004     1314.796      709.793      361.134        0.371        0.119       70.963       18.686        0.069      335.845        6.750      866.153
10/19/2013  01:45:00      -86.284      -41.994       -0.729       23.996       20.964       12.814      575.811      439.478      164.199        0.519        0.059       95.960       10.210        0.011      335.876        6.801      866.153
10/19/2013  01:46:00      -54.344      -32.716       -0.087       24.674       18.208       12.400      608.815      331.544      153.749        0.256        0.055       63.432       10.266        0.026      335.959        6.939      866.150
10/19/2013  01:47:00      -58.195      -34.344       -3.459       30.507       17.020       16.673      930.666      289.680      277.988        0.304        0.075       67.573       18.727        0.077      335.970        6.959      866.155
10/19/2013  01:48:00      -39.100      -22.142       -2.046       21.262       13.944       10.731      452.089      194.446      115.146        0.139        0.038       44.934        6.693        0.022      335.954        6.931      866.164
10/19/2013  01:49:00      -49.721      -22.205       -4.909       26.576       11.632       12.528      706.289      135.301      156.938        0.199        0.050       54.454       14.459        0.071      335.940        6.907      866.173
10/19/2013  01:50:00      -62.884      -18.504       -6.517       16.966       12.286        9.990      287.857      150.935       99.800        0.244        0.027       65.550        4.485        0.005      335.939        6.906      866.176
10/19/2013  01:51:00      -75.169      -30.563       -1.513       10.943       11.113        8.472      119.746      123.491       71.782        0.345        0.016       81.145        6.225        0.006      335.908        6.855      866.174
10/19/2013  01:52:00      -64.405      -32.459        0.988       20.944       14.549       11.527      438.671      211.685      132.883        0.299        0.039       72.122       11.074        0.024      335.888        6.823      866.177
10/19/2013  01:53:00      -71.072      -26.225       -2.035       17.448       13.788       13.514      304.426      190.100      182.638        0.321        0.034       75.756       10.123        0.018      335.894        6.831      866.180
10/19/2013  01:54:00      -86.260      -39.268       -5.261       12.434       10.277        7.513      154.594      105.611       56.443        0.466        0.016       94.778        5.364        0.003      335.889        6.823      866.180
10/19/2013  01:55:00      -92.207      -29.820      -11.287        9.441        9.771        6.167       89.133       95.473       38.028        0.487        0.011       96.909        2.942        0.001      335.843        6.748      866.198
10/19/2013  01:56:00     -100.803      -32.767      -10.860       10.894       10.425        6.776      118.683      108.675       45.914        0.581        0.014      105.995        5.442        0.003      335.809        6.691      866.199
10/19/2013  01:57:00      -98.250      -16.482       -5.094       15.654       13.216       11.257      245.042      174.656      126.711        0.525        0.027       99.623        6.353        0.004      335.836        6.735      866.193
10/19/2013  01:58:00      -75.680      -28.478        1.296       15.679       12.316       11.047      245.840      151.680      122.037        0.353        0.026       80.861        7.220        0.008      335.779        6.641      866.192
10/19/2013  01:59:00      -61.686      -32.897       -3.922       14.768       14.407        9.296      218.088      207.561       86.416        0.271        0.026       69.910        5.921        0.007      335.774        6.633      866.198
10/19/2013  02:00:00      -64.734      -29.285      -11.023       20.936       10.616       11.010      438.309      112.709      121.216        0.292        0.034       71.050        6.223        0.008      335.777        6.638      866.200
10/19/2013  02:01:00      -81.819      -18.749       -4.751       14.492       13.023       13.643      210.030      169.597      186.124        0.382        0.028       83.939        9.643        0.013      335.713        6.530      866.192
10/19/2013  02:02:00      -65.383      -36.425        1.416       35.991       20.406       15.918     1295.377      416.401      253.374        0.378        0.098       74.845       18.951        0.064      335.686        6.485      866.195
10/19/2013  02:03:00      -20.739      -17.362       13.381       25.338       18.613       15.107      642.028      346.435      228.235        0.106        0.061       27.047       13.942        0.266      335.729        6.556      866.195
10/19/2013  02:04:00      -12.204      -23.116        7.958       22.951       22.286       11.959      526.758      496.685      143.028        0.096        0.058       26.140       10.679        0.167      335.718        6.538      866.196
10/19/2013  02:05:00      -19.617      -24.100        0.157       15.567       18.094       13.303      242.335      327.378      176.965        0.086        0.037       31.075        6.207        0.040      335.630        6.393      866.200
10/19/2013  02:06:00      -72.868      -30.963       -3.444       16.033       17.636        9.739      257.055      311.026       94.849        0.347        0.033       79.173        4.489        0.003      335.629        6.392      866.189
10/19/2013  02:07:00      -51.706      -44.248        1.583       30.891       24.362       15.137      954.239      593.489      229.123        0.321        0.089       68.055       11.227        0.027      335.675        6.466      866.172
10/19/2013  02:08:00      -54.895      -39.970        2.325       33.059       21.343       16.064     1092.865      455.542      258.066        0.321        0.090       67.905       17.618        0.067      335.667        6.454      866.157
10/19/2013  02:09:00      -19.814      -24.540       13.772       32.010       27.066       14.699     1024.630      732.561      216.048        0.158        0.099       31.540       15.534        0.243      335.616        6.370      866.160
10/19/2013  02:10:00      -76.406      -55.210       -1.674       31.235       22.013       15.788      975.633      484.577      249.250        0.530        0.085       94.266       10.449        0.012      335.615        6.368      866.166
10/19/2013  02:11:00      -34.174      -30.071        5.739       30.508       18.840       15.516      930.763      354.950      240.746        0.182        0.076       45.521       13.653        0.090      335.597        6.336      866.172
10/19/2013  02:12:00      -12.630      -25.549       15.261       28.466       21.893       14.897      810.339      479.301      221.930        0.128        0.076       28.500       12.224        0.184      335.526        6.219      866.175
10/19/2013  02:13:00      -78.509      -31.875       -0.481       29.625       16.701       13.735      877.626      278.927      188.637        0.426        0.067       84.733       15.545        0.034      335.488        6.156      866.187
10/19/2013  02:14:00      -95.153      -33.853      -10.143       12.631       15.799        9.589      159.535      249.619       91.950        0.540        0.025      100.996        2.488        0.001      335.464        6.114      866.201
10/19/2013  02:15:00     -108.342      -12.030      -10.117       26.253       12.119       13.145      689.207      146.859      172.784        0.650        0.050      109.008       14.071        0.017      335.402        6.012      866.212
10/19/2013  02:16:00     -125.922      -21.699      -12.496       22.524       12.765       15.646      507.346      162.956      244.798        0.870        0.046      127.778       10.927        0.007      335.305        5.850      866.213
10/19/2013  02:17:00     -128.730      -22.247       -9.414       16.271       12.786       11.163      264.752      163.479      124.614        0.885        0.028      130.639        4.615        0.001      335.261        5.776      866.218
10/19/2013  02:18:00     -104.273      -18.208       -6.696       20.968       18.978       17.489      439.665      360.152      305.882        0.618        0.055      105.851       14.468        0.019      335.134        5.565      866.232
10/19/2013  02:19:00     -112.937      -42.465      -19.819       13.763       14.413       10.706      189.429      207.722      114.611        0.773        0.026      120.657        6.352        0.003      335.194        5.665      866.227
10/19/2013  02:20:00     -100.621      -51.381       -7.008       21.162       30.953       14.182      447.828      958.107      201.126        0.721        0.080      112.981       11.845        0.011      335.190        5.660      866.216
10/19/2013  02:21:00      -91.059      -48.696       -3.807       29.806       24.312       17.412      888.377      591.072      303.190        0.623        0.089      103.262       16.617        0.026      335.238        5.739      866.210
10/19/2013  02:22:00      -79.481      -63.905        2.715       39.707       27.574       21.502     1576.671      760.307      462.352        0.660        0.140      101.985       16.496        0.026      335.201        5.678      866.212
10/19/2013  02:23:00      -67.706      -26.921        3.684       49.850       30.103       24.347     2485.048      906.203      592.783        0.465        0.199       72.862       29.932        0.169      335.150        5.593      866.212
10/19/2013  02:24:00     -123.730      -35.668      -10.140       42.149       29.851       17.045     1776.569      891.053      290.530        0.982        0.148      128.768       15.484        0.014      335.170        5.626      866.205
10/19/2013  02:25:00      -63.832        5.819       -1.082       54.943       30.296       24.024     3018.730      917.852      577.155        0.431        0.226       64.096       24.412        0.145      335.137        5.570      866.194
10/19/2013  02:26:00      -98.402       -9.291      -10.994       32.836       34.701       17.937     1078.206     1204.157      321.722        0.625        0.130       98.839       10.916        0.012      335.191        5.661      866.195
10/19/2013  02:27:00      -70.914      -21.129       -9.722       24.902       30.002       17.774      620.095      900.125      315.900        0.370        0.092       73.994        7.021        0.009      335.203        5.681      866.193
10/19/2013  02:28:00      -94.032      -15.538       -9.416       32.102       21.329       16.189     1030.565      454.927      262.087        0.546        0.087       95.307        7.120        0.006      335.221        5.709      866.192
10/19/2013  02:29:00      -99.742      -13.296      -11.523       21.609       19.670       14.743      466.961      386.899      217.356        0.566        0.054      100.624        5.750        0.003      335.246        5.750      866.210
10/19/2013  02:30:00      -86.436      -52.993       -7.925       38.682       23.173       22.405     1496.326      536.989      501.979        0.644        0.127      101.388       20.828        0.042      335.238        5.737      866.199
10/19/2013  02:31:00      -45.972      -31.276       -1.198       38.937       30.846       22.129     1516.058      951.501      489.698        0.302        0.148       55.602       11.751        0.045      335.206        5.684      866.206
10/19/2013  02:32:00      -57.684      -26.154      -13.003       35.860       17.994       16.520     1285.905      323.780      272.908        0.303        0.094       63.337       10.049        0.025      335.208        5.688      866.203
10/19/2013  02:33:00      -47.690      -19.241       -6.419       25.638       16.800       13.899      657.323      282.236      193.183        0.191        0.057       51.425        4.415        0.007      335.201        5.677      866.202
10/19/2013  02:34:00      -40.663      -25.658       -9.177       26.344       15.745       15.505      694.025      247.906      240.412        0.179        0.059       48.082       10.317        0.046      335.249        5.758      866.200
10/19/2013  02:35:00      -46.756      -21.089      -11.422       12.601       12.102       10.876      158.777      146.468      118.288        0.159        0.021       51.292        5.078        0.010      335.296        5.834      866.209
10/19/2013  02:36:00      -46.335      -21.982      -10.963       24.629       11.916        9.737      606.565      141.993       94.806        0.180        0.042       51.285       10.778        0.044      335.255        5.766      866.215
10/19/2013  02:37:00      -69.207      -31.544      -16.297       11.196       20.855       11.772      125.355      434.945      138.581        0.337        0.035       76.057        5.853        0.006      335.300        5.841      866.215
10/19/2013  02:38:00      -76.346      -43.581      -13.681       23.117       17.741       16.191      534.394      314.737      262.140        0.451        0.056       87.909       10.282        0.014      335.225        5.718      866.213
10/19/2013  02:39:00      -64.703      -25.200      -14.554       42.751       22.571       16.807     1827.644      509.428      282.483        0.383        0.131       69.437       14.404        0.043      335.140        5.577      866.216
10/19/2013  02:40:00      -86.595      -31.501       -5.700       21.706       19.582       17.898      471.144      383.472      320.340        0.485        0.059       92.146       14.497        0.025      335.125        5.552      866.204
10/19/2013  02:41:00      -80.178      -32.476      -16.048       18.510       20.395       14.961      342.622      415.949      223.835        0.436        0.049       86.505       13.364        0.024      335.099        5.510      866.201
10/19/2013  02:42:00      -84.292      -39.844       -7.900       24.938       19.864       23.286      621.893      394.570      542.248        0.516        0.078       93.235       13.819        0.022      335.126        5.554      866.206
10/19/2013  02:43:00      -86.659      -42.202      -20.068       22.730       21.603       17.886      516.664      466.704      319.918        0.550        0.065       96.389        6.152        0.004      335.092        5.497      866.204
10/19/2013  02:44:00     -106.131      -25.435      -15.880       37.942       24.665       23.672     1439.633      608.366      560.386        0.739        0.130      109.136       15.001        0.019      335.104        5.518      866.201
10/19/2013  02:45:00      -94.610      -28.389      -16.917       30.781       24.217       19.169      947.455      586.440      367.437        0.597        0.095       98.777       11.296        0.013      335.055        5.436      866.196
10/19/2013  02:46:00      -98.675      -22.361      -15.265       25.098       23.606       16.705      629.930      557.263      279.066        0.597        0.073      101.177        6.162        0.004      335.148        5.588      866.203
10/19/2013  02:47:00      -53.998      -19.787      -12.246       27.140       17.349       15.538      736.568      301.004      241.418        0.237        0.064       57.510       14.209        0.061      335.191        5.660      866.204
10/19/2013  02:48:00      -56.749      -38.261      -15.662       16.656       16.467       11.973      277.416      271.174      143.360        0.281        0.035       68.443        6.389        0.009      335.208        5.688      866.196
10/19/2013  02:49:00      -61.991      -23.411      -12.921       14.853       18.926       11.765      220.613      358.210      138.423        0.264        0.036       66.264        6.803        0.011      335.188        5.655      866.187
10/19/2013  02:50:00      -58.409      -34.546      -17.435       16.326       18.570       11.443      266.544      344.831      130.940        0.283        0.037       67.861        7.053        0.011      335.253        5.762      866.177
10/19/2013  02:51:00      -67.902      -37.950      -16.562       19.873       22.304       12.041      394.955      497.451      144.984        0.368        0.052       77.787        9.697        0.016      335.235        5.733      866.150
10/19/2013  02:52:00      -68.920      -25.339      -13.993       28.022       28.909       22.726      785.253      835.731      516.490        0.386        0.107       73.430       11.540        0.025      335.188        5.656      866.129
10/19/2013  02:53:00      -48.004      -34.219       -8.180       25.992       28.861       18.336      675.600      832.978      336.197        0.269        0.092       58.952       13.794        0.055      335.149        5.592      866.123
10/19/2013  02:54:00      -85.817      -75.026      -18.146       21.762       27.614       17.302      473.590      762.530      299.362        0.743        0.077      113.989        9.738        0.007      335.047        5.422      866.115
10/19/2013  02:55:00     -101.379      -62.899      -18.087       17.667       21.515       13.384      312.121      462.883      179.126        0.776        0.048      119.306       10.282        0.007      335.044        5.416      866.109
10/19/2013  02:56:00     -106.985      -31.683      -18.132       28.834       15.517       17.133      831.381      240.785      293.536        0.707        0.068      111.577       17.669        0.025      334.999        5.343      866.105
10/19/2013  02:57:00     -104.072      -24.566      -18.761       22.293       21.099       14.880      496.966      445.186      221.415        0.647        0.058      106.932       10.878        0.010      335.014        5.367      866.107
10/19/2013  02:58:00     -106.068      -28.274      -15.381       20.954       18.216       14.378      439.085      331.814      206.726        0.663        0.049      109.772        9.703        0.008      334.962        5.280      866.107
10/19/2013  02:59:00     -133.124      -26.257      -25.329       12.278       10.528        9.108      150.738      110.840       82.952        0.970        0.017      135.689        4.423        0.001      334.984        5.318      866.101
10/19/2013  03:00:00     -138.748      -45.187      -20.486       11.969       18.952       12.773      143.254      359.169      163.138        1.119        0.033      145.920        3.576        0.001      335.127        5.555      866.104
10/19/2013  03:01:00     -133.469      -50.974      -10.965       10.475       16.298       11.134      109.722      265.626      123.956        1.052        0.025      142.872        2.833        0.000      335.113        5.531      866.100
10/19/2013  03:02:00     -121.571      -52.772       -8.846       27.477       21.271       14.482      754.971      452.477      209.730        0.953        0.071      132.531       11.964        0.008      335.099        5.509      866.096
10/19/2013  03:03:00      -97.083      -60.294       -3.183       39.433       26.535       22.337     1554.989      704.101      498.949        0.791        0.138      114.282       21.066        0.034      335.046        5.420      866.110
10/19/2013  03:04:00     -119.745      -54.729       -4.506       36.324       22.084       16.832     1319.446      487.691      283.320        0.972        0.105      131.660       14.232        0.012      335.026        5.388      866.108
10/19/2013  03:05:00     -107.309      -50.397       -1.166       32.741       28.223       18.126     1071.946      796.560      328.550        0.813        0.110      118.554       18.103        0.023      334.965        5.287      866.105
10/19/2013  03:06:00      -88.597      -49.040        0.512       48.336       20.737       21.624     2336.382      430.042      467.618        0.674        0.162      101.264       22.020        0.047      334.883        5.150      866.117
10/19/2013  03:07:00     -114.539      -54.390       -7.591       17.035       20.642       13.395      290.206      426.108      179.414        0.852        0.045      126.797        6.905        0.003      334.870        5.128      866.110
10/19/2013  03:08:00      -91.550      -46.974       -0.642       29.517       22.002       16.503      871.239      484.105      272.342        0.611        0.081      102.898       14.634        0.020      334.809        5.025      866.097
10/19/2013  03:09:00      -88.373      -40.046        0.068       31.238       19.049       17.022      975.832      362.878      289.739        0.552        0.081       97.023       17.778        0.034      334.770        4.962      866.093
10/19/2013  03:10:00      -83.810      -56.593        4.346       41.216       26.071       20.619     1698.778      679.722      425.124        0.652        0.140      101.128       22.768        0.051      334.809        5.027      866.080
10/19/2013  03:11:00     -111.963      -62.207       -7.398       20.317       20.466       13.073      412.793      418.838      170.913        0.873        0.050      128.084        9.086        0.005      334.902        5.180      866.066
10/19/2013  03:12:00     -105.307      -50.463       -6.386       28.149       19.287       15.565      792.364      371.991      242.264        0.754        0.070      116.773       16.020        0.019      334.851        5.095      866.073
10/19/2013  03:13:00     -103.263      -31.653        1.252       27.927       22.346       17.756      779.902      499.362      315.267        0.663        0.080      108.005       15.031        0.019      334.822        5.048      866.076
10/19/2013  03:14:00     -109.548      -42.915        1.953       23.576       23.059       13.038      555.837      531.696      169.979        0.755        0.063      117.654       12.456        0.011      334.870        5.126      866.081
10/19/2013  03:15:00      -99.371      -35.428        5.106       30.154       21.576       15.300      909.277      465.503      234.093        0.638        0.080      105.497       13.625        0.017      334.868        5.125      866.095
10/19/2013  03:16:00      -96.287      -33.383        4.020       22.517       23.050       14.263      507.029      531.283      203.426        0.582        0.062      101.910        8.927        0.008      334.807        5.024      866.102
10/19/2013  03:17:00      -83.967      -31.507       -1.286       27.860       22.924       17.103      776.156      525.519      292.518        0.482        0.080       89.683       15.750        0.031      334.766        4.955      866.104
10/19/2013  03:18:00      -76.455      -49.182        1.015       33.591       20.762       15.375     1128.333      431.080      236.379        0.503        0.090       90.908       17.453        0.037      334.848        5.092      866.111
10/19/2013  03:19:00      -69.273      -32.585        2.391       42.953       25.143       18.329     1844.925      632.178      335.940        0.434        0.141       76.554       21.056        0.076      334.846        5.087      866.098
10/19/2013  03:20:00      -99.003      -58.059        1.554       45.942       25.024       23.107     2110.660      626.187      533.912        0.822        0.164      114.771       22.996        0.040      334.788        4.991      866.086
10/19/2013  03:21:00     -130.724      -47.874       -5.805       18.147       15.277       10.822      329.330      233.378      117.113        1.005        0.034      139.215        8.448        0.004      334.690        4.830      866.070
10/19/2013  03:22:00      -93.944      -65.762       -3.058       38.532       28.808       21.185     1484.728      829.907      448.790        0.796        0.138      114.674       20.301        0.031      334.819        5.042      866.057
10/19/2013  03:23:00      -70.559      -49.270        2.971       37.243       32.256       22.552     1387.017     1040.431      508.583        0.518        0.147       86.059       17.331        0.041      334.882        5.148      866.048
10/19/2013  03:24:00      -80.323      -60.196        2.444       44.711       34.823       24.465     1999.038     1212.618      598.543        0.695        0.191      100.376       21.419        0.046      334.756        4.939      866.046
10/19/2013  03:25:00      -68.297      -54.797        7.627       55.454       29.854       23.862     3075.163      891.257      569.374        0.613        0.227       87.562       28.644        0.107      334.760        4.944      866.036
10/19/2013  03:26:00      -71.257      -45.279       10.204       42.104       31.369       28.017     1772.727      984.039      784.953        0.539        0.177       84.426       26.394        0.098      334.755        4.935      866.026
10/19/2013  03:27:00      -73.136      -45.807        7.001       48.470       34.851       25.335     2349.367     1214.582      641.837        0.585        0.210       86.297       28.261        0.107      334.788        4.991      866.026
10/19/2013  03:28:00      -86.596      -57.111        2.343       47.729       32.333       22.394     2278.036     1045.448      501.487        0.729        0.191      103.733       21.545        0.043      334.848        5.091      866.022
10/19/2013  03:29:00     -108.257      -52.073        5.663       43.479       29.388       24.386     1890.419      863.672      594.656        0.891        0.167      120.130       20.663        0.030      334.781        4.980      866.018
10/19/2013  03:30:00     -130.597      -37.289       -2.507       27.077       27.155       17.686      733.169      737.369      312.792        1.012        0.089      135.816       14.047        0.011      334.728        4.893      866.017
10/19/2013  03:31:00     -129.567      -20.214        1.362       44.053       31.460       19.615     1940.670      989.723      384.765        1.026        0.166      131.134       21.330        0.026      334.687        4.825      866.027
10/19/2013  03:32:00     -115.153      -30.016       -3.473       40.447       21.710       15.376     1635.922      471.337      236.428        0.826        0.117      119.000       12.844        0.012      334.708        4.857      866.019
10/19/2013  03:33:00     -125.122      -38.938       -5.924       28.387       22.625       19.644      805.846      511.888      385.868        0.945        0.085      131.041       19.535        0.022      334.791        4.996      866.021
10/19/2013  03:34:00     -122.679      -29.650      -11.039       23.623       23.475       20.070      558.027      551.089      402.816        0.878        0.076      126.211       11.546        0.008      334.879        5.143      866.033
10/19/2013  03:35:00      -56.036      -41.203        1.606       28.228       31.144       18.791      796.822      969.976      353.096        0.348        0.106       69.554       17.182        0.061      334.756        4.939      866.056
10/19/2013  03:36:00      -49.674      -39.371       -4.174       29.268       27.005       17.191      856.598      729.290      295.521        0.296        0.094       63.384       12.915        0.042      334.869        5.126      866.059
10/19/2013  03:37:00      -63.683      -25.606       -2.966       19.403       24.460       14.089      376.476      598.300      198.505        0.295        0.059       68.638        8.049        0.014      334.737        4.907      866.052
10/19/2013  03:38:00      -63.697      -27.757       -6.340       22.197       23.232       11.557      492.686      539.715      133.563        0.302        0.058       69.482       10.102        0.021      334.737        4.908      866.065
10/19/2013  03:39:00      -29.037      -19.431       -5.992       13.723       15.480        9.803      188.323      239.632       96.090        0.089        0.026       34.939        2.471        0.005      334.740        4.913      866.073
10/19/2013  03:40:00      -25.348      -20.946       -5.692        9.146       11.328       10.849       83.652      128.322      117.691        0.072        0.016       32.882        8.196        0.062      334.807        5.022      866.073
10/19/2013  03:41:00      -21.152       -6.587       -9.087       10.903       14.519        6.673      118.877      210.814       44.534        0.047        0.019       22.154        5.148        0.054      334.852        5.099      866.077
10/19/2013  03:42:00      -48.663       10.306       -9.495       16.715       24.242       11.014      279.399      587.697      121.314        0.178        0.049       49.742        5.160        0.011      335.088        5.490      866.088
10/19/2013  03:43:00      -49.246      -16.144       -9.584       16.285       24.773       15.068      265.193      613.710      227.034        0.194        0.055       51.825        4.117        0.006      334.883        5.149      866.097
10/19/2013  03:44:00      -38.713      -33.962       -7.077       24.811       23.127       15.717      615.594      534.858      247.018        0.205        0.070       51.499       14.525        0.080      334.728        4.892      866.095
10/19/2013  03:45:00      -62.045      -31.881      -10.152       16.494       15.801       12.093      272.038      249.679      146.252        0.282        0.033       69.757        7.564        0.012      334.783        4.982      866.096
10/19/2013  03:46:00      -84.358      -15.379      -13.987       12.912       12.897       11.122      166.714      166.324      123.690        0.400        0.023       85.748        6.986        0.007      334.625        4.721      866.095
10/19/2013  03:47:00      -85.408      -33.919      -20.212       13.256       14.804       11.384      175.726      219.173      129.602        0.469        0.026       91.897        4.455        0.002      334.632        4.732      866.099
10/19/2013  03:48:00      -89.213      -31.586      -18.674        8.481       10.279        8.366       71.921      105.660       69.996        0.478        0.012       94.640        4.638        0.002      334.609        4.695      866.100
10/19/2013  03:49:00      -98.803      -41.319      -16.298       11.086       10.064       10.926      122.893      101.283      119.384        0.604        0.017      107.095        7.403        0.005      334.600        4.679      866.103
10/19/2013  03:50:00      -97.088      -32.652      -17.302       10.362        7.870        7.654      107.374       61.942       58.586        0.551        0.011      102.432        5.968        0.003      334.588        4.660      866.108
10/19/2013  03:51:00     -100.326      -19.674      -15.248       10.380       11.004        7.261      107.754      121.086       52.724        0.548        0.014      102.236        3.729        0.001      334.708        4.860      866.122
10/19/2013  03:52:00     -101.550      -16.030      -17.724        8.862        7.443        7.787       78.532       55.397       60.632        0.554        0.010      102.808        3.535        0.001      334.792        4.998      866.129
10/19/2013  03:53:00      -87.676      -16.336      -12.739       19.089       13.012       11.995      364.404      169.323      143.886        0.440        0.034       89.185        9.748        0.012      334.743        4.918      866.133
10/19/2013  03:54:00      -85.177      -10.189      -13.179       21.599       11.319        8.188      466.535      128.129       67.038        0.410        0.033       85.784        5.873        0.005      334.744        4.919      866.146
10/19/2013  03:55:00      -57.750      -15.865      -15.308       13.704       13.275       12.328      187.795      176.218      151.973        0.217        0.026       59.890       10.612        0.031      334.795        5.005      866.159
10/19/2013  03:56:00      -64.684      -13.582      -13.078       15.549       14.204       11.337      241.762      201.744      128.530        0.256        0.029       66.095        9.850        0.022      334.795        5.004      866.168
10/19/2013  03:57:00      -47.490      -10.011       -5.927       12.112       20.610       12.622      146.710      424.771      159.306        0.156        0.037       48.534        9.311        0.037      334.777        4.974      866.167
10/19/2013  03:58:00      -51.243       -1.710       -5.451       13.670       17.223       14.840      186.879      296.617      220.224        0.168        0.035       51.271        4.196        0.007      334.819        5.043      866.165
10/19/2013  03:59:00      -56.296      -27.373      -16.582       12.968       13.411       10.769      168.170      179.866      115.964        0.233        0.023       62.598        7.577        0.015      334.792        4.998      866.166
10/19/2013  04:00:00      -60.193      -38.671       -9.312       20.369       14.530       13.628      414.878      211.119      185.730        0.301        0.041       71.544        7.002        0.010      334.690        4.829      866.175
10/19/2013  04:01:00      -77.413      -41.949       -9.677       18.175       10.558       10.128      330.332      111.480      102.571        0.420        0.027       88.048        6.708        0.006      334.581        4.646      866.172
10/19/2013  04:02:00      -81.621      -51.726       -5.156       14.498       15.343        8.887      210.203      235.414       78.985        0.494        0.026       96.631        6.439        0.004      334.685        4.821      866.173
10/19/2013  04:03:00      -64.815      -51.019       -7.247       18.180       13.184        9.120      330.527      173.810       83.174        0.372        0.029       82.486        4.533        0.003      334.712        4.867      866.170
10/19/2013  04:04:00      -72.140      -39.097        0.864       22.471       13.018       12.532      504.948      169.480      157.048        0.378        0.042       82.053       10.279        0.016      334.734        4.903      866.180
10/19/2013  04:05:00      -86.269      -47.557       -7.626       25.615       17.695       14.041      656.119      313.115      197.163        0.546        0.058       98.509        9.675        0.010      334.730        4.895      866.186
10/19/2013  04:06:00      -93.424      -40.465        1.102       20.611       17.615       13.431      424.814      310.289      180.402        0.564        0.046      101.810       10.105        0.010      334.717        4.875      866.186
10/19/2013  04:07:00      -99.755      -50.283       -2.507       20.266       13.141       11.984      410.711      172.686      143.614        0.661        0.036      111.711        9.154        0.007      334.671        4.797      866.179
10/19/2013  04:08:00      -73.426      -40.873       -1.713       25.971       17.268       16.873      674.506      298.182      284.700        0.416        0.063       84.036       15.678        0.035      334.627        4.724      866.181
10/19/2013  04:09:00      -92.680      -58.858      -10.967       14.319       19.968       10.864      205.035      398.704      118.019        0.645        0.036      109.791        5.869        0.003      334.725        4.888      866.183
10/19/2013  04:10:00     -102.300      -39.209       -8.212       14.105       15.018       11.526      198.957      225.538      132.843        0.631        0.028      109.557        7.772        0.005      334.646        4.755      866.177
10/19/2013  04:11:00      -96.104      -22.689      -12.247       18.995       15.668       12.186      360.823      245.489      148.506        0.533        0.038       98.746       10.039        0.010      334.621        4.714      866.187
10/19/2013  04:12:00      -91.373      -22.143      -10.242       19.566       15.442       10.664      382.812      238.453      113.722        0.484        0.037       94.018        8.195        0.008      334.614        4.704      866.197
10/19/2013  04:13:00      -77.362      -25.219      -10.089       17.894       18.299        9.295      320.184      334.859       86.396        0.373        0.037       81.369        4.703        0.003      334.693        4.834      866.205
10/19/2013  04:14:00      -81.096      -24.995       -7.523       11.806       16.325        9.671      139.383      266.513       93.520        0.388        0.025       84.860        6.392        0.006      334.719        4.877      866.208
10/19/2013  04:15:00      -66.274      -13.719       -6.784       18.321       13.570       11.974      335.662      184.136      143.385        0.264        0.033       67.679       11.554        0.029      334.704        4.853      866.208
10/19/2013  04:16:00      -92.489      -21.712      -12.945       11.192        9.881        7.410      125.262       97.630       54.907        0.474        0.014       95.003        4.938        0.003      334.695        4.839      866.213
10/19/2013  04:17:00      -89.210      -27.111       -5.591       11.293       10.190        8.301      127.538      103.844       68.910        0.451        0.015       93.238        3.658        0.002      334.688        4.827      866.228
10/19/2013  04:18:00      -51.799      -27.013        3.792       26.974       15.882       11.498      727.582      252.235      132.196        0.227        0.056       58.420       13.482        0.053      334.662        4.783      866.251
10/19/2013  04:19:00      -64.812      -25.926       -0.527       22.890       17.196       10.208      523.970      295.712      104.194        0.290        0.046       69.805        9.391        0.018      334.631        4.732      866.258
10/19/2013  04:20:00      -95.676      -23.661       -4.725       15.160       12.039        8.394      229.834      144.937       70.456        0.509        0.022       98.558        3.524        0.001      334.613        4.701      866.263
10/19/2013  04:21:00      -96.868      -26.422      -11.712        7.302        8.767        7.197       53.323       76.860       51.794        0.520        0.009      100.407        1.088        0.000      334.571        4.630      866.263
10/19/2013  04:22:00      -89.612      -33.883       -8.250       12.777       10.955        8.070      163.264      120.017       65.133        0.480        0.017       95.803        7.145        0.006      334.619        4.711      866.262
10/19/2013  04:23:00      -51.850      -35.438        0.190       24.206       14.530       12.427      585.939      211.116      154.437        0.245        0.048       62.804       12.237        0.038      334.646        4.757      866.270
10/19/2013  04:24:00      -57.987      -26.500        0.057       25.350       15.999       11.441      642.638      255.978      130.888        0.255        0.051       63.756       12.674        0.040      334.575        4.637      866.275
10/19/2013  04:25:00      -81.603      -28.485       -5.919       11.160       11.284        9.249      124.552      127.336       85.553        0.392        0.017       86.432        6.337        0.005      334.548        4.592      866.277
10/19/2013  04:26:00      -82.638      -23.115      -10.724        7.009        7.216        5.783       49.127       52.066       33.444        0.381        0.007       85.810        2.392        0.001      334.571        4.633      866.278
10/19/2013  04:27:00      -79.774      -21.522       -8.378        6.821        6.716        4.343       46.532       45.106       18.861        0.350        0.006       82.626        2.205        0.001      334.609        4.694      866.277
10/19/2013  04:28:00      -45.736      -23.243       -0.706       25.311       13.068        9.984      640.658      170.767       99.689        0.177        0.046       51.303       12.007        0.055      334.591        4.665      866.285
10/19/2013  04:29:00      -60.418      -24.378       -0.951       14.456        7.521       10.906      208.990       56.562      118.940        0.231        0.019       65.151       10.715        0.027      334.602        4.683      866.281
10/19/2013  04:30:00      -63.319      -26.956       -9.872        9.738        6.825        8.228       94.835       46.582       67.702        0.252        0.010       68.818        4.927        0.005      334.622        4.714      866.285
10/19/2013  04:31:00      -76.394      -18.124      -13.161        7.604        6.658        6.149       57.828       44.326       37.808        0.324        0.007       78.514        3.635        0.002      334.609        4.693      866.285
10/19/2013  04:32:00      -67.846      -11.091      -10.152        9.734        7.549        6.861       94.756       56.983       47.072        0.251        0.010       68.747        3.580        0.003      334.530        4.563      866.290
10/19/2013  04:33:00      -42.717      -12.892      -11.187       10.993       10.730        8.715      120.856      115.138       75.948        0.121        0.016       44.620        7.516        0.028      334.587        4.660      866.302
10/19/2013  04:34:00      -37.803      -20.572       -9.703        6.628        8.899       10.554       43.937       79.185      111.388        0.109        0.012       43.039        6.602        0.024      334.805        5.022      866.303
10/19/2013  04:35:00      -19.914      -14.581       -2.871       15.405       13.235        6.344      237.313      175.169       40.243        0.053        0.023       24.681        7.609        0.095      335.016        5.370      866.296
10/19/2013  04:36:00      -43.375      -18.261       -7.766        9.161       10.041        9.674       83.916      100.821       93.586        0.128        0.014       47.062        7.150        0.023      334.809        5.028      866.294
10/19/2013  04:37:00      -61.133      -23.271      -10.005       11.297        9.337        8.740      127.625       87.188       76.390        0.233        0.015       65.412        5.129        0.006      334.548        4.592      866.287
10/19/2013  04:38:00      -73.276      -25.085      -12.818       17.539       14.263        9.053      307.622      203.424       81.963        0.338        0.030       77.451        6.598        0.007      334.304        4.190      866.288
10/19/2013  04:39:00      -64.941       -9.626      -11.574       28.386       15.213       14.782      805.760      231.425      218.508        0.285        0.063       65.651        9.557        0.021      334.336        4.242      866.296
10/19/2013  04:40:00      -54.386       -3.409      -10.331       35.883       16.867       12.680     1287.570      284.503      160.779        0.240        0.087       54.493       15.284        0.079      334.219        4.048      866.303
10/19/2013  04:41:00      -65.290      -18.269       -7.787       22.892       19.120       13.762      524.035      365.555      189.392        0.287        0.054       67.797       13.856        0.042      334.163        3.955      866.310
10/19/2013  04:42:00      -73.867      -14.971       -8.166       14.682       21.451       11.867      215.566      460.146      140.836        0.328        0.041       75.369       10.150        0.018      334.167        3.961      866.321
10/19/2013  04:43:00      -78.481      -20.450       -9.638       16.604       22.515       12.427      275.698      506.924      154.422        0.380        0.047       81.101       11.355        0.020      334.189        3.999      866.325
10/19/2013  04:44:00      -96.465      -27.517      -11.296       24.646       25.364       15.603      607.443      643.351      243.441        0.584        0.075      100.313       12.780        0.016      334.215        4.042      866.331
10/19/2013  04:45:00      -93.608      -36.877       -8.764       40.159       34.284       16.513     1612.763     1175.361      272.666        0.663        0.153      100.610       18.308        0.033      334.226        4.059      866.341
10/19/2013  04:46:00     -102.375      -39.328       -8.748       23.629       24.679       16.352      558.314      609.037      267.376        0.677        0.072      109.669       10.614        0.009      334.234        4.072      866.343
10/19/2013  04:47:00      -89.317      -30.507      -10.568       25.190       31.324       18.609      634.541      981.170      346.281        0.549        0.098       94.383       15.389        0.027      334.220        4.049      866.349
10/19/2013  04:48:00      -71.581      -26.283      -14.179       23.653       25.175       19.522      559.466      633.788      381.117        0.379        0.079       76.254       13.910        0.033      334.266        4.125      866.350
10/19/2013  04:49:00      -56.160      -42.825      -11.208       31.710       24.743       20.188     1005.517      612.196      407.546        0.357        0.101       70.625       10.254        0.021      334.226        4.059      866.345
10/19/2013  04:50:00      -69.750      -36.431        2.233       38.095       24.635       20.609     1451.252      606.862      424.714        0.434        0.124       78.691       14.856        0.036      334.252        4.103      866.358
10/19/2013  04:51:00      -91.261      -39.797       -2.994       25.371       29.808       18.556      643.688      888.493      344.312        0.590        0.094       99.561       14.521        0.021      334.266        4.126      866.372
10/19/2013  04:52:00      -77.193      -46.472       -7.374       22.171       26.696       15.254      491.569      712.695      232.674        0.480        0.072       90.102       10.677        0.014      334.298        4.179      866.373
10/19/2013  04:53:00      -89.943      -20.010       -3.977       30.952       21.444       17.941      957.999      459.838      321.882        0.512        0.087       92.142       20.134        0.048      334.271        4.133      866.377
10/19/2013  04:54:00     -115.843       -4.259      -11.646       15.041        8.121        8.656      226.235       65.954       74.930        0.697        0.018      115.921        3.162        0.001      334.339        4.246      866.387
10/19/2013  04:55:00      -91.947      -15.729      -14.083       22.150       16.591       13.603      490.622      275.250      185.048        0.493        0.048       93.283       12.174        0.017      334.377        4.310      866.405
10/19/2013  04:56:00      -66.947      -31.254       -4.737       21.243       19.413       11.377      451.253      376.884      129.437        0.322        0.048       73.883        5.549        0.006      334.328        4.228      866.400
10/19/2013  04:57:00      -47.872      -40.114       -7.889       25.328       21.566       15.729      641.503      465.092      247.402        0.266        0.068       62.457        7.277        0.014      334.318        4.212      866.399
10/19/2013  04:58:00      -14.148      -24.623       16.512       20.255       17.209       17.036      410.270      296.157      290.237        0.104        0.050       28.398       13.592        0.229      334.212        4.035      866.406
10/19/2013  04:59:00      -62.774      -26.257       -4.902       32.413       24.191       18.980     1050.575      585.197      360.258        0.332        0.100       68.044       13.823        0.041      334.162        3.953      866.417
10/19/2013  05:00:00      -97.072      -56.186       -7.900       32.975       27.491       16.152     1087.331      755.773      260.890        0.737        0.105      112.160       15.935        0.020      334.183        3.987      866.419
10/19/2013  05:01:00     -110.624      -41.430        2.168       33.423       30.188       22.702     1117.123      911.332      515.401        0.825        0.127      118.128       21.588        0.033      334.173        3.971      866.412
10/19/2013  05:02:00     -100.825      -24.924      -11.364       26.233       18.875       12.772      688.165      356.283      163.130        0.606        0.060      103.860       11.907        0.013      334.092        3.836      866.408
10/19/2013  05:03:00     -118.795      -19.970      -11.911       13.973       17.697        9.681      195.248      313.195       93.720        0.763        0.030      120.462        6.270        0.003      334.192        4.003      866.422
10/19/2013  05:04:00     -105.053      -30.779      -10.282       17.838       16.748       11.381      318.183      280.489      129.535        0.641        0.036      109.469        8.340        0.006      334.218        4.045      866.435
10/19/2013  05:05:00      -84.505      -27.436       -6.753       18.969       16.681       12.749      359.815      278.258      162.528        0.437        0.040       88.847        9.337        0.011      334.155        3.940      866.442
10/19/2013  05:06:00     -104.756      -19.046      -12.268       12.312       12.703       10.090      151.595      161.366      101.812        0.595        0.021      106.473        5.822        0.003      334.280        4.150      866.447
10/19/2013  05:07:00     -115.899      -23.511      -14.512       16.788       16.881       10.915      281.823      284.983      119.127        0.744        0.034      118.260        9.953        0.007      334.312        4.201      866.454
10/19/2013  05:08:00     -104.382      -46.423      -17.733       16.444       18.447       11.655      270.413      340.297      135.842        0.706        0.037      114.240        7.621        0.004      334.267        4.127      866.454
10/19/2013  05:09:00      -97.733      -59.445       -6.741       22.255       21.662       14.963      495.275      469.221      223.884        0.716        0.059      114.392       13.071        0.013      334.291        4.168      866.455
10/19/2013  05:10:00      -83.545      -61.020       -1.024       44.529       21.579       19.842     1982.846      465.635      393.691        0.677        0.142      103.456       24.230        0.055      334.196        4.009      866.470
10/19/2013  05:11:00     -109.241      -53.022      -13.792       17.183       22.132       12.721      295.265      489.809      161.821        0.794        0.047      121.429        5.244        0.002      334.067        3.796      866.475
10/19/2013  05:12:00     -100.632      -31.326      -10.214       24.274       23.308       14.283      589.232      543.265      203.997        0.627        0.067      105.395       12.233        0.013      334.118        3.879      866.472
10/19/2013  05:13:00      -95.466      -38.184       -5.284       31.384       24.582       16.331      984.972      604.258      266.714        0.623        0.093      102.819       15.644        0.023      334.130        3.900      866.477
10/19/2013  05:14:00      -45.737      -39.364        4.389       38.724       27.885       20.239     1499.548      777.581      409.625        0.317        0.134       60.344       23.645        0.154      334.240        4.083      866.480
10/19/2013  05:15:00      -69.076      -28.502        2.476       48.178       23.326       21.377     2321.167      544.101      456.965        0.446        0.166       74.725       26.469        0.125      334.259        4.113      866.480
10/19/2013  05:16:00      -79.675      -28.775       -0.225       28.028       20.171       13.956      785.589      406.852      194.772        0.428        0.069       84.712       11.907        0.020      334.324        4.222      866.490
10/19/2013  05:17:00      -78.716      -39.978       -7.029       25.511       20.864       14.255      650.799      435.302      203.208        0.457        0.064       88.286        7.227        0.007      334.233        4.070      866.501
10/19/2013  05:18:00      -88.073      -43.318       -8.323       21.590       23.531       15.469      466.125      553.725      239.282        0.548        0.063       98.149       10.373        0.011      334.148        3.930      866.510
10/19/2013  05:19:00      -51.041      -37.466       -0.217       30.360       25.419       24.104      921.719      646.136      580.983        0.308        0.107       63.315       18.544        0.086      334.116        3.877      866.508
10/19/2013  05:20:00      -36.280      -29.001       -6.858       35.793       17.383       19.248     1281.132      302.174      370.470        0.208        0.098       46.447       16.357        0.124      334.090        3.831      866.504
10/19/2013  05:21:00      -53.871      -33.558      -15.443       23.208       18.199       20.495      538.623      331.193      420.061        0.278        0.064       63.468        8.723        0.019      334.154        3.939      866.515
10/19/2013  05:22:00      -78.293      -26.649      -15.453       19.071       19.388       17.687      363.705      375.892      312.847        0.407        0.053       82.704        5.372        0.004      334.173        3.970      866.510
10/19/2013  05:23:00      -27.077      -27.238       -1.609       20.949       18.221       17.646      438.854      332.001      311.370        0.128        0.054       38.407       13.551        0.124      334.130        3.899      866.509
10/19/2013  05:24:00      -67.022      -32.805      -16.505       25.368       20.250       16.485      643.519      410.069      271.750        0.358        0.066       74.620        8.885        0.014      334.147        3.927      866.516
10/19/2013  05:25:00      -63.050      -37.084       -4.646       38.811       27.211       15.042     1506.262      740.449      226.250        0.392        0.124       73.147        9.517        0.017      334.165        3.957      866.530
10/19/2013  05:26:00      -72.860      -31.499       -0.173       35.655       39.236       24.051     1271.255     1539.475      578.453        0.484        0.169       79.377       21.063        0.070      334.096        3.843      866.527
10/19/2013  05:27:00      -40.680      -35.766       -2.312       53.013       33.630       22.548     2810.327     1130.952      508.432        0.369        0.222       54.167       31.104        0.330      334.095        3.841      866.523
10/19/2013  05:28:00      -35.179      -36.311       -2.127       54.188       35.232       21.702     2936.355     1241.302      470.959        0.360        0.232       50.558       24.915        0.243      334.058        3.781      866.520
10/19/2013  05:29:00      -78.280      -52.834        1.922       57.227       26.893       20.768     3274.933      723.228      431.290        0.668        0.221       94.442       24.132        0.065      334.085        3.826      866.530
10/19/2013  05:30:00     -128.950      -42.489       -5.437       28.632       22.890       18.346      819.777      523.966      336.579        1.007        0.084      135.769       11.533        0.007      334.039        3.748      866.540
10/19/2013  05:31:00      -82.269      -39.306       -5.435       22.548       21.049       13.064      508.423      443.068      170.674        0.473        0.056       91.177        5.984        0.004      334.054        3.774      866.546
10/19/2013  05:32:00      -72.504      -48.316        0.866       20.412       15.996       13.345      416.651      255.870      178.088        0.422        0.043       87.128       10.425        0.014      334.169        3.964      866.558
10/19/2013  05:33:00      -54.160      -29.807        7.619       35.423       20.026       15.874     1254.800      401.053      251.969        0.289        0.095       61.820       19.514        0.100      334.110        3.868      866.568
10/19/2013  05:34:00      -57.019      -37.472        5.488       36.189       24.097       21.114     1309.666      580.689      445.783        0.351        0.117       68.230       21.678        0.101      334.137        3.911      866.565
10/19/2013  05:35:00      -99.072      -54.133        0.216       44.529       28.809       22.885     1982.857      829.967      523.714        0.804        0.167      112.896       19.394        0.030      334.132        3.902      866.574
10/19/2013  05:36:00     -112.858      -59.069        1.946       37.264       28.505       19.352     1388.568      812.533      374.485        0.940        0.129      127.382       18.406        0.021      334.075        3.808      866.592
10/19/2013  05:37:00      -91.702      -55.401       -0.100       37.030       26.365       19.262     1371.196      695.116      371.040        0.696        0.122      107.138       17.158        0.026      334.041        3.753      866.609
10/19/2013  05:38:00     -101.166      -51.484       -0.377       42.598       23.785       16.721     1814.592      565.731      279.604        0.777        0.133      113.513       12.843        0.013      334.069        3.800      866.615
10/19/2013  05:39:00      -97.213      -57.880        0.489       36.160       30.407       18.500     1307.553      924.571      342.264        0.769        0.129      113.139       17.304        0.023      334.064        3.790      866.616
10/19/2013  05:40:00     -118.313      -56.139       -4.230       45.270       29.943       18.617     2049.340      896.562      346.597        1.023        0.165      130.956       22.636        0.030      334.073        3.803      866.626
10/19/2013  05:41:00      -87.461      -39.190        8.571       44.860       26.343       24.965     2012.432      693.933      623.241        0.629        0.166       95.840       25.889        0.073      333.986        3.661      866.624
10/19/2013  05:42:00      -79.293      -34.656        7.164       41.027       29.843       17.688     1683.209      890.598      312.882        0.521        0.144       86.535       19.896        0.053      334.037        3.745      866.625
10/19/2013  05:43:00      -73.791      -35.533        7.872       52.699       23.625       18.092     2777.226      558.159      327.313        0.522        0.183       81.901       24.146        0.087      334.104        3.858      866.628
10/19/2013  05:44:00     -106.950      -31.058        2.238       40.157       27.466       17.227     1612.603      754.404      296.762        0.754        0.133      111.368       20.907        0.035      334.174        3.973      866.639
10/19/2013  05:45:00     -102.091      -38.280        0.514       25.276       23.851       14.705      638.898      568.874      216.243        0.666        0.071      109.032       10.184        0.009      334.207        4.027      866.639
10/19/2013  05:46:00      -92.901      -24.033       -0.055       27.293       22.399       15.456      744.911      501.736      238.886        0.535        0.074       95.960       11.943        0.015      334.126        3.893      866.639
10/19/2013  05:47:00      -91.426      -16.134        5.577       30.746       24.503       19.986      945.340      600.406      399.442        0.530        0.097       92.839       18.788        0.041      333.957        3.612      866.634
10/19/2013  05:48:00     -122.518      -29.671       -2.673       34.864       20.025       16.397     1215.466      400.985      268.868        0.889        0.094      126.060       18.651        0.022      334.021        3.719      866.638
10/19/2013  05:49:00     -126.792      -32.922       -3.311       31.054       22.767       17.472      964.327      518.331      305.282        0.948        0.089      130.997       17.895        0.019      334.082        3.820      866.645
10/19/2013  05:50:00     -133.745      -36.483       -2.173       22.568       21.057       15.934      509.308      443.410      253.893        1.021        0.060      138.631       14.759        0.011      334.067        3.794      866.645
10/19/2013  05:51:00     -136.765      -49.315        1.008       26.158       16.698       12.935      684.263      278.811      167.321        1.113        0.057      145.385       13.241        0.008      334.198        4.011      866.636
10/19/2013  05:52:00     -113.097      -49.761       -1.379       18.211       19.405       14.952      331.654      376.565      223.559        0.810        0.047      123.560       11.407        0.009      334.173        3.970      866.644
10/19/2013  05:53:00     -118.903      -74.543       -1.336       19.814       21.743       16.531      392.582      472.747      273.269        1.042        0.057      140.338       14.787        0.011      334.219        4.048      866.637
10/19/2013  05:54:00     -146.439      -26.460      -15.502       34.082       21.376       13.555     1161.567      456.914      183.741        1.209        0.090      148.810        7.893        0.003      334.382        4.318      866.633
10/19/2013  05:55:00     -108.925      -38.630       -5.037       29.347       15.998       17.879      861.223      255.932      319.666        0.741        0.072      115.572       15.895        0.019      334.260        4.117      866.632
10/19/2013  05:56:00     -102.533      -13.490       -3.008       33.592       31.230       22.530     1128.392      975.334      507.581        0.666        0.131      103.416       18.937        0.034      334.129        3.897      866.633
10/19/2013  05:57:00     -115.236       -8.489       -4.007       31.732       25.108       17.310     1006.919      630.435      299.634        0.765        0.097      115.548       15.989        0.019      334.010        3.701      866.643
10/19/2013  05:58:00     -100.563      -13.942       -7.812       30.118       21.632       13.621      907.096      467.936      185.520        0.596        0.078      101.525       10.037        0.010      334.075        3.808      866.652
10/19/2013  05:59:00      -77.135      -23.283       -3.448       25.337       24.950       15.553      641.972      622.499      241.889        0.400        0.075       80.572       14.176        0.031      334.056        3.777      866.659
10/19/2013  06:00:00      -95.936      -32.681       -4.861       25.853       23.158       13.626      668.391      536.277      185.674        0.584        0.070      101.350        7.313        0.005      334.015        3.710      866.667
10/19/2013  06:01:00      -70.836      -41.582        0.292       36.127       33.024       18.716     1305.156     1090.579      350.274        0.475        0.137       82.139       18.668        0.052      333.971        3.637      866.681
10/19/2013  06:02:00      -97.114      -26.041       -6.863       27.691       28.933       18.321      766.766      837.113      335.657        0.605        0.097      100.545       14.971        0.022      334.053        3.772      866.681
10/19/2013  06:03:00      -93.203       -5.728      -11.689       27.817       29.315       20.627      773.786      859.372      425.482        0.546        0.103       93.379       16.061        0.030      334.090        3.833      866.670
10/19/2013  06:04:00     -111.349      -24.523      -11.588       32.609       33.872       16.188     1063.330     1147.281      262.065        0.780        0.124      114.018       13.314        0.014      333.991        3.670      866.657
10/19/2013  06:05:00      -75.206      -21.800       -4.069       33.731       33.735       20.139     1137.799     1138.024      405.596        0.441        0.134       78.302       16.661        0.045      333.883        3.491      866.653
10/19/2013  06:06:00      -80.359      -34.757        2.867       35.997       37.741       19.458     1295.794     1424.379      378.616        0.539        0.155       87.553       14.217        0.026      333.841        3.421      866.649
10/19/2013  06:07:00     -144.192      -37.501      -14.063       29.753       31.233       20.351      885.212      975.490      414.179        1.233        0.114      148.989       16.960        0.013      333.814        3.375      866.644
10/19/2013  06:08:00     -134.876      -31.273      -15.820       34.829       27.455       19.620     1213.049      753.753      384.958        1.089        0.118      138.454       18.664        0.018      333.841        3.420      866.640
10/19/2013  06:09:00     -102.041      -58.088       -6.505       27.114       25.961       16.135      735.186      673.981      260.346        0.775        0.083      117.416       12.858        0.012      333.838        3.415      866.638
10/19/2013  06:10:00     -102.899      -50.068       -9.694       41.595       36.774       25.132     1730.180     1352.298      631.609        0.845        0.186      114.434       22.538        0.039      333.884        3.492      866.641
10/19/2013  06:11:00      -81.983      -20.386       -7.355       34.165       27.500       14.805     1167.216      756.245      219.201        0.467        0.107       84.479        7.364        0.008      333.953        3.606      866.659
10/19/2013  06:12:00      -66.318      -16.859       -2.494       42.706       33.547       20.040     1823.796     1125.375      401.593        0.402        0.168       68.428       19.245        0.079      334.073        3.805      866.674
10/19/2013  06:13:00      -93.649      -34.434       -3.748       28.118       26.321       14.822      790.626      692.779      219.680        0.584        0.085       99.779       14.456        0.021      334.052        3.770      866.683
10/19/2013  06:14:00      -85.031      -36.057        0.573       21.376       22.625       15.135      456.946      511.899      229.080        0.486        0.060       92.360       10.768        0.014      334.016        3.710      866.692
10/19/2013  06:15:00      -42.785      -21.836       -3.313       27.427       16.857       15.493      752.266      284.147      240.023        0.180        0.064       48.035       14.139        0.087      333.980        3.651      866.704
10/19/2013  06:16:00       -8.747      -20.888        4.383       15.579       11.281       17.348      242.706      127.258      300.937        0.060        0.034       22.645        9.822        0.188      334.083        3.821      866.713
10/19/2013  06:17:00      -11.353      -23.324        6.548        8.909       10.563       10.119       79.378      111.583      102.388        0.050        0.015       25.941        5.414        0.044      334.112        3.871      866.713
10/19/2013  06:18:00      -40.927      -18.894       -7.966       16.286       11.744       12.620      265.239      137.927      159.259        0.133        0.028       45.078        8.110        0.032      334.016        3.711      866.715
10/19/2013  06:19:00      -17.525      -16.576        3.971       26.288       18.286       13.316      691.037      334.375      177.323        0.090        0.060       24.123        9.410        0.152      333.961        3.621      866.715
10/19/2013  06:20:00      -57.286      -15.933       -7.716       20.469       11.118        9.320      418.967      123.603       86.856        0.211        0.031       59.461        4.694        0.006      333.874        3.475      866.731
10/19/2013  06:21:00      -33.594      -23.300       -0.892       11.500       10.493        8.054      132.261      110.109       64.874        0.099        0.015       40.883        6.293        0.024      333.906        3.529      866.741
10/19/2013  06:22:00      -36.047      -17.698       -8.450        7.178        8.559        7.314       51.519       73.261       53.494        0.093        0.009       40.158        2.745        0.005      333.950        3.602      866.748
10/19/2013  06:23:00      -38.574      -22.206       -1.927       17.568       13.497       10.464      308.637      182.161      109.494        0.129        0.030       44.509        9.646        0.047      334.091        3.835      866.750
10/19/2013  06:24:00       -9.060        2.941        3.445       15.362       14.716        8.289      235.989      216.559       68.706        0.031        0.026        9.526        6.582        0.477      333.933        3.574      866.762
10/19/2013  06:25:00       22.771       23.606       -3.429       12.463       17.371       11.971      155.321      301.767      143.307        0.084        0.030       32.799        9.161        0.078      333.817        3.381      866.777
10/19/2013  06:26:00       13.093        5.135        1.562       16.013       14.237        8.309      256.414      202.679       69.044        0.036        0.026       14.064        8.319        0.350      333.781        3.321      866.781
10/19/2013  06:27:00       -1.720      -10.236        5.086        7.313       14.883        9.952       53.480      221.516       99.052        0.025        0.019       10.379        7.541        0.528      333.845        3.426      866.778
10/19/2013  06:28:00      -40.883      -27.889       -8.562       23.308       10.957        7.695      543.240      120.051       59.209        0.162        0.036       49.490        7.809        0.025      333.899        3.517      866.772
10/19/2013  06:29:00      -63.340      -10.866       -6.150       10.234       11.471        9.246      104.728      131.582       85.491        0.224        0.016       64.266        5.325        0.007      333.801        3.355      866.765
10/19/2013  06:30:00      -86.112      -22.944       -5.746        7.102        7.936        8.050       50.439       62.975       64.808        0.408        0.009       89.116        1.688        0.000      333.859        3.449      866.754
10/19/2013  06:31:00      -98.809      -41.169       -8.916        9.868       11.707        7.390       97.386      137.049       54.605        0.591        0.014      107.042        6.839        0.004      333.829        3.401      866.744
10/19/2013  06:32:00     -103.917      -45.816       -4.938       12.840       10.898        7.504      164.860      118.756       56.317        0.663        0.017      113.568        6.293        0.003      333.780        3.319      866.738
10/19/2013  06:33:00     -103.571      -33.578       -9.384       10.615        9.611        7.091      112.673       92.367       50.279        0.610        0.013      108.878        2.457        0.001      333.821        3.388      866.740
10/19/2013  06:34:00     -109.083      -30.165      -11.530       12.637       13.982        7.946      159.694      195.508       63.143        0.668        0.021      113.177        3.391        0.001      333.927        3.564      866.738
10/19/2013  06:35:00     -104.624      -48.235       -6.520       16.210       11.398       11.096      262.770      129.913      123.123        0.692        0.026      115.207        9.484        0.007      333.933        3.574      866.729
10/19/2013  06:36:00      -93.673      -35.312        1.908       23.876       16.413       12.294      570.063      269.378      151.153        0.551        0.050      100.108       10.245        0.010      333.848        3.433      866.718
10/19/2013  06:37:00      -59.036      -29.214        2.541       36.248       22.163       18.381     1313.904      491.191      337.874        0.324        0.107       65.869       20.540        0.097      333.830        3.402      866.712
10/19/2013  06:38:00      -63.347      -26.988        0.931       23.172       21.074       12.865      536.923      444.130      165.499        0.294        0.057       68.857        9.632        0.020      333.736        3.248      866.705
10/19/2013  06:39:00      -78.079      -21.348        1.346       27.671       19.333       16.846      765.677      373.779      283.774        0.399        0.071       80.945       16.077        0.039      333.656        3.114      866.702
10/19/2013  06:40:00      -81.701      -32.497        3.476       40.582       21.620       15.270     1646.861      467.428      233.172        0.504        0.117       87.927       17.917        0.042      333.716        3.214      866.704
10/19/2013  06:41:00      -67.237      -31.523        5.860       46.653       28.211       16.802     2176.523      795.841      282.298        0.440        0.163       74.260       16.153        0.047      333.735        3.245      866.702
10/19/2013  06:42:00      -88.768      -34.798        1.874       39.536       21.325       14.553     1563.098      454.759      211.794        0.566        0.111       95.344       10.721        0.013      333.746        3.263      866.715
10/19/2013  06:43:00      -56.193      -27.361        8.345       29.967       21.487       18.635      897.997      461.710      347.250        0.284        0.085       62.501       15.176        0.059      333.757        3.280      866.720
10/19/2013  06:44:00      -71.397      -28.215        0.842       22.344       19.961       10.746      499.257      398.459      115.472        0.345        0.051       76.770        9.337        0.015      333.796        3.345      866.712
10/19/2013  06:45:00      -53.970      -26.964        1.258       26.372       14.409       12.984      695.501      207.619      168.573        0.236        0.054       60.331       13.681        0.051      333.776        3.313      866.707
10/19/2013  06:46:00      -63.001      -25.075       -4.352       13.696       14.970       11.403      187.571      224.108      130.017        0.258        0.027       67.807        6.075        0.008      333.830        3.403      866.707
10/19/2013  06:47:00      -76.209      -34.722       -1.099       16.055       14.606        9.859      257.764      213.330       97.190        0.379        0.028       83.747        8.262        0.010      333.851        3.437      866.715
10/19/2013  06:48:00      -39.941      -16.208        5.994       27.963       15.366       16.238      781.925      236.105      263.661        0.159        0.064       43.104       17.878        0.172      333.842        3.422      866.718
10/19/2013  06:49:00      -68.868      -26.721       -3.065       16.886       12.660        8.671      285.140      160.276       75.188        0.299        0.026       73.871        8.569        0.013      333.823        3.392      866.714
10/19/2013  06:50:00      -82.091      -24.426       -7.108       10.706       13.777        8.585      114.626      189.814       73.705        0.388        0.019       85.648        8.390        0.010      333.833        3.408      866.712
10/19/2013  06:51:00      -67.457      -13.705       -3.773       15.343       13.054        7.595      235.393      170.406       57.690        0.261        0.023       68.835        4.819        0.005      333.837        3.413      866.701
10/19/2013  06:52:00      -44.111       -6.401       -0.617       20.278       14.735        9.814      411.197      217.134       96.314        0.136        0.036       44.573        9.972        0.050      333.749        3.268      866.702
10/19/2013  06:53:00      -21.114       -0.790       -1.781        9.323       14.949        6.512       86.911      223.462       42.404        0.040        0.018       21.129        4.460        0.045      333.763        3.290      866.706
10/19/2013  06:54:00      -18.957      -13.973       -7.687       13.427       10.048        6.490      180.287      100.970       42.122        0.047        0.016       23.551        6.420        0.074      333.912        3.540      866.711
10/19/2013  06:55:00      -28.134      -11.740       -9.714        8.224        9.359        5.232       67.640       87.599       27.371        0.060        0.009       30.485        3.286        0.012      334.035        3.742      866.726
10/19/2013  06:56:00      -29.563        5.410       -9.256        6.231        5.053        8.740       38.826       25.531       76.381        0.056        0.007       30.054        4.705        0.025      333.938        3.584      866.737
10/19/2013  06:57:00      -16.777        6.131       -3.506       10.366        4.860        6.315      107.447       23.620       39.873        0.025        0.009       17.862        6.007        0.113      333.960        3.618      866.737
10/19/2013  06:58:00       -2.022        8.832        1.414       13.190        8.016        8.624      173.981       64.251       74.382        0.020        0.016        9.061        6.305        0.484      334.092        3.836      866.739
10/19/2013  06:59:00      -28.088      -10.919       -7.224        9.128        5.973        5.878       83.312       35.679       34.549        0.056        0.008       30.136        5.467        0.033      333.930        3.569      866.738
10/19/2013  07:00:00       -5.179       -4.093        2.056       10.280       10.896        5.797      105.675      118.729       33.602        0.015        0.013        6.601        7.281        1.217      334.034        3.739      866.733
10/19/2013  07:01:00       20.158       11.876       -0.033        8.549        9.900        3.313       73.082       98.012       10.974        0.036        0.009       23.396        1.640        0.005      334.193        4.003      866.735
10/19/2013  07:02:00       16.913       16.258        2.523        5.822        8.459        8.120       33.895       71.551       65.930        0.036        0.009       23.460        3.125        0.018      334.137        3.911      866.751
10/19/2013  07:03:00        2.895        4.315       -1.373        7.103        9.915        8.693       50.458       98.302       75.568        0.013        0.011        5.196        8.447        2.642      334.042        3.756      866.757
10/19/2013  07:04:00      -24.326       -7.727       -6.722       13.291        9.325        5.453      176.662       86.965       29.734        0.049        0.015       25.523        3.535        0.019      333.982        3.656      866.750
10/19/2013  07:05:00      -53.374      -21.876       -8.813       10.197       10.044        7.345      103.974      100.889       53.952        0.183        0.013       57.683        2.247        0.002      333.606        3.031      866.745
10/19/2013  07:06:00      -59.733      -19.858      -12.412        6.685        8.578        8.122       44.685       73.575       65.968        0.215        0.009       62.947        2.232        0.001      333.494        2.845      866.734
10/19/2013  07:07:00      -75.819      -19.286      -14.987       15.936       10.521        7.977      253.959      110.683       63.639        0.339        0.021       78.233        2.782        0.001      333.466        2.798      866.722
10/19/2013  07:08:00     -116.766      -36.822      -14.250       22.203       13.082       11.551      492.981      171.141      133.426        0.800        0.040      122.434       11.297        0.009      333.483        2.826      866.715
10/19/2013  07:09:00     -105.923      -19.092      -12.446       22.193       17.716       15.169      492.529      313.853      230.107        0.639        0.052      107.630       11.672        0.012      333.440        2.754      866.716
10/19/2013  07:10:00      -89.871      -16.923      -11.153       13.191       14.791       10.432      174.002      218.764      108.821        0.449        0.025       91.450        6.925        0.006      333.436        2.747      866.724
10/19/2013  07:11:00      -91.681      -14.804      -18.105        9.934       10.083        8.342       98.694      101.662       69.582        0.461        0.013       92.868        3.483        0.001      333.538        2.918      866.726
10/19/2013  07:12:00      -94.625       -8.997      -17.473        9.282        8.713        8.351       86.159       75.916       69.737        0.479        0.012       95.052        4.822        0.003      333.596        3.014      866.731
10/19/2013  07:13:00      -68.109       -0.879      -13.020       16.081        9.831        6.130      258.586       96.648       37.578        0.260        0.020       68.114        5.422        0.006      333.831        3.405      866.725
10/19/2013  07:14:00      -39.015      -11.065       -9.934        9.239       10.669        8.905       85.358      113.829       79.303        0.101        0.014       40.553        6.565        0.026      333.706        3.196      866.717
10/19/2013  07:15:00      -39.477      -18.788       -9.592        8.677        7.543        6.917       75.286       56.894       47.847        0.109        0.009       43.720        4.859        0.012      333.812        3.373      866.722
10/19/2013  07:16:00      -42.882      -13.130       -8.606       12.553       10.082        4.896      157.567      101.640       23.975        0.118        0.014       44.847        3.950        0.008      333.748        3.267      866.726
10/19/2013  07:17:00      -37.005       -9.538       -7.842       11.690        8.211        5.548      136.647       67.426       30.779        0.088        0.012       38.215        1.729        0.002      333.821        3.387      866.730
10/19/2013  07:18:00      -12.552       -0.874       -2.095        9.276        4.800        5.229       86.046       23.041       27.346        0.015        0.007       12.583        4.846        0.148      333.956        3.610      866.746
10/19/2013  07:19:00        2.526        6.404        0.006       11.106       10.259        8.084      123.343      105.251       65.349        0.017        0.015        6.884        4.087        0.352      334.048        3.763      866.757
10/19/2013  07:20:00       18.986       21.283        7.425       16.775       16.382       14.327      281.417      268.381      205.271        0.081        0.038       28.521        9.250        0.105      334.077        3.813      866.769
10/19/2013  07:21:00       13.721       41.634        0.424       16.994       18.666       13.637      288.782      348.432      185.957        0.137        0.041       43.836       11.545        0.069      334.077        3.811      866.774
10/19/2013  07:22:00        9.405       37.403       -1.648       14.715       29.405       12.075      216.526      864.659      145.806        0.136        0.061       38.567       14.630        0.144      334.044        3.757      866.775
10/19/2013  07:23:00       15.845       51.625       -5.207        9.540       15.030        8.607       91.021      225.889       74.088        0.167        0.020       54.002        7.106        0.017      334.054        3.776      866.777
10/19/2013  07:24:00       11.912       33.706       -3.464       12.503       16.566        7.566      156.332      274.416       57.242        0.089        0.024       35.750        8.434        0.056      334.044        3.758      866.784
10/19/2013  07:25:00       12.919       11.356       -3.148        8.653       13.030        9.853       74.876      169.773       97.087        0.032        0.017       17.201        8.930        0.270      334.058        3.780      866.786
10/19/2013  07:26:00        2.404       22.246       -2.490        9.886       12.587        7.736       97.731      158.429       59.845        0.041        0.016       22.376        5.695        0.065      334.084        3.822      866.801
10/19/2013  07:27:00       -7.469       31.566       -2.427       13.223       14.871        5.470      174.840      221.161       29.922        0.074        0.021       32.437        4.411        0.018      334.092        3.837      866.819
10/19/2013  07:28:00      -27.569       -4.795       -3.438        8.079        8.974        6.000       65.276       80.532       36.006        0.049        0.009       27.983        4.874        0.030      333.727        3.232      866.836
10/19/2013  07:29:00       -3.306        2.821        1.075       12.340       14.378       10.326      152.278      206.731      106.626        0.024        0.023        4.346        6.386        2.159      333.959        3.616      866.848
10/19/2013  07:30:00       -9.783      -15.365       -2.192        7.729        9.987        8.527       59.737       99.743       72.712        0.028        0.012       18.215        4.321        0.056      333.898        3.515      866.852
10/19/2013  07:31:00      -22.513      -19.619       -2.643       11.393        8.482        5.402      129.797       71.951       29.185        0.056        0.012       29.862        4.523        0.023      333.849        3.435      866.866
10/19/2013  07:32:00      -48.336      -14.021       -7.320        8.855        8.255        6.295       78.406       68.145       39.629        0.139        0.009       50.329        3.391        0.005      333.653        3.108      866.878
10/19/2013  07:33:00      -42.881      -17.764      -10.443        8.680        6.465        6.510       75.347       41.795       42.376        0.121        0.008       46.415        2.710        0.003      333.829        3.400      866.896
10/19/2013  07:34:00      -36.411      -19.188       -4.411        5.974        5.366        4.690       35.686       28.798       21.992        0.090        0.004       41.157        3.254        0.006      333.912        3.539      866.902
10/19/2013  07:35:00      -52.393      -17.147      -11.366       10.921        6.466        5.402      119.261       41.815       29.187        0.168        0.010       55.127        4.322        0.006      333.897        3.517      866.921
10/19/2013  07:36:00      -42.453      -17.288       -6.317        6.113        6.369        6.807       37.370       40.567       46.335        0.113        0.006       45.838        4.032        0.008      333.896        3.513      866.943
10/19/2013  07:37:00      -28.538      -13.300       -0.609        8.083        6.144        6.311       65.329       37.753       39.830        0.057        0.007       31.485        3.415        0.012      334.145        3.926      866.952
10/19/2013  07:38:00       -6.809       -2.311       -3.588       11.420       17.322        8.589      130.427      300.053       73.778        0.028        0.025        7.191        8.272        1.323      334.316        4.210      866.957
10/19/2013  07:39:00      -27.972        5.526       -0.479       13.440        9.255        5.020      180.627       85.656       25.205        0.055        0.015       28.513        4.274        0.022      334.194        4.007      866.947
10/19/2013  07:40:00      -36.316       -9.330        0.990        7.675        7.180        5.152       58.913       51.559       26.543        0.077        0.007       37.495        4.116        0.012      334.028        3.733      866.949
10/19/2013  07:41:00      -25.166      -14.544       -3.633        6.078        4.580        3.034       36.941       20.979        9.208        0.046        0.003       29.066        1.017        0.001      334.025        3.726      866.953
10/19/2013  07:42:00      -30.346       -6.555       -5.353        5.318        4.849        3.921       28.283       23.516       15.376        0.053        0.003       31.046        1.717        0.003      334.073        3.804      866.955
10/19/2013  07:43:00      -19.407       -0.031       -0.758        4.226        5.857        3.116       17.855       34.299        9.708        0.022        0.003       19.407        2.656        0.019      334.161        3.953      866.948
10/19/2013  07:44:00      -23.994       -0.184        0.021        3.561        3.993        3.088       12.680       15.944        9.533        0.031        0.002       23.994        1.952        0.007      334.232        4.070      866.957
10/19/2013  07:45:00      -32.677       -3.279       -5.255        6.603        5.661        5.093       43.604       32.044       25.942        0.060        0.005       32.841        3.594        0.012      334.199        4.012      866.956
10/19/2013  07:46:00      -41.259       -8.501       -6.369        5.602        6.423        4.851       31.386       41.252       23.532        0.096        0.005       42.126        2.844        0.005      334.093        3.840      866.967
10/19/2013  07:47:00      -50.138      -12.698       -7.402        6.492        6.997        5.392       42.151       48.955       29.077        0.143        0.006       51.721        2.737        0.003      334.082        3.819      866.964
10/19/2013  07:48:00      -45.513       -2.412       -9.772       11.335        8.606        7.686      128.478       74.063       59.076        0.122        0.013       45.577        6.417        0.020      334.048        3.765      866.968
10/19/2013  07:49:00      -48.754        1.465       -6.641        9.986        6.244        7.159       99.729       38.986       51.253        0.131        0.009       48.776        4.973        0.010      334.122        3.885      866.980
10/19/2013  07:50:00      -37.481        4.450       -7.204        8.226        6.733        7.335       67.660       45.339       53.797        0.082        0.008       37.745        5.787        0.024      334.195        4.007      866.989
10/19/2013  07:51:00      -23.251        0.064       -2.103        9.375        7.903        4.232       87.898       62.463       17.913        0.036        0.008       23.251        5.591        0.058      334.279        4.147      867.006
10/19/2013  07:52:00      -24.712       -5.144       -4.376       12.913       11.515        7.308      166.737      132.593       53.406        0.050        0.018       25.242        3.538        0.020      334.254        4.107      867.014
10/19/2013  07:53:00       -7.859        1.127       -3.585       10.715        8.088        5.483      114.820       65.423       30.058        0.014        0.011        7.940        3.792        0.228      334.379        4.314      867.019
10/19/2013  07:54:00        3.735        4.557        9.085       10.055        5.445       10.520      101.093       29.651      110.664        0.018        0.012        5.892        3.590        0.371      334.694        4.836      867.019
10/19/2013  07:55:00      -13.725       -4.560        6.900        8.431       10.093        6.688       71.088      101.875       44.734        0.024        0.011       14.462        3.850        0.071      334.522        4.551      867.015
10/19/2013  07:56:00      -17.032       -3.426        9.907       13.239       10.463       10.922      175.267      109.468      119.279        0.040        0.020       17.373        7.578        0.190      334.482        4.483      867.016
10/19/2013  07:57:00      -14.417       -9.138       -1.791        5.763        8.502        4.447       33.206       72.288       19.776        0.021        0.006       17.069        1.452        0.007      334.329        4.232      867.014
10/19/2013  07:58:00      -25.133       -9.726       -7.553        5.477        6.194        5.680       29.994       38.372       32.265        0.044        0.005       26.949        2.544        0.009      334.286        4.160      867.011
10/19/2013  07:59:00      -26.066      -11.379       -8.595       11.058       10.426        7.259      122.287      108.692       52.690        0.058        0.014       28.442        6.566        0.053      334.248        4.094      867.015
10/19/2013  08:00:00      -29.152      -10.483       -3.551        8.865        5.956        4.710       78.596       35.473       22.185        0.055        0.007       30.980        3.671        0.014      334.286        4.159      867.018
10/19/2013  08:01:00      -22.127       -2.123       -8.768        6.724        6.362        7.967       45.212       40.474       63.480        0.036        0.007       22.228        5.350        0.058      334.374        4.306      867.022
10/19/2013  08:02:00      -28.602       -9.566      -13.788       11.561        6.985        6.768      133.664       48.787       45.811        0.066        0.011       30.159        4.246        0.020      334.444        4.421      867.037
10/19/2013  08:03:00      -16.961       -1.397        1.988        9.863        6.686        8.407       97.283       44.705       70.673        0.025        0.011       17.018        2.681        0.025      334.617        4.708      867.051
10/19/2013  08:04:00      -25.287      -10.289       -8.774        5.508        5.183        4.544       30.343       26.860       20.647        0.045        0.004       27.300        2.327        0.007      334.572        4.633      867.065
10/19/2013  08:05:00      -23.715        8.242       -1.365        8.052        5.148        6.579       64.838       26.503       43.287        0.038        0.007       25.106        2.747        0.012      334.536        4.573      867.077
10/19/2013  08:06:00      -15.633        7.021       10.246        8.847        6.421        9.440       78.272       41.232       89.117        0.030        0.010       17.137        6.748        0.155      334.928        5.226      867.083
10/19/2013  08:07:00       16.863       13.573        8.002       15.055       12.098        8.684      226.647      146.370       75.412        0.049        0.022       21.647        8.784        0.165      335.118        5.541      867.094
10/19/2013  08:08:00       40.956       24.658       10.114       15.911       11.086       11.454      253.165      122.904      131.197        0.145        0.025       47.806        5.675        0.014      334.920        5.211      867.109
10/19/2013  08:09:00       51.670       33.859        3.296       11.134       11.455       10.747      123.968      131.216      115.494        0.210        0.019       61.775        5.747        0.009      334.827        5.057      867.116
10/19/2013  08:10:00       61.975       40.687        5.463       11.595       11.533       11.500      134.454      132.999      132.259        0.296        0.020       74.137        4.097        0.003      334.854        5.101      867.125
10/19/2013  08:11:00       40.099       28.349       -0.219       17.920       12.573       10.582      321.128      158.087      111.977        0.150        0.030       49.108        6.706        0.019      334.929        5.226      867.136
10/19/2013  08:12:00       60.648       39.782       -2.021       16.289        9.954       10.274      265.337       99.090      105.555        0.287        0.023       72.531        4.877        0.005      334.855        5.102      867.150
10/19/2013  08:13:00       45.305        4.501       -0.448       11.886       18.074       13.216      141.268      326.667      174.652        0.136        0.032       45.528        8.723        0.037      334.901        5.180      867.165
10/19/2013  08:14:00       39.081       24.641       19.026       23.664       17.360       12.819      559.995      301.385      164.315        0.176        0.051       46.201        5.669        0.015      335.042        5.414      867.174
10/19/2013  08:15:00       41.831       30.002        2.334       12.158       14.284       14.778      147.810      204.040      218.397        0.161        0.029       51.477        9.887        0.037      334.970        5.295      867.196
10/19/2013  08:16:00       28.730       23.733        5.680       17.392       13.804       14.397      302.490      190.544      207.276        0.106        0.035       37.265        6.647        0.032      335.017        5.371      867.214
10/19/2013  08:17:00        8.333       25.979       -9.879       12.319       14.006       12.671      151.759      196.177      160.565        0.068        0.025       27.283        5.607        0.042      335.154        5.600      867.229
10/19/2013  08:18:00        8.291        1.891        1.431        9.673       17.547       13.914       93.566      307.898      193.586        0.033        0.030        8.503       13.139        2.387      335.262        5.779      867.246
10/19/2013  08:19:00       -5.670      -22.586       -3.745       13.659       18.483       12.357      186.582      341.637      152.691        0.062        0.034       23.287        9.803        0.177      335.225        5.717      867.260
10/19/2013  08:20:00      -12.856      -14.570       -1.919       13.242       12.344        9.138      175.359      152.381       83.511        0.040        0.021       19.431        6.815        0.123      335.171        5.627      867.278
10/19/2013  08:21:00      -25.008       -3.651        1.672        8.455        6.857        5.644       71.493       47.014       31.857        0.040        0.008       25.273        5.302        0.044      335.087        5.488      867.298
10/19/2013  08:22:00      -18.028       -4.896       11.754       12.128        9.944        9.580      147.094       98.882       91.775        0.041        0.017       18.681        7.510        0.162      335.362        5.945      867.313
10/19/2013  08:23:00        9.147       18.772       29.357       15.952       19.390       16.500      254.477      375.976      272.245        0.110        0.045       20.882       12.105        0.336      335.706        6.518      867.328
10/19/2013  08:24:00       31.095       42.716       31.906       17.171       12.442       17.518      294.841      154.800      306.888        0.228        0.038       52.835        7.454        0.020      335.212        5.695      867.349
10/19/2013  08:25:00       43.499       39.641       28.445       20.041       14.564       20.199      401.638      212.108      408.008        0.265        0.051       58.852       10.782        0.034      335.323        5.880      867.361
10/19/2013  08:26:00       56.195       44.408       32.411       17.919       18.440       18.447      321.103      340.038      340.304        0.359        0.050       71.624       14.387        0.040      335.268        5.788      867.361
10/19/2013  08:27:00       26.266       31.101       27.564       30.448       14.672       22.983      927.060      215.274      528.199        0.204        0.084       40.708       22.779        0.313      335.433        6.064      867.362
10/19/2013  08:28:00        1.408       30.042       44.213       11.354       20.984       12.194      128.903      440.312      148.686        0.179        0.036       30.075        9.287        0.095      335.613        6.364      867.363
10/19/2013  08:29:00       25.576       42.459       42.431       37.695       28.643       21.424     1420.909      820.407      458.989        0.348        0.135       49.567       20.037        0.163      335.664        6.449      867.365
10/19/2013  08:30:00       49.378       53.519       38.177       17.341       18.972       16.702      300.711      359.947      278.958        0.385        0.047       72.818       13.197        0.033      335.441        6.076      867.373
10/19/2013  08:31:00       17.045       25.975       29.007       30.999       37.836       15.566      960.934     1431.582      242.314        0.222        0.132       31.068        8.760        0.080      335.709        6.524      867.387
10/19/2013  08:32:00       22.674       22.061       34.306       39.276       23.270       25.596     1542.590      541.511      655.140        0.246        0.137       31.636       29.661        0.879      335.825        6.716      867.405
10/19/2013  08:33:00       42.723       31.592       29.171       29.514       30.613       24.074      871.094      937.168      579.544        0.303        0.119       53.134       18.929        0.127      335.686        6.487      867.422
10/19/2013  08:34:00        0.559       32.518       30.885       15.545       21.607       19.535      241.645      466.884      381.605        0.155        0.055       32.523       12.860        0.156      336.066        7.119      867.436
10/19/2013  08:35:00       -0.765        3.869       17.496       14.521       20.457       20.278      210.872      418.507      411.216        0.068        0.052        3.944       14.105       12.790      336.126        7.219      867.447
10/19/2013  08:36:00        7.235       18.393       29.058       30.418       16.033       18.744      925.267      257.047      351.325        0.138        0.077       19.765       18.252        0.853      336.173        7.297      867.458
10/19/2013  08:37:00       39.693       28.616        9.879       22.704       16.195       15.275      515.455      262.279      233.320        0.175        0.051       48.933        5.059        0.011      335.906        6.853      867.457
10/19/2013  08:38:00       -6.152        3.965        7.771       13.212       18.911       11.686      174.550      357.641      136.557        0.039        0.033        7.319        8.746        1.428      336.033        7.063      867.449
10/19/2013  08:39:00       12.803       12.723       28.663       25.749       18.096       25.237      663.001      327.450      636.883        0.139        0.081       18.050       19.407        1.156      336.109        7.190      867.438
10/19/2013  08:40:00       36.046        6.644        7.787       19.336       16.644       16.461      373.890      277.032      270.967        0.116        0.046       36.653        8.747        0.057      335.885        6.817      867.431
10/19/2013  08:41:00       27.686        6.937       23.172       27.814       26.059       21.030      773.641      679.085      442.271        0.162        0.095       28.542        8.298        0.085      336.115        7.200      867.435
10/19/2013  08:42:00       28.669      -13.772      -12.787       14.794       26.735       13.177      218.874      714.749      173.645        0.114        0.055       31.805       11.319        0.127      335.834        6.732      867.443
10/19/2013  08:43:00        3.367       13.021       11.459       16.051       20.558       14.677      257.625      422.634      215.420        0.060        0.045       13.450       13.848        1.060      336.416        7.703      867.454
10/19/2013  08:44:00        0.362       37.699        5.771       14.884       31.649       13.990      221.521     1001.652      195.709        0.144        0.071       37.701       16.949        0.202      336.311        7.528      867.470
10/19/2013  08:45:00        6.437       45.596       -1.677       18.220       28.207       19.214      331.978      795.621      369.194        0.181        0.075       46.049       18.293        0.158      336.200        7.341      867.475
10/19/2013  08:46:00       -6.600       23.930       13.656       16.408       18.372       18.071      269.227      337.522      326.544        0.087        0.047       24.824       13.751        0.307      336.271        7.462      867.479
10/19/2013  08:47:00        6.508       16.482        9.664       15.456       26.587       20.555      238.900      706.864      422.498        0.089        0.068       17.720       17.529        0.979      336.455        7.768      867.469
10/19/2013  08:48:00       -4.595       10.943       24.905       16.214       17.442       16.255      262.882      304.211      264.214        0.080        0.042       11.868       13.255        1.247      336.490        7.826      867.462
10/19/2013  08:49:00      -12.873        5.047       29.053       16.415       13.157        9.704      269.453      173.096       94.165        0.079        0.027       13.827        8.477        0.376      336.535        7.902      867.451
10/19/2013  08:50:00       -9.142       17.047       10.976       15.331       21.595       13.285      235.047      466.339      176.503        0.069        0.044       19.343       11.511        0.354      336.512        7.863      867.437
10/19/2013  08:51:00      -22.659        8.603       -1.065       15.968       18.787       11.877      254.978      352.966      141.054        0.067        0.037       24.237       10.871        0.201      336.244        7.415      867.427
10/19/2013  08:52:00      -41.416       11.839       -3.600        9.741       14.580       12.047       94.880      212.565      145.141        0.116        0.023       43.075        7.139        0.027      336.070        7.126      867.426
10/19/2013  08:53:00      -30.369       10.156        0.670        7.987        6.951        6.977       63.786       48.317       48.673        0.059        0.008       32.022        4.722        0.022      335.972        6.962      867.421
10/19/2013  08:54:00      -22.606       -2.272       -0.166        4.807        4.518        4.549       23.105       20.415       20.691        0.029        0.003       22.720        1.858        0.007      335.994        6.996      867.417
10/19/2013  08:55:00       -8.815        5.879        9.890       11.392        8.557       12.198      129.779       73.217      148.791        0.028        0.018       10.596        8.457        0.637      336.522        7.881      867.415
10/19/2013  08:56:00       26.436       32.828        6.797       18.878       14.836       17.361      356.384      220.108      301.420        0.135        0.044       42.149        8.056        0.037      336.315        7.533      867.414
10/19/2013  08:57:00       31.433       28.372       13.111       22.240       29.191       25.225      494.617      852.088      636.297        0.197        0.099       42.343       23.673        0.313      336.583        7.982      867.417
10/19/2013  08:58:00       20.251       16.209        7.005       17.528       17.354       29.200      307.216      301.172      852.613        0.109        0.073       25.939       14.505        0.313      336.707        8.189      867.415
10/19/2013  08:59:00       10.781       10.150       17.311       17.254       20.207       20.223      297.697      408.303      408.968        0.082        0.056       14.807       12.487        0.711      336.883        8.482      867.424
10/19/2013  09:00:00       17.831        8.666       18.656       16.643       15.608       20.354      277.002      243.601      414.288        0.084        0.047       19.826       14.756        0.554      336.963        8.618      867.427
10/19/2013  09:01:00       18.200        6.095       24.908       20.418       18.672       17.345      416.913      348.656      300.841        0.103        0.053       19.193        6.189        0.104      336.970        8.631      867.423
10/19/2013  09:02:00       41.823       15.512       19.828       21.571       20.939       19.141      465.298      438.459      366.381        0.183        0.064       44.606       14.614        0.107      336.934        8.569      867.415
10/19/2013  09:03:00       23.457      -16.820       13.778       20.080       34.734       16.824      403.222     1206.439      283.054        0.146        0.095       28.864       11.362        0.155      336.925        8.554      867.409
10/19/2013  09:04:00       30.759       11.015        5.824       21.858       27.816       20.945      477.754      773.754      438.706        0.140        0.085       32.671       13.093        0.161      336.849        8.429      867.405
10/19/2013  09:05:00       46.563        2.117       10.735       26.417       27.879       22.384      697.843      777.216      501.066        0.213        0.099       46.611       12.622        0.073      336.825        8.387      867.402
10/19/2013  09:06:00       28.632       24.801       11.781       24.230       17.083       27.525      587.098      291.841      757.649        0.160        0.082       37.880       13.945        0.136      336.884        8.486      867.397
10/19/2013  09:07:00       10.745       27.481       26.644       28.602       26.328       38.714      818.098      693.145     1498.775        0.229        0.151       29.507       28.363        0.924      337.080        8.813      867.408
10/19/2013  09:08:00       69.707       41.398       10.770       25.823       15.959       19.636      666.829      254.681      385.557        0.400        0.065       81.074        8.720        0.012      336.528        7.891      867.408
10/19/2013  09:09:00       64.979       58.103       41.768       26.750       14.230       27.522      715.553      202.492      757.440        0.551        0.084       87.168       11.952        0.019      336.603        8.016      867.400
10/19/2013  09:10:00       56.782       46.960        6.493       19.764       14.996       16.833      390.616      224.882      283.365        0.319        0.045       73.685       13.852        0.035      336.468        7.792      867.396
10/19/2013  09:11:00        2.487       21.464       15.906       14.753       21.855       26.186      217.651      477.657      685.687        0.105        0.069       21.608       15.208        0.495      337.082        8.817      867.388
10/19/2013  09:12:00       14.150       13.659       36.314       28.515       29.598       25.154      813.105      876.035      632.729        0.201        0.116       19.667       24.883        1.601      337.261        9.116      867.385
10/19/2013  09:13:00       -4.544        7.648       22.183       15.589       16.743       17.213      243.028      280.341      296.289        0.070        0.041        8.896       11.549        1.685      337.487        9.493      867.379
10/19/2013  09:14:00      -27.517      -11.537        0.155       17.273       16.913       22.542      298.372      286.062      508.163        0.099        0.055       29.838       16.785        0.316      337.072        8.801      867.390
10/19/2013  09:15:00      -11.313      -17.850        2.648       26.918       25.384       16.165      724.561      644.341      261.314        0.104        0.082       21.133       12.251        0.336      336.882        8.481      867.402
10/19/2013  09:16:00        7.982        9.877       29.528       26.013       24.998       20.847      676.652      624.915      434.578        0.138        0.087       12.699       10.891        0.735      337.527        9.561      867.411
10/19/2013  09:17:00       -0.565       -3.722       25.119       14.632       19.897       21.138      214.106      395.906      446.809        0.085        0.053        3.764       11.324        9.050      337.403        9.354      867.420
10/19/2013  09:18:00       -3.554       -9.227       10.577        9.612       12.066       12.977       92.398      145.595      168.401        0.031        0.020        9.888        9.798        0.982      337.459        9.447      867.428
10/19/2013  09:19:00       -5.493      -17.561       -3.091        8.476        6.475        9.272       71.842       41.925       85.973        0.027        0.010       18.400        4.263        0.054      337.044        8.752      867.432
10/19/2013  09:20:00      -17.205       -0.882        2.546       10.295        8.880        9.811      105.997       78.855       96.254        0.029        0.014       17.227        6.667        0.150      337.229        9.062      867.429
10/19/2013  09:21:00       27.337       34.670       24.024       30.012       22.113       33.718      900.708      488.999     1136.876        0.253        0.126       44.151       21.847        0.245      337.523        9.555      867.424
10/19/2013  09:22:00       27.090       47.547       56.796       36.182       33.976       21.104     1309.141     1154.340      445.379        0.456        0.145       54.723       19.818        0.131      337.421        9.384      867.430
10/19/2013  09:23:00       -0.705       18.927       46.841       23.621       20.947       22.437      557.953      438.758      503.399        0.203        0.075       18.940       16.326        0.743      337.711        9.870      867.430
10/19/2013  09:24:00       21.062       50.997       44.706       21.750       16.876       22.277      473.080      284.786      496.281        0.315        0.063       55.175       11.291        0.042      337.147        8.926      867.431
10/19/2013  09:25:00        6.600       42.874       70.122       27.103       26.937       15.843      734.564      725.596      250.991        0.425        0.086       43.379       15.494        0.128      337.417        9.377      867.424
10/19/2013  09:26:00        5.687       35.907       35.702       19.562       26.860       27.038      382.685      721.438      731.070        0.222        0.092       36.354       10.959        0.091      337.531        9.567      867.423
10/19/2013  09:27:00       19.095       30.290       45.023       27.102       19.242       19.809      734.495      370.239      392.415        0.240        0.075       35.806       15.922        0.198      337.518        9.547      867.416
10/19/2013  09:28:00        7.189       16.971       24.674       23.963       21.156       16.132      574.234      447.568      260.257        0.112        0.064       18.431        8.006        0.189      337.860       10.119      867.423
10/19/2013  09:29:00       33.115       40.425       35.097       36.236       32.291       42.319     1313.072     1042.701     1790.875        0.405        0.207       52.256       30.306        0.336      337.604        9.691      867.423
10/19/2013  09:30:00        6.279       39.914       52.078       28.100       31.148       23.947      789.632      970.213      573.447        0.334        0.117       40.405       19.696        0.238      337.705        9.858      867.429
10/19/2013  09:31:00        3.238      -31.384       31.747       20.759       29.183       23.244      430.925      851.642      540.278        0.191        0.091       31.551       14.167        0.202      337.915       10.212      867.423
10/19/2013  09:32:00       -9.628      -49.485       18.837       22.058       35.042       20.713      486.549     1227.947      429.045        0.252        0.107       50.413       16.276        0.104      337.766        9.961      867.422
10/19/2013  09:33:00       15.990      -24.848       29.240       30.592       71.557       31.825      935.881     5120.432     1012.846        0.440        0.353       29.548       39.880        1.822      337.870       10.137      867.411
10/19/2013  09:34:00       17.633       39.778       44.467       26.138       23.957       17.764      683.183      573.935      315.561        0.272        0.079       43.511       15.572        0.128      337.679        9.815      867.408
10/19/2013  09:35:00       -6.251        4.219       33.315       11.949       18.227       22.170      142.779      332.217      491.525        0.107        0.048        7.541       17.358        5.298      338.120       10.556      867.405
10/19/2013  09:36:00      -10.690       -1.882       31.229       15.881       25.854       26.855      252.191      668.410      721.189        0.137        0.082       10.855       24.165        4.956      337.943       10.259      867.411
10/19/2013  09:37:00       -2.858       19.589       54.217       11.671       20.638       12.528      136.218      425.931      156.960        0.203        0.036       19.796       12.124        0.375      337.861       10.121      867.404
10/19/2013  09:38:00      -11.610      -19.704       15.661       14.389       22.586       12.024      207.044      510.142      144.586        0.081        0.043       22.870       10.655        0.217      337.766        9.963      867.413
10/19/2013  09:39:00      -37.612      -39.520        5.244       27.687       26.530       14.217      766.571      703.841      202.116        0.234        0.084       54.558       15.554        0.081      337.453        9.436      867.401
10/19/2013  09:40:00      -31.613      -27.762       17.308       28.186       26.173       19.030      794.453      685.009      362.152        0.196        0.092       42.073       19.643        0.218      337.919       10.218      867.398
10/19/2013  09:41:00       -5.276      -18.696       -3.151       31.640       17.839       20.622     1001.081      318.243      425.285        0.107        0.087       19.426       16.406        0.713      337.735        9.909      867.390
10/19/2013  09:42:00       -9.971      -12.581       22.264       19.867       23.738       13.793      394.708      563.502      190.251        0.095        0.057       16.053       17.948        1.250      338.355       10.950      867.388
10/19/2013  09:43:00      -10.137      -17.004        0.364       15.837       11.894       10.576      250.803      141.456      111.859        0.045        0.025       19.796        8.105        0.168      337.675        9.808      867.397
10/19/2013  09:44:00      -13.109       -9.556        3.912       23.606       25.328       27.639      557.227      641.514      763.899        0.112        0.098       16.223       27.469        2.867      337.895       10.178      867.386
10/19/2013  09:45:00       -6.964        4.009       31.704       25.305       30.072       30.731      640.355      904.328      944.387        0.178        0.124        8.036       27.853       12.014      338.021       10.391      867.386
10/19/2013  09:46:00      -28.325      -13.821        7.266       18.510       24.539       13.905      342.606      602.167      193.352        0.109        0.057       31.517        7.370        0.055      337.863       10.125      867.389
10/19/2013  09:47:00      -22.264        2.815        6.847       14.189       15.348       10.752      201.334      235.563      115.597        0.055        0.028       22.441        9.067        0.163      337.938       10.251      867.393
10/19/2013  09:48:00        7.939      -38.639        6.993       31.878       46.530       25.913     1016.205     2165.063      671.507        0.273        0.193       39.446       20.602        0.273      338.174       10.647      867.381
10/19/2013  09:49:00        1.882      -59.402       20.605       33.699       28.416       21.801     1135.648      807.470      475.271        0.319        0.121       59.432       17.957        0.091      338.093       10.510      867.380
10/19/2013  09:50:00       20.321       25.805       58.819       35.882       37.059       36.877     1287.553     1373.362     1359.883        0.428        0.201       32.846       38.776        1.394      338.201       10.691      867.383
10/19/2013  09:51:00       39.003       14.052       37.234       24.710       46.346       28.169      610.578     2147.916      793.515        0.333        0.178       41.457       28.018        0.457      338.052       10.441      867.373
10/19/2013  09:52:00       68.888       62.994       21.356       23.340       27.047       30.650      544.756      731.515      939.420        0.569        0.111       93.348       24.125        0.067      337.598        9.681      867.365
10/19/2013  09:53:00       17.093       10.861       -4.871       19.158       20.840       17.024      367.037      434.316      289.803        0.076        0.055       20.252       15.533        0.588      337.791       10.004      867.369
10/19/2013  09:54:00       14.863       31.187       28.171       29.925       34.538       31.662      895.504     1192.863     1002.452        0.254        0.155       34.548       27.499        0.634      338.369       10.974      867.369
10/19/2013  09:55:00       30.574       58.299       62.342       36.922       30.733       20.956     1363.229      944.487      439.169        0.548        0.137       65.830       15.459        0.055      338.317       10.886      867.376
10/19/2013  09:56:00       44.293       41.608        7.432       27.321       26.242       27.148      746.429      688.626      737.026        0.296        0.109       60.771       13.262        0.048      337.975       10.312      867.381
10/19/2013  09:57:00       40.460      -70.921        6.120       23.974       40.362       26.389      574.734     1629.130      696.382        0.480        0.145       81.650       15.724        0.037      338.216       10.716      867.382
10/19/2013  09:58:00       30.914      -54.209       14.164       30.618       65.884       27.529      937.432     4340.753      757.864        0.506        0.302       62.404       36.087        0.334      338.318       10.890      867.374
10/19/2013  09:59:00       16.013       45.369       34.737       44.989       30.769       27.707     2024.052      946.759      767.655        0.363        0.187       48.112       28.725        0.356      338.632       11.417      867.374
10/19/2013  10:00:00       55.927       31.549       48.564       35.067       56.495       26.401     1229.728     3191.696      697.028        0.580        0.256       64.212       24.292        0.143      338.450       11.109      867.365
10/19/2013  10:01:00       35.427       51.374       46.381       45.247       47.270       33.953     2047.295     2234.447     1152.806        0.574        0.272       62.405       22.794        0.133      338.646       11.439      867.346
10/19/2013  10:02:00      -12.825        7.597       35.450       21.049       31.869       20.049      443.077     1015.648      401.943        0.167        0.093       14.907       19.377        1.690      338.943       11.939      867.331
10/19/2013  10:03:00        1.228       14.936       50.022       34.297       26.801       25.410     1176.260      718.295      645.669        0.263        0.127       14.986       17.331        1.337      339.296       12.533      867.319
10/19/2013  10:04:00       53.247       50.153       -1.968       53.316       40.213       48.142     2842.635     1617.093     2317.690        0.606        0.339       73.148       41.222        0.318      338.031       10.406      867.304
10/19/2013  10:05:00      -34.142       12.202       27.527       38.607       34.259       32.735     1490.478     1173.693     1071.600        0.290        0.187       36.257       32.331        0.795      338.346       10.936      867.285
10/19/2013  10:06:00       37.781       52.175       77.887       46.482       45.338       42.566     2160.621     2055.556     1811.828        0.812        0.301       64.418       39.610        0.378      338.529       11.244      867.269
10/19/2013  10:07:00       40.381       74.767       77.834       40.824       36.731       26.030     1666.577     1349.160      677.557        0.849        0.185       84.975       22.617        0.071      338.460       11.124      867.266
10/19/2013  10:08:00       93.982       60.606       15.760       33.907       32.584       34.062     1149.652     1061.731     1160.200        0.806        0.169      111.829       16.767        0.022      338.450       11.109      867.257
10/19/2013  10:09:00       82.240       62.252       17.181       21.928       20.767       25.552      480.854      431.284      652.888        0.625        0.078      103.144       11.513        0.012      338.127       10.567      867.246
10/19/2013  10:10:00      108.274       76.053       11.307       33.169       30.410       29.841     1100.152      924.798      890.467        1.027        0.146      132.316       10.797        0.007      338.182       10.659      867.237
10/19/2013  10:11:00      123.206       86.039       16.454       38.731       25.304       26.086     1500.087      640.282      680.468        1.284        0.141      150.274       20.215        0.018      338.071       10.473      867.224
10/19/2013  10:12:00       73.268       51.808       24.012       42.971       23.765       29.608     1846.535      564.784      876.633        0.596        0.164       89.734       14.263        0.025      338.292       10.845      867.221
10/19/2013  10:13:00       95.806       56.533       -4.168       30.894       27.501       25.203      954.414      756.322      635.176        0.737        0.117      111.242       12.512        0.013      338.217       10.719      867.224
10/19/2013  10:14:00       82.556       73.970       34.889       48.061       35.713       38.841     2309.822     1275.447     1508.634        0.930        0.255      110.847       35.086        0.100      338.523       11.232      867.224
10/19/2013  10:15:00       72.682       43.927       57.586       36.013       45.779       31.350     1296.935     2095.706      982.839        0.745        0.219       84.926       29.607        0.122      338.470       11.143      867.219
10/19/2013  10:16:00       69.163       52.023       67.649       43.955       65.665       44.768     1932.081     4311.869     2004.141        1.016        0.412       86.544       48.746        0.317      338.493       11.183      867.209
10/19/2013  10:17:00       59.366       33.981       77.219       50.210       54.077       38.995     2521.010     2924.352     1520.649        0.880        0.348       68.403       35.728        0.273      338.601       11.364      867.202
10/19/2013  10:18:00       84.861       28.444       36.312       39.674       28.960       44.072     1574.000      838.706     1942.379        0.684        0.218       89.501       23.503        0.069      338.453       11.115      867.207
10/19/2013  10:19:00       75.939       -7.937       15.679       34.291       26.179       30.973     1175.855      685.362      959.353        0.445        0.141       76.353       14.478        0.036      338.465       11.135      867.197
10/19/2013  10:20:00       23.065        7.445       14.689       45.692       33.517       35.354     2087.769     1123.405     1249.926        0.263        0.223       24.237       24.820        1.049      338.636       11.421      867.187
10/19/2013  10:21:00       65.388       44.392       12.603       53.164       40.268       26.187     2826.444     1621.476      685.748        0.577        0.257       79.034        9.852        0.016      338.838       11.762      867.178
10/19/2013  10:22:00       71.174       46.179       10.141       39.711       33.163       34.876     1576.931     1099.814     1216.353        0.560        0.195       84.843       14.155        0.028      338.890       11.849      867.163
10/19/2013  10:23:00       -6.512       40.519       10.891       23.571       43.303       22.548      555.596     1875.186      508.430        0.237        0.147       41.039       18.149        0.196      339.477       12.838      867.165
10/19/2013  10:24:00       11.047        2.358       49.701       30.098       53.329       25.721      905.866     2843.956      661.588        0.350        0.221       11.296       26.623        5.555      339.302       12.543      867.154
10/19/2013  10:25:00       49.466       18.023       26.658       60.833       36.459       42.300     3700.685     1329.278     1789.307        0.515        0.341       52.647       40.627        0.596      339.361       12.642      867.142
10/19/2013  10:26:00       84.841       70.587       67.658       48.984       46.247       48.545     2399.469     2138.767     2356.631        1.183        0.345      110.366       29.108        0.070      339.001       12.035      867.126
10/19/2013  10:27:00      124.532      103.735       49.905       42.141       43.489       49.559     1775.866     1891.290     2456.110        1.744        0.306      162.077       25.171        0.024      338.574       11.318      867.120
10/19/2013  10:28:00       69.344       37.685       23.358       50.043       46.499       32.834     2504.293     2162.123     1078.084        0.626        0.287       78.922       22.168        0.079      338.875       11.823      867.108
10/19/2013  10:29:00      119.159       67.539       24.299       39.709       32.132       31.873     1576.777     1032.444     1015.901        1.149        0.181      136.969       19.408        0.020      338.742       11.600      867.092
10/19/2013  10:30:00      109.900       82.903        1.967       38.005       31.712       27.808     1444.386     1005.672      773.298        1.109        0.161      137.662       11.535        0.007      338.724       11.569      867.087
10/19/2013  10:31:00       77.665       76.290        2.987       38.950       35.663       30.185     1517.070     1271.827      911.112        0.778        0.185      108.867       18.691        0.029      338.832       11.752      867.075
10/19/2013  10:32:00       74.212       72.624       23.569       45.518       29.764       31.991     2071.863      885.869     1023.420        0.766        0.199      103.835       29.324        0.080      339.179       12.336      867.068
10/19/2013  10:33:00      127.375       87.279       26.507       67.265       49.720       39.327     4524.637     2472.075     1546.603        1.654        0.427      154.409       39.441        0.065      338.901       11.868      867.059
10/19/2013  10:34:00      134.085       97.470       18.684       41.652       34.410       38.601     1734.894     1184.044     1490.046        1.612        0.220      165.768       12.024        0.005      338.721       11.565      867.051
10/19/2013  10:35:00       96.270       97.687       -0.050       44.851       32.652       25.190     2011.620     1066.168      634.551        1.126        0.186      137.152       21.091        0.024      338.862       11.802      867.049
10/19/2013  10:36:00       67.818       64.996       53.583       60.210       33.810       34.684     3625.285     1143.093     1202.990        0.883        0.299       93.935       34.681        0.136      339.267       12.484      867.029
10/19/2013  10:37:00       26.156       67.269      107.201       44.771       55.991       40.308     2004.461     3135.013     1624.771        1.173        0.338       72.175       41.898        0.337      339.217       12.398      867.019
10/19/2013  10:38:00       58.997       48.320       39.596       39.339       32.946       37.483     1547.533     1085.414     1404.952        0.571        0.202       76.259       22.127        0.084      338.922       11.901      867.023
10/19/2013  10:39:00       51.534       35.317       13.943       48.248       33.617       25.252     2327.906     1130.090      637.652        0.410        0.205       62.474       17.695        0.080      339.280       12.506      866.998
10/19/2013  10:40:00       89.506       59.083       18.738       63.120       37.167       43.167     3984.078     1381.409     1863.391        0.954        0.361      107.248       30.344        0.080      339.188       12.352      866.993
10/19/2013  10:41:00       62.508       41.416        9.838       35.340       30.295       35.025     1248.883      917.816     1226.737        0.456        0.170       74.983       14.018        0.035      339.588       13.025      866.977
10/19/2013  10:42:00       19.700       37.914       -0.361       35.714       32.822       23.762     1275.466     1077.259      564.656        0.237        0.146       42.727       16.529        0.150      339.345       12.615      866.971
10/19/2013  10:43:00      -14.532       -4.114       34.240       25.694       34.633       29.746      660.191     1199.465      884.829        0.207        0.137       15.104       11.430        0.573      339.799       13.379      866.944
10/19/2013  10:44:00       27.744       55.811       74.710       41.553       38.083       35.714     1726.650     1450.308     1275.516        0.696        0.223       62.326       19.963        0.103      339.619       13.076      866.947
10/19/2013  10:45:00       84.473       55.053       40.697       34.760       25.166       42.110     1208.288      633.342     1773.293        0.772        0.181      100.829       18.773        0.035      339.202       12.374      866.931
10/19/2013  10:46:00       14.231       63.808       11.214       33.077       37.420       33.207     1094.100     1400.224     1102.729        0.400        0.180       65.375       30.723        0.221      339.617       13.073      866.914
10/19/2013  10:47:00       62.275       75.885        3.726       55.018       27.420       30.795     3026.999      751.871      948.353        0.719        0.236       98.167       19.882        0.041      339.175       12.327      866.908
10/19/2013  10:48:00       47.025       52.865        0.196       24.050       27.341       31.496      578.416      747.533      992.027        0.366        0.116       70.754       14.599        0.043      339.205       12.379      866.914
10/19/2013  10:49:00       65.734       66.201       -0.514       28.197       37.116       39.555      795.074     1377.593     1564.601        0.622        0.187       93.292       30.430        0.106      339.309       12.556      866.906
10/19/2013  10:50:00       60.328       64.779      -11.658       30.511       26.420       33.372      930.917      697.992     1113.666        0.536        0.137       88.520       15.741        0.032      339.273       12.494      866.896
10/19/2013  10:51:00       60.343       34.610       10.588       45.011       33.506       31.201     2025.946     1122.639      973.474        0.454        0.206       69.564       15.185        0.048      339.424       12.748      866.892
10/19/2013  10:52:00      119.407       64.473       23.063       60.261       51.519       32.967     3631.359     2654.246     1086.842        1.316        0.369      135.701       23.916        0.031      339.387       12.686      866.877
10/19/2013  10:53:00       48.162       62.076       28.491       47.523       34.046       39.411     2258.404     1159.156     1553.262        0.598        0.249       78.568       33.874        0.186      339.698       13.210      866.873
10/19/2013  10:54:00       30.949        6.775       40.297       47.602       47.938       38.962     2265.992     2298.085     1518.043        0.435        0.304       31.682       35.465        1.253      340.075       13.844      866.870
10/19/2013  10:55:00       63.347       63.426       39.233       59.010       49.259       39.766     3482.145     2426.434     1581.355        0.853        0.374       89.642       34.373        0.147      339.704       13.221      866.867
10/19/2013  10:56:00       80.126       59.270       17.444       24.639       23.625       30.019      607.087      558.134      901.150        0.615        0.103       99.665       17.884        0.032      339.529       12.925      866.870
10/19/2013  10:57:00       84.144       77.229       32.642       36.472       33.925       25.394     1330.218     1150.898      644.849        0.862        0.156      114.212        4.776        0.002      339.472       12.829      866.861
10/19/2013  10:58:00       29.941       34.766       67.250       34.221       44.621       36.681     1171.088     1991.010     1345.469        0.557        0.225       45.882       28.679        0.391      340.165       13.998      866.868
10/19/2013  10:59:00       -5.812       88.271      108.477       35.156       48.299       30.602     1235.946     2332.805      936.511        1.205        0.225       88.463       27.131        0.094      339.871       13.501      866.856
10/19/2013  11:00:00       10.907       23.168       54.034       39.283       44.301       31.654     1543.192     1962.614     1001.952        0.404        0.225       25.607       28.725        1.258      340.010       13.737      866.857
10/19/2013  11:01:00       18.869      -15.127       24.208       25.626       55.128       26.622      656.681     3039.094      708.739        0.279        0.220       24.184       30.270        1.567      339.742       13.284      866.839
10/19/2013  11:02:00       36.036       35.710       24.485       33.222       22.903       21.154     1103.676      524.541      447.472        0.262        0.104       50.733       16.891        0.111      339.987       13.699      866.828
10/19/2013  11:03:00       30.001       41.101        3.012       25.749       45.686       24.282      662.986     2087.193      589.632        0.297        0.167       50.886       18.287        0.129      339.889       13.533      866.816
10/19/2013  11:04:00       33.544       38.369       25.438       37.600       34.521       32.516     1413.752     1191.703     1057.274        0.345        0.183       50.965       19.711        0.150      340.163       13.995      866.806
10/19/2013  11:05:00       25.482       54.000       68.697       49.590       64.176       34.855     2459.204     4118.512     1214.887        0.804        0.390       59.711       35.100        0.346      340.191       14.043      866.792
10/19/2013  11:06:00       29.130      -23.120       27.604       51.174      103.129       51.160     2618.816    10635.588     2617.385        0.901        0.794       37.190       58.985        2.516      340.098       13.884      866.785
10/19/2013  11:07:00       43.052      -49.559      -10.333       52.761       42.397       29.778     2783.702     1797.492      886.744        0.494        0.273       65.648       33.843        0.266      340.031       13.772      866.783
10/19/2013  11:08:00        6.613      -67.325       28.524       38.712       73.741       38.794     1498.655     5437.737     1504.952        0.691        0.422       67.649       41.971        0.385      340.375       14.353      866.781
10/19/2013  11:09:00       18.504      -17.709       35.805       32.251       63.143       37.214     1040.150     3986.988     1384.880        0.417        0.321       25.612        8.704        0.115      340.196       14.049      866.784
10/19/2013  11:10:00       79.556       45.549       15.897       53.336       36.894       39.922     2844.687     1361.176     1593.755        0.723        0.290       91.673       31.608        0.119      340.213       14.080      866.780
10/19/2013  11:11:00      103.599       88.461        4.439       37.289       31.741       34.670     1390.465     1007.506     1202.018        1.109        0.180      136.228       16.979        0.016      339.688       13.191      866.779
10/19/2013  11:12:00       95.719       61.597       12.650       46.752       31.393       35.559     2185.733      985.514     1264.451        0.878        0.222      113.826       23.856        0.044      339.854       13.472      866.769
10/19/2013  11:13:00       38.335       64.069       12.589       39.569       29.171       36.385     1565.716      850.959     1323.894        0.474        0.187       74.662       14.428        0.037      340.310       14.242      866.771
10/19/2013  11:14:00       41.308       60.252       55.679       46.814       38.891       37.722     2191.573     1512.519     1422.967        0.678        0.256       73.053       33.966        0.216      340.193       14.044      866.759
10/19/2013  11:15:00       54.915       43.998       21.576       62.772       35.288       40.230     3940.263     1245.252     1618.476        0.611        0.340       70.367       38.498        0.299      340.335       14.285      866.767
10/19/2013  11:16:00       51.980       36.781        7.290       50.280       32.257       32.519     2528.084     1040.483     1057.500        0.437        0.231       63.677       24.746        0.151      340.334       14.284      866.756
10/19/2013  11:17:00       16.757       60.186       11.693       29.476       41.884       27.004      868.813     1754.265      729.233        0.370        0.168       62.475       25.944        0.172      340.428       14.441      866.764
10/19/2013  11:18:00       72.806       43.589        8.647       38.697       27.286       29.113     1497.433      744.538      847.555        0.518        0.154       84.857       13.666        0.026      340.032       13.773      866.758
10/19/2013  11:19:00       32.848       25.231       15.880       38.780       36.268       41.213     1503.874     1315.403     1698.533        0.324        0.226       41.420       29.738        0.515      340.439       14.461      866.760
10/19/2013  11:20:00        5.354       51.828       82.925       46.235       55.773       38.776     2137.639     3110.591     1503.540        0.817        0.338       52.104       38.369        0.542      340.424       14.436      866.735
10/19/2013  11:21:00       62.420       42.448       33.128       59.353       46.126       48.790     3522.753     2127.609     2380.476        0.741        0.402       75.485       41.662        0.305      340.235       14.116      866.734
10/19/2013  11:22:00       84.573       73.112       20.327       47.080       34.056       42.509     2216.559     1159.785     1807.056        0.905        0.259      111.794       23.338        0.044      340.115       13.914      866.726
10/19/2013  11:23:00      116.635       75.024        7.916       39.950       29.339       29.677     1595.977      860.774      880.737        1.132        0.167      138.681       13.194        0.009      340.028       13.766      866.724
10/19/2013  11:24:00       93.556       88.786       16.428       46.979       32.988       44.153     2207.071     1088.227     1949.482        1.107        0.262      128.979       24.945        0.037      340.146       13.966      866.723
10/19/2013  11:25:00       14.909       34.823        6.097       19.964       35.913       27.559      398.552     1289.778      759.505        0.196        0.122       37.880       22.545        0.354      340.428       14.441      866.718
10/19/2013  11:26:00       -0.354       45.150       70.006       35.552       47.853       32.230     1263.951     2289.876     1038.756        0.577        0.230       45.151       32.181        0.508      340.798       15.067      866.718
10/19/2013  11:27:00       40.405       74.585      103.242       69.986       74.859       61.336     4898.102     5603.884     3762.107        1.606        0.713       84.826       59.346        0.489      340.403       14.397      866.691
10/19/2013  11:28:00      137.597      110.349       39.779       50.373       38.416       37.684     2537.411     1475.753     1420.063        1.906        0.272      176.380       26.020        0.022      340.074       13.843      866.688
10/19/2013  11:29:00        5.289        1.289       42.030       29.937       69.109       40.286      896.197     4776.006     1622.974        0.454        0.365        5.444       34.487       40.128      340.664       14.841      866.671
10/19/2013  11:30:00       53.716       80.811       70.571       58.016       41.804       49.116     3365.904     1747.552     2412.365        1.096        0.376       97.035       41.258        0.181      340.336       14.287      866.665
10/19/2013  11:31:00       41.121       50.728        5.504       34.744       29.902       25.689     1207.172      894.144      659.907        0.353        0.138       65.301       20.586        0.099      340.433       14.452      866.653
10/19/2013  11:32:00      101.406       77.063       16.359       63.472       39.709       32.970     4028.712     1576.784     1086.989        1.159        0.335      127.365       23.544        0.034      340.490       14.547      866.646
10/19/2013  11:33:00       65.499       71.280       62.353       56.393       37.217       39.762     3180.164     1385.107     1580.983        0.970        0.307       96.804       30.513        0.099      340.611       14.751      866.638
10/19/2013  11:34:00       49.760       55.415       60.449       53.557       44.847       27.209     2868.308     2011.286      740.357        0.741        0.281       74.478       26.382        0.125      340.654       14.823      866.644
10/19/2013  11:35:00       58.256       77.650       73.482       85.780       46.850       45.675     7358.152     2194.965     2086.186        1.323        0.582       97.073       48.369        0.248      340.621       14.767      866.637
10/19/2013  11:36:00       55.604       23.719      -13.286       29.902       29.854       25.486      894.103      891.282      649.511        0.313        0.122       60.452       17.264        0.082      340.307       14.237      866.636
10/19/2013  11:37:00        7.966       18.045       19.263       37.242       32.547       35.075     1386.987     1059.306     1230.241        0.222        0.184       19.725       25.550        1.678      340.841       15.141      866.615
10/19/2013  11:38:00       65.293       55.495       71.795       54.919       38.960       23.894     3016.136     1517.896      570.909        0.880        0.255       85.691       21.159        0.061      340.617       14.762      866.609
10/19/2013  11:39:00       61.829       17.210       38.055       28.290       44.258       28.387      800.300     1958.804      805.850        0.457        0.178       64.179       23.377        0.133      340.529       14.611      866.599
10/19/2013  11:40:00       -8.267       15.437        9.518       28.257       29.936       23.714      798.463      896.188      562.345        0.133        0.113       17.511       21.931        1.569      340.888       15.221      866.587
10/19/2013  11:41:00        0.484      -14.394       22.220       23.235       38.011       19.078      539.848     1444.858      363.971        0.152        0.117       14.402       17.796        1.527      341.373       16.040      866.575
10/19/2013  11:42:00        6.676      -11.499       52.882       33.561       68.712       46.691     1126.353     4721.313     2180.012        0.550        0.401       13.297       50.310       14.316      341.270       15.866      866.556
10/19/2013  11:43:00       53.495      -63.661       13.753       32.442       97.693       49.676     1052.475     9543.851     2467.679        1.008        0.653       83.153       59.997        0.521      340.566       14.675      866.550
10/19/2013  11:44:00       62.559      -52.474       15.951       56.207       54.061       41.367     3159.183     2922.642     1711.208        0.736        0.390       81.653       40.109        0.241      340.834       15.129      866.536
10/19/2013  11:45:00       84.240      -97.472       -0.766       58.470       96.638       43.180     3418.684     9338.813     1864.483        1.561        0.731      128.830       58.906        0.209      340.642       14.804      866.528
10/19/2013  11:46:00       16.606      -60.994       -1.035       26.932       36.523       21.443      725.347     1333.920      459.789        0.326        0.126       63.214       15.994        0.064      340.623       14.771      866.512
10/19/2013  11:47:00       25.250      -30.169       18.452       39.809       90.205       56.254     1584.751     8137.019     3164.461        0.739        0.644       39.341       61.244        2.423      341.108       15.594      866.497
10/19/2013  11:48:00       16.498      -40.807       12.206       29.961       55.038       35.757      897.654     3029.179     1278.543        0.365        0.260       44.016       39.591        0.809      341.048       15.490      866.492
10/19/2013  11:49:00       40.324      -43.291       15.689       47.296       84.160       57.721     2236.919     7082.871     3331.680        0.820        0.633       59.161       61.923        1.096      341.278       15.880      866.480
10/19/2013  11:50:00        5.079        1.874       48.802       43.496       63.334       36.717     1891.892     4011.175     1348.147        0.483        0.363        5.414       39.700       53.778      341.295       15.909      866.472
10/19/2013  11:51:00       99.513       64.420       23.062       69.930       49.252       47.249     4890.268     2425.779     2232.454        1.206        0.477      118.545       42.339        0.128      340.880       15.206      866.470
10/19/2013  11:52:00       44.322       29.855       40.746       41.881       49.764       43.146     1754.049     2476.452     1861.583        0.530        0.305       53.439       47.262        0.782      340.881       15.207      866.467
10/19/2013  11:53:00       52.942      122.786      105.684       68.235       54.658       51.143     4656.008     2987.513     2615.605        1.965        0.513      133.713       48.546        0.132      341.223       15.787      866.452
10/19/2013  11:54:00      104.329      139.314      108.486       71.964       43.640       43.937     5178.804     1904.459     1930.484        2.554        0.451      174.049       44.616        0.066      340.739       14.967      866.449
10/19/2013  11:55:00      172.588      112.543       36.367       53.578       36.430       47.011     2870.574     1327.154     2210.061        2.509        0.320      206.040       14.863        0.005      340.647       14.809      866.435
10/19/2013  11:56:00       76.567       65.188       10.460       35.739       47.770       26.597     1277.291     2281.967      707.426        0.724        0.213      100.559       15.214        0.023      340.932       15.293      866.431
10/19/2013  11:57:00       39.599       47.707       40.661       53.284       45.057       45.292     2839.197     2030.114     2051.343        0.621        0.346       62.001       36.996        0.356      341.597       16.421      866.421
10/19/2013  11:58:00        7.710       -4.740       47.685       37.138       71.029       44.328     1379.236     5045.055     1964.978        0.537        0.419        9.051       41.374       20.896      341.692       16.581      866.424
10/19/2013  11:59:00        6.408       18.061       56.619       30.184       70.909       49.767      911.104     5028.094     2476.735        0.599        0.421       19.164       51.535        7.231      341.662       16.531      866.418
10/19/2013  12:00:00       99.694       93.656       65.759       83.062       45.156       47.199     6899.309     2039.094     2227.715        1.710        0.558      136.786       47.642        0.121      341.115       15.602      866.427
10/19/2013  12:01:00       41.120       80.916       81.961       41.521       40.826       37.742     1724.013     1666.770     1424.496        0.988        0.241       90.765       27.517        0.092      341.223       15.787      866.418
10/19/2013  12:02:00       64.088       40.267        7.426       51.623       37.203       30.847     2664.934     1384.030      951.526        0.539        0.250       75.688       31.282        0.171      340.899       15.238      866.418
10/19/2013  12:03:00      131.264      100.681       31.947       38.442       25.531       37.091     1477.820      651.835     1375.775        1.595        0.175      165.429       20.019        0.015      341.086       15.553      866.397
10/19/2013  12:04:00       85.852       71.151       22.007       52.247       49.621       38.470     2729.800     2462.212     1479.925        0.979        0.334      111.503       11.081        0.010      341.382       16.056      866.395
10/19/2013  12:05:00       68.956       70.903       66.604       76.305       69.349       48.005     5822.529     4809.258     2304.515        1.358        0.647       98.905       44.511        0.203      341.362       16.023      866.385
10/19/2013  12:06:00       82.116       74.900       20.819       58.150       48.521       37.337     3381.421     2354.260     1394.020        0.996        0.356      111.144       35.558        0.102      341.072       15.529      866.382
10/19/2013  12:07:00       65.481       63.469       28.403       32.679       29.630       32.831     1067.933      877.911     1077.884        0.607        0.151       91.192       18.424        0.041      341.429       16.135      866.363
10/19/2013  12:08:00        1.820      -40.785        5.879       29.562       51.862       24.057      873.928     2689.710      578.724        0.292        0.207       40.826       14.179        0.121      341.537       16.320      866.348
10/19/2013  12:09:00       11.886       36.681       16.196       22.676       55.526       24.791      514.196     3083.143      614.611        0.298        0.211       38.559       32.052        0.691      341.955       17.027      866.339
10/19/2013  12:10:00       22.671       21.473        6.381       42.417       31.911       24.887     1799.207     1018.312      619.369        0.223        0.172       31.226       16.750        0.288      341.682       16.564      866.324
10/19/2013  12:11:00       51.764       50.371       32.973       43.742       40.289       29.372     1913.401     1623.186      862.711        0.535        0.220       72.227        8.971        0.015      341.793       16.752      866.323
10/19/2013  12:12:00       15.465       48.670       53.982       43.111       36.376       38.911     1858.558     1323.211     1514.086        0.511        0.235       51.068       28.486        0.311      342.233       17.501      866.314
10/19/2013  12:13:00       21.849       25.016       16.019       36.456       45.541       26.888     1329.068     2073.983      722.967        0.274        0.206       33.215       14.997        0.204      341.867       16.877      866.313
10/19/2013  12:14:00       24.613       25.597       33.630       50.356       35.156       28.856     2535.721     1235.968      832.676        0.350        0.230       35.510       24.210        0.465      342.068       17.220      866.299
10/19/2013  12:15:00      106.445       75.156        7.897       61.588       38.384       39.152     3793.115     1473.349     1532.858        1.192        0.340      130.303       26.119        0.040      341.319       15.948      866.302
10/19/2013  12:16:00       31.290       46.660       -2.382       25.999       57.280       27.638      675.943     3281.018      763.855        0.394        0.236       56.180       25.767        0.210      341.394       16.076      866.290
10/19/2013  12:17:00       -2.840      -22.162       19.585       39.025       63.848       41.330     1522.952     4076.551     1708.138        0.409        0.365       22.344       26.341        1.390      342.032       17.157      866.287
10/19/2013  12:18:00       43.959       79.391       55.902       64.614       57.652       58.785     4174.947     3323.765     3455.686        1.116        0.548       90.749       48.005        0.280      341.772       16.719      866.278
10/19/2013  12:19:00       81.717       51.231        6.816       63.338       40.466       35.137     4011.686     1637.526     1234.629        0.812        0.344       96.448       18.511        0.037      341.446       16.163      866.281
10/19/2013  12:20:00       22.820       18.095       17.888       30.981       32.859       26.373      959.809     1079.689      695.561        0.195        0.137       29.124       17.706        0.370      341.834       16.823      866.267
10/19/2013  12:21:00       47.251       42.555       49.764       96.778      102.908       37.932     9366.038    10590.112     1438.872        1.395        1.070       63.589       42.866        0.454      341.827       16.810      866.257
10/19/2013  12:22:00       62.987       10.326       60.217       63.607       74.089       49.807     4045.864     5489.154     2480.716        0.986        0.601       63.828       47.008        0.542      341.982       17.072      866.246
10/19/2013  12:23:00       79.763       41.297       65.630       46.018       91.019       47.764     2117.679     8284.450     2281.394        1.253        0.634       89.820       55.688        0.384      341.660       16.526      866.249
10/19/2013  12:24:00       29.007      -27.077       27.674       33.429       43.156       26.266     1117.518     1862.418      689.923        0.300        0.183       39.681       19.046        0.230      341.973       17.058      866.231
10/19/2013  12:25:00       -5.607      -83.121        0.228       19.016       34.958       16.671      361.602     1222.062      277.913        0.440        0.093       83.310       19.836        0.057      341.563       16.364      866.223
10/19/2013  12:26:00      -18.938      -36.479        9.191       20.399       43.852       23.074      416.101     1923.023      532.400        0.232        0.144       41.102        9.729        0.056      341.911       16.953      866.200
10/19/2013  12:27:00       32.182       30.943       10.095       42.552       23.349       28.022     1810.660      545.168      785.206        0.262        0.157       44.645       21.249        0.227      342.128       17.322      866.185
10/19/2013  12:28:00       25.591       -8.737       40.437       44.324       45.680       44.600     1964.580     2086.643     1989.175        0.420        0.302       27.041       32.052        1.405      342.220       17.479      866.166
10/19/2013  12:29:00       20.688       -2.845       51.286       52.352       78.795       52.094     2740.732     6208.679     2713.733        0.736        0.583       20.883       50.928        5.947      342.237       17.506      866.148
10/19/2013  12:30:00       69.174      -26.073       32.395       71.128       84.600       70.359     5059.231     7157.158     4950.390        1.184        0.858       73.925       69.577        0.886      342.117       17.301      866.124
10/19/2013  12:31:00       26.322      -85.202       32.435       45.352       78.373       49.383     2056.793     6142.385     2438.639        0.982        0.532       89.175       44.706        0.251      341.999       17.102      866.126
10/19/2013  12:32:00       33.788      -48.336       54.557       38.496       99.860       23.834     1481.973     9971.942      568.078        0.924        0.601       58.974       27.666        0.220      341.957       17.031      866.114
10/19/2013  12:33:00       36.326       38.372       55.478       37.422       38.021       25.424     1400.373     1445.586      646.392        0.468        0.175       52.839       15.749        0.089      342.266       17.555      866.110
10/19/2013  12:34:00       19.353       -8.388       14.184       22.421       49.234       27.057      502.689     2424.011      732.092        0.215        0.183       21.093       26.955        1.633      341.883       16.906      866.105
10/19/2013  12:35:00       44.341       -8.292       35.769       32.326       27.276       26.880     1044.995      743.983      722.513        0.291        0.126       45.109       18.427        0.167      342.017       17.133      866.102
10/19/2013  12:36:00       19.585      -12.523       35.573       36.641       32.816       26.335     1342.571     1076.900      693.537        0.246        0.156       23.246       20.363        0.767      342.260       17.546      866.072
10/19/2013  12:37:00       49.153      -61.536       -0.930       26.782       51.900       38.722      717.300     2693.635     1499.401        0.556        0.246       78.757       37.343        0.225      341.738       16.659      866.072
10/19/2013  12:38:00       50.834      -20.791       27.285       54.840       57.898       33.997     3007.462     3352.203     1155.817        0.564        0.376       54.921       39.850        0.526      341.948       17.015      866.053
10/19/2013  12:39:00       65.008       20.483        6.625       75.280       28.589       29.058     5667.136      817.341      844.357        0.601        0.366       68.159       25.769        0.143      341.731       16.647      866.047
10/19/2013  12:40:00       47.760       45.941       16.089       62.577       41.030       33.998     3915.864     1683.498     1155.831        0.570        0.338       66.269       13.460        0.041      342.029       17.154      866.016
10/19/2013  12:41:00       77.471       94.410       17.852       23.950       27.198       34.071      573.612      739.716     1160.820        0.885        0.124      122.127       15.001        0.015      341.865       16.874      866.012
10/19/2013  12:42:00        6.956      -56.509       11.389       31.091       28.022       30.693      966.653      785.242      942.032        0.303        0.135       56.935       22.686        0.159      342.015       17.129      866.000
10/19/2013  12:43:00      -16.438       40.091      -12.065       26.082       20.939       30.667      680.254      438.436      940.443        0.204        0.103       43.330       20.942        0.234      342.054       17.194      865.981
10/19/2013  12:44:00      -40.872        8.971      -28.220       29.888       23.779       19.747      893.310      565.457      389.926        0.220        0.092       41.845       13.371        0.102      342.076       17.234      865.971
10/19/2013  12:45:00       -1.966       -9.191       18.907       10.634       17.183       23.748      113.075      295.255      563.960        0.071        0.049        9.399       17.899        3.627      342.796       18.458      865.952
10/19/2013  12:46:00        6.103       11.792       41.974       40.406       36.576       32.829     1632.678     1337.826     1077.716        0.299        0.202       13.278       29.418        4.909      343.071       18.926      865.943
10/19/2013  12:47:00      -17.650       52.003       85.671       22.534       38.266       24.274      507.792     1464.266      589.206        0.646        0.128       54.916       22.009        0.161      343.260       19.247      865.921
10/19/2013  12:48:00        5.013       36.805       55.104       64.659       57.938       49.074     4180.807     3356.782     2408.289        0.718        0.497       37.145       45.420        1.495      342.833       18.519      865.917
10/19/2013  12:49:00       94.376       81.812       33.057       55.809       45.458       48.709     3114.634     2066.402     2372.607        1.212        0.378      124.900       31.931        0.065      342.396       17.777      865.908
10/19/2013  12:50:00        7.514       73.831       -0.921       36.398       35.801       28.233     1324.813     1281.694      797.102        0.446        0.170       74.213       17.746        0.057      342.354       17.705      865.903
10/19/2013  12:51:00       -5.047       35.890        0.046       19.168       27.949       24.364      367.420      781.149      593.605        0.153        0.087       36.244       15.247        0.177      342.637       18.186      865.880
10/19/2013  12:52:00        5.236       47.788       -2.892       22.345       42.943       19.562      499.313     1844.138      382.674        0.252        0.136       48.074       24.300        0.255      342.794       18.454      865.864
10/19/2013  12:53:00       40.918       40.402       14.695       30.323       25.092       30.843      919.455      629.597      951.315        0.301        0.125       57.503       17.832        0.096      342.619       18.156      865.845
10/19/2013  12:54:00        7.010       75.065       -3.332       30.763       37.613       24.102      946.346     1414.727      580.895        0.432        0.147       75.391       24.770        0.108      342.592       18.110      865.833
10/19/2013  12:55:00       81.057       72.122       11.837       63.837       31.066       33.033     4075.214      965.070     1091.207        0.902        0.307      108.498       21.326        0.039      342.483       17.924      865.811
10/19/2013  12:56:00       65.605       37.483       15.972       50.272       30.314       38.514     2527.294      918.947     1483.347        0.545        0.246       75.558       23.875        0.100      342.603       18.128      865.802
10/19/2013  12:57:00       63.372       53.675       33.505       48.954       42.548       40.281     2396.507     1810.312     1622.526        0.692        0.291       83.048       34.224        0.170      342.698       18.290      865.796
10/19/2013  12:58:00       97.437       93.880       33.918       49.120       35.856       42.983     2412.786     1285.639     1847.541        1.250        0.277      135.305       22.118        0.027      342.419       17.815      865.787
10/19/2013  12:59:00       20.376       -8.345        9.590       36.314       73.700       32.099     1318.687     5431.750     1030.318        0.418        0.389       22.019        9.899        0.202      342.813       18.485      865.772
10/19/2013  13:00:00       56.730     -106.173      -14.314       53.227       53.903       30.102     2833.143     2905.556      906.101        1.067        0.332      120.378       17.892        0.022      342.377       17.744      865.770
10/19/2013  13:01:00       15.374      -10.803       34.047       33.100       99.820       70.314     1095.632     9963.942     4944.056        0.876        0.800       18.790       78.167       17.305      342.634       18.179      865.753
10/19/2013  13:02:00       79.004      120.942      107.924       66.381       52.540       56.860     4406.488     2760.464     3233.065        2.146        0.520      144.460       52.268        0.131      342.447       17.861      865.746
10/19/2013  13:03:00       78.165      143.370      116.270       43.364       43.599       39.205     1880.445     1900.885     1537.061        2.275        0.266      163.294       32.067        0.039      342.476       17.911      865.728
10/19/2013  13:04:00       26.713      -38.586       -0.317       69.096       99.982       42.049     4774.229     9996.340     1768.078        0.937        0.827       46.931       36.486        0.604      342.469       17.901      865.715
10/19/2013  13:05:00       65.237       55.579       41.216       45.127       27.825       30.601     2036.453      774.228      936.423        0.639        0.187       85.703       15.020        0.031      342.695       18.283      865.703
10/19/2013  13:06:00       -5.299        2.391       27.353       19.596       29.244       25.642      384.006      855.194      657.529        0.134        0.095        5.813       26.852       21.335      342.984       18.777      865.693
10/19/2013  13:07:00       -0.511      -44.170       -1.871       15.980       15.124       13.654      255.371      228.746      186.425        0.131        0.034       44.173        6.526        0.022      342.522       17.990      865.680
10/19/2013  13:08:00      -18.272        7.222       11.947       56.807       47.404       19.991     3227.021     2247.136      399.642        0.320        0.294       19.647       18.673        0.903      342.808       18.477      865.673
10/19/2013  13:09:00     -139.624       32.742        1.256       27.389       22.029       18.852      750.160      485.262      355.382        1.108        0.080      143.412        9.867        0.005      342.297       17.606      865.652
10/19/2013  13:10:00      -22.841       22.329        2.842       69.852       33.567       21.702     4879.343     1126.749      470.991        0.375        0.324       31.942       30.063        0.886      342.576       18.082      865.654
10/19/2013  13:11:00       65.007       33.662        5.370       44.632       40.980       36.853     1992.024     1679.326     1358.123        0.521        0.251       73.206       25.525        0.122      342.832       18.519      865.628
10/19/2013  13:12:00       61.915        3.290       15.769       46.593       23.835       36.126     2170.925      568.108     1305.106        0.407        0.202       62.003       22.573        0.133      342.967       18.747      865.627
10/19/2013  13:13:00      -13.170      -57.214        0.609       31.905       50.051       17.261     1017.899     2505.081      297.958        0.363        0.191       58.710       17.450        0.088      342.674       18.248      865.611
10/19/2013  13:14:00       -9.253      -96.990       -2.693       23.952       51.939       19.183      573.707     2697.632      367.968        0.657        0.182       97.431       23.237        0.057      342.593       18.111      865.585
10/19/2013  13:15:00        4.356      -20.172       11.024       20.972       32.942       20.546      439.828     1085.195      422.142        0.125        0.097       20.637       11.724        0.323      343.358       19.415      865.558
10/19/2013  13:16:00       12.648        6.058       19.965       32.855       21.526       26.040     1079.445      463.354      678.102        0.141        0.111       14.024       20.972        2.236      343.453       19.577      865.547
10/19/2013  13:17:00      -18.998      -24.700        2.652       28.929       16.147       16.810      836.885      260.722      282.565        0.118        0.069       31.162       11.594        0.138      343.280       19.281      865.526
10/19/2013  13:18:00       25.332      -62.041        1.627       50.510       50.760       21.942     2551.211     2576.567      481.434        0.505        0.280       67.014       22.748        0.115      342.991       18.789      865.513
10/19/2013  13:19:00       29.533      -18.081       29.563       34.548       58.991       26.972     1193.596     3479.883      727.502        0.374        0.270       34.628       21.617        0.390      343.501       19.658      865.485
10/19/2013  13:20:00       28.405        2.762        8.800       57.789       36.645       30.247     3339.612     1342.864      914.894        0.324        0.280       28.539       19.193        0.452      343.419       19.518      865.483
10/19/2013  13:21:00       14.191       26.865       41.453       40.348       39.485       32.494     1627.922     1559.033     1055.854        0.344        0.212       30.383       26.570        0.765      343.549       19.740      865.462
10/19/2013  13:22:00       17.546        6.499       44.059       37.672       32.405       31.827     1419.182     1050.110     1012.927        0.289        0.174       18.711       25.063        1.794      343.528       19.702      865.459
10/19/2013  13:23:00       -3.784        1.420       16.717       20.278       34.208       26.680      411.216     1170.161      711.819        0.129        0.115        4.041       25.469       39.716      343.696       19.989      865.441
10/19/2013  13:24:00       79.926       64.401       34.174       65.223       31.614       32.557     4254.080      999.416     1059.931        0.901        0.316      102.643       28.333        0.076      343.298       19.312      865.434
10/19/2013  13:25:00       68.717       40.498       25.023       59.443       58.400       44.072     3533.506     3410.569     1942.345        0.794        0.444       79.763       33.277        0.174      343.282       19.285      865.413
10/19/2013  13:26:00       42.050     -101.155        8.299       88.731       58.072       41.862     7873.255     3372.362     1752.445        1.253        0.650      109.547       24.340        0.049      343.234       19.203      865.405
10/19/2013  13:27:00       14.868      -43.258        0.891       49.894       75.877       34.020     2489.368     5757.282     1157.389        0.575        0.470       45.742       16.145        0.125      343.337       19.378      865.395
10/19/2013  13:28:00       37.678       45.535       27.310       34.340       30.418       45.566     1179.208      925.225     2076.265        0.421        0.209       59.102       15.084        0.065      343.059       18.905      865.392
10/19/2013  13:29:00        5.265       -1.274       -3.709       41.034       21.689       25.698     1683.748      470.420      660.379        0.143        0.141        5.417       20.406       14.190      343.096       18.968      865.371
10/19/2013  13:30:00      -14.725       25.926       15.531       37.493       20.059       25.251     1405.748      402.347      637.628        0.179        0.122       29.816       13.249        0.197      343.414       19.509      865.351
10/19/2013  13:31:00        2.853       11.463       58.737       22.424       42.283       28.484      502.841     1787.850      811.360        0.335        0.155       11.813       23.384        3.919      343.720       20.031      865.328
10/19/2013  13:32:00       22.011       54.929       80.113       60.373       49.559       37.661     3644.902     2456.050     1418.353        0.872        0.376       59.175       33.488        0.320      343.652       19.914      865.311
10/19/2013  13:33:00      144.309      103.954       59.650       60.781       50.778       57.791     3694.290     2578.378     3339.773        2.240        0.481      177.852       42.063        0.056      343.217       19.171      865.293
10/19/2013  13:34:00       79.459       78.320       30.615       84.387       43.742       33.892     7121.155     1913.352     1148.648        1.178        0.509      111.570       28.794        0.067      343.507       19.667      865.286
10/19/2013  13:35:00       28.284       31.091        0.168       34.651       62.967       27.660     1200.722     3964.888      765.103        0.385        0.297       42.031       30.162        0.515      343.285       19.289      865.265
10/19/2013  13:36:00       30.429       -7.939       32.159       54.699       54.343       32.521     2992.006     2953.119     1057.607        0.451        0.350       31.447       26.728        0.722      343.524       19.695      865.243
10/19/2013  13:37:00       19.113       -3.567       12.801       32.233       26.247       24.895     1038.997      688.889      619.772        0.144        0.117       19.443       16.569        0.726      343.476       19.615      865.223
10/19/2013  13:38:00       -0.805       33.772       40.905       26.451       37.774       25.955      699.651     1426.860      673.654        0.281        0.140       33.781       24.978        0.547      343.938       20.404      865.188
10/19/2013  13:39:00       -0.198       32.387       40.719       30.308       26.825       27.078      918.598      719.558      733.231        0.254        0.119       32.388       14.449        0.199      343.989       20.490      865.173
10/19/2013  13:40:00       16.208       20.549       21.259       35.051       48.385       42.831     1228.597     2341.119     1834.481        0.327        0.270       26.172       36.199        1.913      343.725       20.039      865.138
10/19/2013  13:41:00       31.566       38.149       66.233       36.736       49.513       36.953     1349.554     2451.563     1365.545        0.600        0.258       49.515       37.362        0.569      343.466       19.598      865.124
10/19/2013  13:42:00      -13.629      -11.130       -6.000       15.398       12.254       13.402      237.088      150.167      179.602        0.046        0.028       17.596        9.191        0.273      343.331       19.368      865.093
10/19/2013  13:43:00       23.559       12.036        7.646       29.894       22.285       24.922      893.667      496.629      621.126        0.138        0.101       26.456       17.579        0.442      343.501       19.657      865.076
10/19/2013  13:44:00       25.049       16.694        7.958       55.046       38.946       41.386     3030.088     1516.771     1712.784        0.361        0.313       30.102       18.972        0.397      343.635       19.885      865.049
10/19/2013  13:45:00       -4.351       60.119       -6.835       42.704       63.856       29.101     1823.672     4077.527      846.872        0.521        0.337       60.276       20.070        0.111      343.671       19.947      865.032
10/19/2013  13:46:00       83.370       36.734        0.338       41.593       36.916       37.793     1729.945     1362.762     1428.276        0.641        0.226       91.104       25.226        0.077      343.522       19.693      865.010
10/19/2013  13:47:00       38.060       43.700        3.453       50.096       34.492       33.332     2509.628     1189.732     1111.041        0.409        0.241       57.950       17.111        0.087      343.569       19.773      864.994
10/19/2013  13:48:00       61.900      -68.214       -7.878       68.845       49.643       36.646     4739.569     2464.379     1342.909        0.855        0.427       92.113       28.655        0.097      343.611       19.845      864.978
10/19/2013  13:49:00       27.884      -27.607        2.323       41.780       54.513       32.781     1745.545     2971.651     1074.581        0.367        0.290       39.239       32.794        0.698      343.603       19.830      864.972
10/19/2013  13:50:00       20.561       35.486       44.918       39.577       39.802       24.239     1566.352     1584.182      587.539        0.372        0.187       41.013       25.778        0.395      344.011       20.527      864.978
10/19/2013  13:51:00       63.392       37.018       13.772       20.466       31.370       31.194      418.874      984.054      973.035        0.398        0.119       73.409       20.707        0.080      343.396       19.478      864.975
10/19/2013  13:52:00       17.034       34.291        5.631       27.144       38.141       23.143      736.773     1454.715      535.607        0.211        0.136       38.289       18.668        0.238      344.023       20.548      864.966
10/19/2013  13:53:00       -0.092      -23.349        6.767       13.960       22.502       19.474      194.884      506.354      379.244        0.084        0.054       23.350       16.139        0.478      344.121       20.716      864.953
10/19/2013  13:54:00       58.732       24.640       56.495       86.492       60.560       50.337     7480.789     3667.557     2533.841        1.046        0.684       63.692       42.391        0.443      343.950       20.424      864.930
10/19/2013  13:55:00       71.833       53.561       46.463       78.765       68.256       64.461     6203.875     4658.903     4155.200        1.260        0.751       89.603       60.907        0.462      343.761       20.100      864.911
10/19/2013  13:56:00      104.682       62.887       16.956       84.126       50.251       59.816     7077.243     2525.130     3577.990        1.419        0.659      122.119       41.948        0.118      343.890       20.320      864.881
10/19/2013  13:57:00       64.193       72.351       50.432       65.220       60.387       58.855     4253.622     3646.627     3463.964        1.163        0.568       96.723       47.007        0.236      343.935       20.398      864.879
10/19/2013  13:58:00       65.570       -4.584       22.161       62.757       92.712       40.908     3938.471     8595.492     1673.430        0.951        0.710       65.730       37.032        0.317      343.645       19.901      864.861
10/19/2013  13:59:00      117.190       87.818       14.575       61.756       36.388       39.400     3813.763     1324.076     1552.365        1.417        0.335      146.443       31.281        0.046      343.648       19.908      864.860
10/19/2013  14:00:00      145.397       95.853       10.616       54.398       43.629       39.270     2959.150     1903.463     1542.137        1.842        0.320      174.149       19.450        0.012      343.582       19.793      864.858
10/19/2013  14:01:00       89.012       79.768       -0.438       41.544       36.337       33.885     1725.941     1320.343     1148.221        0.924        0.210      119.524       22.094        0.034      343.564       19.765      864.852
10/19/2013  14:02:00       25.447       11.796        1.561       27.154       27.594       18.141      737.358      761.447      329.113        0.131        0.091       28.049       15.875        0.320      343.648       19.907      864.845
10/19/2013  14:03:00       12.375       10.947        9.838       11.827       31.753       14.392      139.884     1008.244      207.141        0.086        0.068       16.522       14.038        0.722      343.818       20.198      864.824
10/19/2013  14:04:00       12.954       -1.516       24.413       20.386       42.140       23.293      415.597     1775.802      542.567        0.175        0.137       13.043       19.859        2.318      344.079       20.644      864.820
10/19/2013  14:05:00       40.742     -107.113       -5.398       39.164       40.440       22.669     1533.841     1635.393      513.873        0.842        0.184      114.600       21.413        0.035      343.617       19.856      864.805
10/19/2013  14:06:00       55.825      -34.850       25.742       52.472       60.172       32.828     2753.347     3620.629     1077.697        0.622        0.373       65.810       28.496        0.187      343.922       20.376      864.791
10/19/2013  14:07:00       31.719       35.533       46.063       57.368       57.834       36.239     3291.123     3344.749     1313.247        0.617        0.397       47.631       31.653        0.442      344.022       20.546      864.781
10/19/2013  14:08:00       90.339       68.335       37.368       59.622       40.667       44.927     3554.765     1653.779     2018.429        1.073        0.361      113.273       28.450        0.063      343.794       20.156      864.767
10/19/2013  14:09:00        1.092       69.397        4.543       40.714       36.490       30.936     1657.592     1331.536      957.038        0.439        0.197       69.405       24.751        0.127      343.945       20.414      864.757
10/19/2013  14:10:00      -28.915       96.972        1.939       33.926       55.786       40.948     1150.948     3112.059     1676.774        0.809        0.297      101.191       21.457        0.045      344.027       20.555      864.730
10/19/2013  14:11:00        4.661       35.806        9.356       29.320       46.197       24.184      859.666     2134.201      584.883        0.248        0.179       36.108       24.082        0.445      344.047       20.589      864.710
10/19/2013  14:12:00       26.366       -4.239      -19.418       28.569       25.969       25.813      816.175      674.388      666.291        0.162        0.108       26.705       18.360        0.473      344.153       20.770      864.703
10/19/2013  14:13:00       75.710     -140.235      -16.296       35.402       34.234       24.006     1253.335     1171.969      576.285        1.433        0.150      159.367       21.048        0.017      343.616       19.851      864.684
10/19/2013  14:14:00       77.881     -119.912      -26.249       42.615       36.962       28.421     1816.031     1366.160      807.732        1.256        0.199      142.984       18.822        0.017      343.610       19.843      864.678
10/19/2013  14:15:00      -10.185      -21.607       -1.820       61.484       38.471       22.600     3780.318     1479.986      510.741        0.317        0.289       23.887       19.871        0.692      343.879       20.302      864.666
10/19/2013  14:16:00      -69.622      -63.179       -0.706       57.861       54.444       28.448     3347.891     2964.188      809.262        0.798        0.356       94.014       30.066        0.102      344.065       20.620      864.643
10/19/2013  14:17:00       27.189      -75.386       -1.664       27.253       55.222       35.540      742.726     3049.492     1263.097        0.574        0.253       80.139       20.336        0.064      344.207       20.862      864.635
10/19/2013  14:18:00        5.649      -14.332       18.083       30.287       24.453       26.724      917.316      597.953      714.163        0.140        0.111       15.406       17.080        1.229      344.584       21.507      864.625
10/19/2013  14:19:00      -25.398      -69.284        5.724       51.549       58.862       33.583     2657.327     3464.678     1127.812        0.636        0.362       73.792       37.492        0.258      344.240       20.919      864.610
10/19/2013  14:20:00       -9.510     -123.401       -0.231       45.142       49.819       32.310     2037.758     2481.941     1043.939        1.044        0.278      123.767       21.815        0.031      343.981       20.474      864.593
10/19/2013  14:21:00       -7.701      -51.036        5.167       39.211       44.078       28.656     1537.534     1942.881      821.189        0.350        0.215       51.614       28.095        0.296      344.237       20.914      864.588
10/19/2013  14:22:00      -13.830      -57.227        3.357       44.525       54.473       33.649     1982.441     2967.298     1132.253        0.478        0.304       58.874       35.293        0.359      344.195       20.842      864.582
10/19/2013  14:23:00      -35.289      -41.059        5.759       39.218       28.848       27.702     1538.023      832.215      767.415        0.305        0.157       54.140       20.702        0.146      344.200       20.851      864.585
10/19/2013  14:24:00       30.301       33.079       58.542       53.418       56.975       48.875     2853.440     3246.190     2388.761        0.696        0.424       44.859       46.885        1.092      344.460       21.294      864.577
10/19/2013  14:25:00       71.746      117.825      112.992       67.278       72.648       51.245     4526.369     5277.786     2626.094        2.211        0.622      137.950       53.390        0.150      344.119       20.711      864.560
10/19/2013  14:26:00      104.663       77.224       53.378       58.469       53.774       41.733     3418.598     2891.648     1741.640        1.391        0.403      130.069       34.500        0.070      343.966       20.448      864.564
10/19/2013  14:27:00       87.439       67.866       22.602       32.714       28.069       28.363     1070.208      787.846      804.453        0.771        0.133      110.686       16.869        0.023      343.869       20.285      864.557
10/19/2013  14:28:00       24.590      -65.644      -13.257       49.504       88.250       31.655     2450.672     7788.118     1002.034        0.816        0.562       70.098       41.599        0.352      344.173       20.805      864.537
10/19/2013  14:29:00       58.635      -98.087      -12.053       33.370       38.615       29.417     1113.550     1491.138      865.354        0.834        0.174      114.277       25.403        0.049      343.972       20.462      864.539
10/19/2013  14:30:00       65.577       38.305       66.855       56.310       70.709       32.519     3170.810     4999.735     1057.488        0.973        0.461       75.945       28.840        0.144      344.089       20.660      864.526
10/19/2013  14:31:00      111.889      141.952      103.105       75.934       58.048       55.361     5765.961     3369.525     3064.882        2.775        0.610      180.747       49.087        0.074      343.962       20.440      864.506
10/19/2013  14:32:00      105.112      130.961       73.609       50.322       39.293       45.274     2532.347     1543.904     2049.698        1.987        0.306      167.926       39.232        0.055      343.798       20.163      864.511
10/19/2013  14:33:00       61.272      -11.922       17.648       56.461       74.677       38.836     3187.837     5576.656     1508.205        0.724        0.514       62.421       45.850        0.540      344.001       20.510      864.512
10/19/2013  14:34:00       41.217      -68.987        0.117       39.646       39.445       27.101     1571.788     1555.945      734.440        0.516        0.193       80.362       20.404        0.064      343.991       20.493      864.502
10/19/2013  14:35:00       51.887      -50.733       24.719       62.804       88.764       58.372     3944.357     7878.962     3407.315        1.055        0.762       72.567       57.620        0.630      344.314       21.044      864.471
10/19/2013  14:36:00      119.592     -135.718      -16.670       58.148       61.765       31.692     3381.241     3814.970     1004.372        2.060        0.410      180.891       36.022        0.040      343.983       20.477      864.480
10/19/2013  14:37:00       18.240      -16.629       34.702       38.743       62.655       32.354     1501.013     3925.602     1046.760        0.414        0.324       24.682       39.970        2.622      344.388       21.172      864.480
10/19/2013  14:38:00       57.023     -114.142       -7.971       35.372       45.521       21.790     1251.157     2072.135      474.815        1.007        0.190      127.593       22.753        0.032      343.906       20.349      864.460
10/19/2013  14:39:00       28.800      -95.232      -20.605       49.512       63.855       31.611     2451.425     4077.509      999.255        0.892        0.376       99.492       26.215        0.069      344.206       20.860      864.446
10/19/2013  14:40:00       12.090        7.655       49.411       33.839       45.072       34.981     1145.103     2031.455     1223.649        0.352        0.220       14.309       35.740        6.238      344.403       21.197      864.441
10/19/2013  14:41:00       19.463       60.559       67.082       39.186       35.648       35.948     1535.517     1270.811     1292.277        0.632        0.205       63.610       29.047        0.209      344.455       21.286      864.447
10/19/2013  14:42:00       52.498       70.144       33.794       66.829       42.005       62.262     4466.117     1764.427     3876.542        0.946        0.505       87.614       56.044        0.409      344.280       20.987      864.448
10/19/2013  14:43:00       21.564        7.966       -8.488       45.397       29.218       17.125     2060.885      853.699      293.262        0.190        0.160       22.989       16.932        0.542      344.109       20.695      864.457
10/19/2013  14:44:00      -29.111      134.120      -18.835       27.844       64.600       22.275      775.275     4173.124      496.198        1.232        0.272      137.243       25.294        0.034      344.019       20.541      864.445
10/19/2013  14:45:00       -7.188      137.192      -16.084       26.691       32.384       25.503      712.435     1048.731      650.404        1.077        0.121      137.380       21.121        0.024      343.960       20.440      864.438
10/19/2013  14:46:00      -37.709       59.357       -5.416       23.906       34.546       25.146      571.514     1193.413      632.325        0.369        0.120       70.322       20.990        0.089      344.243       20.924      864.430
10/19/2013  14:47:00        4.287       15.927       19.932       24.059       25.988       12.907      578.839      675.380      166.597        0.104        0.071       16.494       13.395        0.660      344.709       21.721      864.408
10/19/2013  14:48:00       55.730       43.756       37.834       19.510       13.008       22.091      380.621      169.207      488.021        0.374        0.052       70.855       10.450        0.022      344.126       20.724      864.397
10/19/2013  14:49:00        1.553       34.005        1.155       34.751       33.307       22.918     1207.654     1109.354      525.215        0.200        0.142       34.040       18.047        0.281      344.209       20.865      864.394
10/19/2013  14:50:00      -48.943       51.844      -23.420       60.284       36.103       22.727     3634.152     1303.439      516.526        0.554        0.273       71.297       29.908        0.176      344.050       20.594      864.387
10/19/2013  14:51:00     -103.515       35.729      -16.008       23.731       30.819       19.294      563.155      949.795      372.274        0.707        0.094      109.507       16.440        0.023      344.166       20.791      864.363
10/19/2013  14:52:00      -33.797      -12.923        6.875       35.532       24.167       16.369     1262.533      584.044      267.940        0.174        0.106       36.183       11.338        0.098      344.569       21.481      864.345
10/19/2013  14:53:00        7.208      -35.019       16.752       28.612       30.912       27.579      818.639      955.576      760.626        0.205        0.127       35.753       20.763        0.337      344.577       21.494      864.345
10/19/2013  14:54:00       32.522       27.137       48.781       90.408       64.831       51.200     8173.634     4203.097     2621.433        0.958        0.750       42.357       47.349        1.250      344.506       21.373      864.325
10/19/2013  14:55:00      123.068       66.280       87.201       81.606       61.977       61.768     6659.612     3841.162     3815.240        2.073        0.716      139.781       40.455        0.084      344.130       20.730      864.321
10/19/2013  14:56:00       66.711       56.272       73.161       58.258       48.327       38.370     3393.960     2335.476     1472.253        1.008        0.360       87.275       25.628        0.086      344.218       20.881      864.317
10/19/2013  14:57:00       49.753      -66.683        1.470       51.558       53.292       47.282     2658.208     2840.039     2235.546        0.733        0.387       83.198       32.105        0.149      344.265       20.962      864.302
10/19/2013  14:58:00      112.547      -55.539       13.016       40.389      108.909       56.180     1631.298    11861.275     3156.219        1.628        0.832      125.504       63.773        0.258      344.102       20.683      864.296
10/19/2013  14:59:00       55.461      102.039       -2.419       45.254       64.210       48.834     2047.890     4122.928     2384.783        1.102        0.428      116.138       41.949        0.130      344.180       20.815      864.270
10/19/2013  15:00:00      123.823       59.698       17.585       34.967       35.192       37.280     1222.706     1238.491     1389.805        1.153        0.193      137.463       20.671        0.023      344.175       20.808      864.272
10/19/2013  15:01:00       46.647       62.166        0.207       56.512       35.868       34.792     3193.564     1286.523     1210.499        0.586        0.285       77.721       19.479        0.063      344.315       21.047      864.272
10/19/2013  15:02:00      -16.940       87.470      -13.211       13.426       21.649       17.233      180.270      468.690      296.984        0.453        0.047       89.095       11.545        0.017      344.137       20.743      864.262
10/19/2013  15:03:00       10.962       19.079       -1.766       23.556       22.372       21.208      554.871      500.487      449.789        0.100        0.075       22.004       16.232        0.544      344.395       21.183      864.236
10/19/2013  15:04:00       -7.665       99.685       -7.714       50.108      100.428       36.322     2510.815    10085.805     1319.303        1.198        0.696       99.979       39.531        0.156      344.593       21.521      864.219
10/19/2013  15:05:00       53.274       41.242       12.301       42.238       44.461       35.873     1784.062     1976.768     1286.896        0.487        0.252       67.373       24.473        0.132      344.483       21.334      864.207
10/19/2013  15:06:00       31.084       26.303       -0.802       44.094       40.991       31.869     1944.310     1680.264     1015.635        0.315        0.232       40.719       18.595        0.209      344.764       21.813      864.200
10/19/2013  15:07:00       13.353       49.053       42.511       30.748       35.230       38.018      945.411     1241.133     1445.341        0.401        0.182       50.838       27.028        0.283      344.861       21.980      864.199
10/19/2013  15:08:00       18.012        8.416       12.946       22.703       28.557       20.045      515.449      815.492      401.808        0.115        0.087       19.882        4.864        0.060      344.777       21.836      864.184
10/19/2013  15:09:00       42.348       41.059       43.913       44.594       37.759       36.293     1988.586     1425.774     1317.148        0.507        0.237       58.985       30.863        0.274      344.570       21.483      864.184
10/19/2013  15:10:00       -1.715       37.428       69.848       20.634       28.066       20.655      425.758      787.722      426.630        0.396        0.082       37.467       19.688        0.276      344.955       22.142      864.186
10/19/2013  15:11:00       43.910        4.592       25.847       31.954       36.272       33.561     1021.033     1315.694     1126.360        0.304        0.173       44.150       32.026        0.526      344.597       21.530      864.188
10/19/2013  15:12:00       28.129       -9.143       32.581       35.434       56.853       23.544     1255.603     3232.305      554.337        0.349        0.252       29.578        9.987        0.114      344.602       21.537      864.183
10/19/2013  15:13:00       32.691      -68.421        3.564       34.613       36.555       30.701     1198.067     1336.269      942.573        0.462        0.174       75.829       20.432        0.073      344.455       21.286      864.181
10/19/2013  15:14:00      -20.260      -21.624        4.006       36.734       63.101       36.601     1349.367     3981.798     1339.622        0.378        0.334       29.632       32.265        1.186      344.564       21.472      864.179
10/19/2013  15:15:00       -4.164       48.180      -33.198       46.851       60.937       19.021     2194.996     3713.360      361.814        0.485        0.314       48.360       24.476        0.256      344.439       21.258      864.171
10/19/2013  15:16:00       36.757      139.586      -15.668       45.798       94.581       36.135     2097.437     8945.485     1305.760        1.671        0.617      144.344       42.915        0.088      344.385       21.164      864.148
10/19/2013  15:17:00       -2.233      145.312       -8.205       61.186       90.504       36.457     3743.711     8190.892     1329.108        1.722        0.663      145.329       31.518        0.047      344.353       21.109      864.141
10/19/2013  15:18:00      -74.861      178.283      -16.900       36.859       33.879       27.273     1358.579     1147.797      743.811        2.046        0.163      193.363       13.170        0.005      344.319       21.053      864.136
10/19/2013  15:19:00        4.768       68.165        4.929       73.508       66.776       32.888     5403.389     4459.037     1081.607        0.782        0.547       68.331       37.080        0.294      344.471       21.313      864.130
10/19/2013  15:20:00       95.489       84.993       10.630       50.081       52.632       30.582     2508.128     2770.158      935.278        1.133        0.311      127.836       23.917        0.035      344.365       21.132      864.121
10/19/2013  15:21:00       58.849       49.286       49.002       47.638       50.333       34.540     2269.365     2533.425     1193.015        0.714        0.300       76.762       22.906        0.089      344.505       21.372      864.120
10/19/2013  15:22:00       40.542      -32.784       -9.097       25.995       32.486       17.844      675.738     1055.354      318.407        0.243        0.102       52.139       12.989        0.062      344.405       21.199      864.119
10/19/2013  15:23:00       13.910        6.687       24.145       27.598       38.929       30.119      761.665     1515.465      907.160        0.200        0.159       15.434       28.627        3.440      344.699       21.704      864.103
10/19/2013  15:24:00        6.672       59.749        3.195       29.128       43.043       24.465      848.452     1852.714      598.556        0.346        0.165       60.120       20.758        0.119      344.669       21.652      864.083
10/19/2013  15:25:00      -12.145       43.523       -0.825       16.298       24.482       13.452      265.609      599.347      180.952        0.154        0.052       45.186       13.108        0.084      344.677       21.665      864.073
10/19/2013  15:26:00       29.344       40.159       27.525       48.038       31.663       35.814     2307.660     1002.566     1282.616        0.391        0.230       49.738       31.845        0.410      344.658       21.633      864.074
10/19/2013  15:27:00       55.822       26.000       24.100       48.527       37.038       48.277     2354.822     1371.836     2330.694        0.521        0.303       61.580       30.642        0.248      344.687       21.683      864.066
10/19/2013  15:28:00       42.205       32.801       11.248       34.629       29.243       28.007     1199.168      855.137      784.373        0.291        0.142       53.453       22.819        0.182      344.557       21.461      864.055
10/19/2013  15:29:00       24.583      -31.429       11.456       29.338       25.841       20.575      860.691      667.778      423.351        0.184        0.098       39.901       18.013        0.204      344.943       22.120      864.054
10/19/2013  15:30:00       27.926        2.972        8.401       47.178       30.334       24.984     2225.736      920.164      624.182        0.231        0.189       28.084       23.910        0.725      344.890       22.030      864.047
10/19/2013  15:31:00       32.378       26.641       48.341       67.628       51.071       35.001     4573.490     2608.297     1225.061        0.625        0.420       41.929       31.471        0.563      344.880       22.012      864.036
10/19/2013  15:32:00       40.647       10.589       50.113       58.143       45.752       39.842     3380.614     2093.287     1587.422        0.567        0.353       42.003       37.026        0.777      344.860       21.978      864.021
10/19/2013  15:33:00       61.394     -140.138      -13.850       53.919       66.766       39.634     2907.243     4457.649     1570.824        1.627        0.447      152.997       41.204        0.073      344.509       21.377      864.013
10/19/2013  15:34:00       52.968     -125.749       -8.025       42.075       38.969       22.984     1770.347     1518.564      528.273        1.125        0.191      136.449       21.680        0.025      344.487       21.342      864.013
10/19/2013  15:35:00       33.254      -28.201       39.964       45.295      106.913       58.657     2051.643    11430.494     3440.615        1.021        0.846       43.602       75.331        2.985      344.685       21.680      864.014
10/19/2013  15:36:00       64.369       85.448       87.552       80.813       66.582       52.451     6530.815     4433.206     2751.080        1.641        0.686      106.980       51.619        0.233      344.464       21.300      864.005
10/19/2013  15:37:00       19.536       53.434       70.661       35.578       43.530       34.331     1265.797     1894.888     1178.627        0.628        0.217       56.893       32.297        0.322      344.637       21.597      864.006
10/19/2013  15:38:00       51.077       46.266       55.062       42.501       29.407       33.010     1806.297      864.773     1089.675        0.577        0.188       68.916       22.085        0.103      344.498       21.359      864.013
10/19/2013  15:39:00       12.810      -26.981        9.178       22.714       31.372       24.667      515.918      984.173      608.474        0.154        0.105       29.867       20.170        0.456      344.698       21.702      864.004
10/19/2013  15:40:00       53.935       19.158        9.356       28.534       17.484       16.937      814.176      305.680      286.874        0.238        0.070       57.237       12.127        0.045      344.609       21.547      863.996
10/19/2013  15:41:00       55.966       16.094       11.821       28.380       28.824       20.358      805.443      830.803      414.440        0.279        0.103       58.234       15.738        0.073      344.640       21.602      863.991
10/19/2013  15:42:00      123.799       66.751       43.710       65.322       53.959       43.753     4266.947     2911.552     1914.293        1.539        0.455      140.648       32.898        0.055      344.621       21.568      863.987
10/19/2013  15:43:00       88.445       17.781       23.299       53.965       39.245       41.401     2912.212     1540.152     1714.007        0.742        0.308       90.215       32.353        0.129      344.723       21.744      863.986
10/19/2013  15:44:00       23.032      -17.498       11.769       27.891       41.520       26.232      777.924     1723.905      688.128        0.208        0.159       28.926       11.419        0.156      344.878       22.010      863.977
10/19/2013  15:45:00       48.682       -2.733        1.865       32.176       30.717       24.528     1035.317      943.504      601.641        0.248        0.129       48.759       10.571        0.047      344.617       21.563      863.974
10/19/2013  15:46:00       57.573       29.365       15.996       46.159       36.634       26.206     2130.646     1342.034      686.730        0.430        0.208       64.630       15.650        0.059      344.624       21.576      863.972
10/19/2013  15:47:00      -25.317       83.357       -7.779       16.828       18.305       18.589      283.175      335.068      345.548        0.431        0.048       87.117       11.016        0.016      344.454       21.283      863.965
10/19/2013  15:48:00      -62.201       59.569      -18.976       30.369       29.031       25.949      922.251      842.795      673.344        0.511        0.122       86.124       15.566        0.033      344.655       21.629      863.968
10/19/2013  15:49:00      -15.298      -10.791       12.396       40.578       34.564       26.833     1646.556     1194.669      720.000        0.203        0.178       18.721       17.897        0.914      344.900       22.046      863.968
10/19/2013  15:50:00      -93.966       -8.989       -5.371       60.236       40.633       30.105     3628.322     1651.073      906.294        0.756        0.309       94.395       19.867        0.044      344.836       21.938      863.964
10/19/2013  15:51:00       22.055      -12.721        7.817       25.783       26.343       21.560      664.768      693.967      464.837        0.127        0.091       25.461       11.361        0.199      344.994       22.206      863.959
10/19/2013  15:52:00      -17.012      -22.550        1.666       48.073       38.965       25.738     2310.976     1518.258      662.460        0.265        0.225       28.247       19.520        0.478      345.014       22.242      863.964
10/19/2013  15:53:00      -15.594      -16.191       15.341       55.209       26.721       24.221     3048.056      714.004      586.668        0.254        0.217       22.479       19.308        0.738      344.972       22.169      863.963
10/19/2013  15:54:00      -73.767      -39.579       -4.449       47.411       29.475       19.327     2247.815      868.769      373.520        0.526        0.175       83.714       21.668        0.067      344.758       21.804      863.965
10/19/2013  15:55:00      -66.671      -28.285        0.481       41.286       45.588       19.350     1704.565     2078.283      374.442        0.470        0.208       72.423       16.632        0.053      344.717       21.735      863.961
10/19/2013  15:56:00        9.095      -10.069       17.876       29.036       34.777       26.172      843.115     1209.460      684.987        0.162        0.137       13.568        9.887        0.531      344.949       22.131      863.948
10/19/2013  15:57:00       37.483        9.102       50.933       45.686       66.328       41.492     2087.222     4399.423     1721.558        0.614        0.410       38.572       41.518        1.159      344.922       22.085      863.937
10/19/2013  15:58:00       92.950     -107.447        7.877       76.866      104.827       49.706     5908.424    10988.651     2470.689        1.980        0.968      142.072       66.315        0.218      344.590       21.516      863.935
10/19/2013  15:59:00      116.231     -116.739        3.410       57.683       80.673       32.154     3327.327     6508.159     1033.909        1.901        0.543      164.736       45.803        0.077      344.489       21.344      863.932
10/19/2013  16:00:00       61.676     -124.405       -3.456       48.805       83.344       26.335     2381.906     6946.267      693.507        1.466        0.501      138.854       10.756        0.006      344.541       21.431      863.934
10/19/2013  16:01:00      -77.193       -7.584       -6.530       34.630       32.270       17.143     1199.227     1041.371      293.883        0.430        0.127       77.565        7.751        0.010      344.709       21.720      863.913
10/19/2013  16:02:00     -104.207      -76.509      -18.793       49.645       55.987       35.107     2464.633     3134.493     1232.495        1.195        0.342      129.277       17.001        0.017      344.767       21.819      863.899
10/19/2013  16:03:00      -22.939      -28.009       14.658       38.427       41.100       16.945     1476.603     1689.188      287.148        0.249        0.173       36.204       24.409        0.455      344.882       22.016      863.899
10/19/2013  16:04:00       34.742       -9.282       23.744       46.813       62.597       43.461     2191.413     3918.327     1888.828        0.493        0.400       35.961       48.373        1.809      344.855       21.968      863.908
10/19/2013  16:05:00       83.449      -40.066       60.023       67.911       83.809       55.535     4611.853     7023.984     3084.098        1.344        0.736       92.569       57.441        0.385      344.766       21.817      863.909
10/19/2013  16:06:00       99.489     -120.209        5.586       55.089       59.967       40.174     3034.849     3596.081     1613.952        1.631        0.412      156.039       42.403        0.074      344.638       21.598      863.916
10/19/2013  16:07:00       85.081      -60.388       19.187       51.091       63.264       37.432     2610.259     4002.319     1401.176        0.963        0.401      104.334       35.634        0.117      344.785       21.851      863.914
10/19/2013  16:08:00       24.849      -25.557        8.706       34.538       20.896       21.167     1192.872      436.634      448.040        0.171        0.104       35.646       18.923        0.282      344.920       22.081      863.899
10/19/2013  16:09:00       27.036      -51.593       12.802       41.453       34.596       27.592     1718.344     1196.885      761.325        0.362        0.184       58.247       25.309        0.189      344.968       22.163      863.898
10/19/2013  16:10:00      135.767       85.730       73.388       96.082       98.302       70.525     9231.846     9663.235     4973.734        2.751        1.193      160.569       59.195        0.136      344.666       21.645      863.891
10/19/2013  16:11:00      190.909      136.403       65.253       69.321       58.290       51.529     4805.356     3397.711     2655.254        3.508        0.543      234.632       31.635        0.018      344.654       21.623      863.882
10/19/2013  16:12:00       98.442       83.542       84.197       96.828       87.220       70.713     9375.743     7607.337     5000.354        2.287        1.099      129.112       67.458        0.273      344.795       21.864      863.886
10/19/2013  16:13:00       97.525      131.898      134.541       72.658       69.312       58.419     5279.119     4804.160     3412.732        2.925        0.675      164.037       50.173        0.094      344.656       21.628      863.886
10/19/2013  16:14:00       91.334       60.242       58.730       54.581       43.510       40.537     2979.127     1893.153     1643.234        1.097        0.326      109.412       36.478        0.111      344.748       21.786      863.889
10/19/2013  16:15:00      129.749       32.859       71.254       94.774       63.745       56.692     8982.185     4063.451     3213.940        1.962        0.813      133.845       59.546        0.198      344.753       21.793      863.886
10/19/2013  16:16:00       88.641      112.249       99.709       92.084       59.093       61.013     8479.456     3491.927     3722.593        2.304        0.785      143.028       60.538        0.179      344.785       21.848      863.883
10/19/2013  16:17:00       95.573       69.417       65.726       54.364       57.219       41.333     2955.461     3274.070     1708.455        1.310        0.397      118.122       33.367        0.080      344.726       21.749      863.891
10/19/2013  16:18:00       65.125       81.189       84.580       55.153       55.907       43.313     3041.864     3125.543     1875.989        1.301        0.402      104.082       37.477        0.130      344.754       21.798      863.895
10/19/2013  16:19:00       56.253       64.186       63.026       56.119       54.843       36.723     3149.309     3007.751     1348.610        0.938        0.375       85.348       33.640        0.155      344.869       21.994      863.891
10/19/2013  16:20:00       93.922       37.794       54.668       46.492       37.302       33.106     2161.527     1391.453     1095.988        0.894        0.232      101.241       22.556        0.050      344.782       21.845      863.896
10/19/2013  16:21:00       64.346       53.878       58.314       44.465       47.205       41.835     1977.156     2228.327     1750.206        0.820        0.298       83.924       34.888        0.173      344.686       21.681      863.904
10/19/2013  16:22:00       64.352       61.549       50.744       38.752       48.154       38.016     1501.680     2318.802     1445.185        0.788        0.263       89.048       32.216        0.131      344.787       21.853      863.896
10/19/2013  16:23:00       26.322       36.584       34.079       21.784       16.236       18.324      474.538      263.620      335.779        0.213        0.054       45.069       17.465        0.150      344.770       21.825      863.891
10/19/2013  16:24:00       -7.274      -15.050       -0.762       11.826       21.880       16.276      139.862      478.752      264.899        0.058        0.044       16.716        7.480        0.200      345.173       22.515      863.888
10/19/2013  16:25:00        8.374      -35.984        4.855       19.398       44.026       23.183      376.280     1938.254      537.463        0.212        0.143       36.946       28.799        0.608      345.166       22.502      863.887
10/19/2013  16:26:00       11.907      -24.341       -8.826       12.192       32.648       12.480      148.643     1065.916      155.760        0.109        0.069       27.097       13.067        0.233      344.924       22.088      863.886
10/19/2013  16:27:00       23.945      -35.604        1.446       21.934       17.974       12.046      481.112      323.055      145.110        0.140        0.047       42.907       12.147        0.080      344.910       22.064      863.882
10/19/2013  16:28:00       26.070        5.814       16.152       21.913       26.272       19.775      480.177      690.229      391.066        0.127        0.078       26.710       18.791        0.495      344.939       22.113      863.876
10/19/2013  16:29:00       21.106       -6.244       29.620       28.413       48.372       28.794      807.312     2339.813      829.073        0.267        0.199       22.010       32.691        2.206      345.052       22.307      863.871
10/19/2013  16:30:00       30.891       33.727       51.069       50.410       46.849       38.484     2541.152     2194.796     1481.015        0.546        0.311       45.736       37.094        0.658      344.938       22.111      863.867
10/19/2013  16:31:00       19.965       37.202       60.803       47.769       52.237       31.544     2281.848     2728.733      995.022        0.574        0.300       42.221       30.721        0.529      344.998       22.216      863.850
10/19/2013  16:32:00       58.191       69.792       62.211       67.585       50.207       40.271     4567.785     2520.792     1621.736        1.042        0.436       90.869       29.444        0.105      344.886       22.024      863.849
10/19/2013  16:33:00       54.638       87.586       88.371       52.678       35.576       22.483     2774.975     1265.634      505.490        1.151        0.227      103.231       22.960        0.049      344.886       22.023      863.846
10/19/2013  16:34:00       17.486       68.152       91.206       48.899       43.210       28.766     2391.111     1867.065      827.506        0.918        0.254       70.360       25.975        0.136      344.877       22.008      863.842
10/19/2013  16:35:00       52.552       51.560       55.350       28.734       27.691       25.390      825.643      766.805      644.647        0.536        0.112       73.621        9.429        0.016      344.812       21.897      863.839
10/19/2013  16:36:00       37.071       28.885       40.743       42.965       58.889       29.936     1845.999     3467.958      896.134        0.504        0.311       46.996       28.373        0.364      344.866       21.989      863.834
10/19/2013  16:37:00       72.840      -17.473       53.767       58.472       56.116       37.233     3418.946     3149.008     1386.329        0.823        0.398       74.906       35.624        0.226      344.934       22.104      863.821
10/19/2013  16:38:00       20.648      -76.507       21.191       56.464       70.969       33.441     3188.174     5036.625     1118.268        0.803        0.467       79.244       18.828        0.056      344.938       22.113      863.806
10/19/2013  16:39:00       36.146      -65.987        0.401       41.687       34.757       38.058     1737.778     1208.018     1448.441        0.503        0.220       75.238       24.901        0.110      344.796       21.868      863.807
10/19/2013  16:40:00       63.499     -132.087       -9.034       51.720       70.887       32.913     2674.929     5024.948     1083.257        1.517        0.439      146.557       37.070        0.064      344.707       21.715      863.797
10/19/2013  16:41:00       50.908      -46.503       22.328       45.903      105.193       41.603     2107.052    11065.585     1730.797        1.008        0.745       68.950       43.890        0.405      344.870       21.995      863.782
10/19/2013  16:42:00       80.877       70.905       59.653       58.225       46.769       46.163     3390.112     2187.333     2131.017        1.142        0.385      107.558       37.447        0.121      344.781       21.844      863.786
10/19/2013  16:43:00       49.886       47.300       46.616       40.791       39.388       29.454     1663.889     1551.382      867.563        0.549        0.204       68.745       16.651        0.059      344.805       21.885      863.783
10/19/2013  16:44:00       79.889       33.422       11.455       38.976       41.190       33.791     1519.107     1696.656     1141.853        0.599        0.218       86.598       13.357        0.024      344.806       21.886      863.788
10/19/2013  16:45:00       65.197       39.177        9.448       36.502       26.088       21.506     1332.418      680.590      462.507        0.417        0.124       76.062        8.157        0.012      344.695       21.695      863.786
10/19/2013  16:46:00       44.608       15.825       23.378       31.048       39.249       12.977      963.973     1540.496      168.403        0.273        0.134       47.332       18.545        0.154      344.787       21.855      863.777
10/19/2013  16:47:00       11.232       16.173       -3.152       22.084       27.253       14.771      487.720      742.704      218.191        0.092        0.072       19.691       13.904        0.499      344.849       21.961      863.769
10/19/2013  16:48:00       16.596       29.925       -1.318       18.227       20.382       12.112      332.210      415.415      146.704        0.103        0.045       34.219        8.617        0.063      344.693       21.692      863.761
10/19/2013  16:49:00       35.016       11.886        9.981       22.425       18.966       14.414      502.887      359.710      207.767        0.127        0.054       36.978        8.130        0.048      344.708       21.718      863.755
10/19/2013  16:50:00       30.656       14.137       23.063       33.538       31.328       20.932     1124.823      981.420      438.149        0.211        0.127       33.758       17.828        0.279      344.965       22.158      863.741
10/19/2013  16:51:00       24.564        7.892       49.535       56.274       76.837       48.573     3166.721     5903.963     2359.327        0.727        0.572       25.801       59.165        5.258      344.989       22.200      863.735
10/19/2013  16:52:00       81.417     -107.953      -12.357       41.336       49.990       34.649     1708.685     2498.969     1200.529        1.192        0.270      135.213       25.898        0.037      344.951       22.136      863.729
10/19/2013  16:53:00      101.947     -100.931      -34.467       27.146       58.589       29.315      736.897     3432.641      859.388        1.340        0.251      143.458       16.915        0.014      344.767       21.819      863.718
10/19/2013  16:54:00       44.210       38.244       41.775       42.786       53.258       54.339     1830.670     2836.406     2952.681        0.639        0.381       58.456       42.545        0.530      344.755       21.797      863.720
10/19/2013  16:55:00       19.253        5.208       33.328       33.546       26.566       26.593     1125.321      705.775      707.165        0.202        0.127       19.945       18.060        0.820      344.899       22.046      863.719
10/19/2013  16:56:00       21.256      -41.125        2.276       29.316       37.225       27.893      859.432     1385.682      778.023        0.259        0.151       46.293       16.431        0.126      344.933       22.104      863.709
10/19/2013  16:57:00        5.953      -30.640       12.499       24.199       28.257       23.690      585.582      798.433      561.232        0.154        0.097       31.213       20.286        0.422      345.060       22.321      863.712
10/19/2013  16:58:00       -6.341       17.615       45.335       13.575       28.989       15.883      184.278      840.359      252.258        0.184        0.064       18.721       13.290        0.504      345.059       22.320      863.714
10/19/2013  16:59:00       81.654       51.403       38.613       60.135       44.162       36.568     3616.195     1950.249     1337.234        0.885        0.345       96.487       32.410        0.113      344.821       21.911      863.714
10/19/2013  17:00:00       55.303       28.937       34.574       26.003       30.682       28.965      676.160      941.374      838.974        0.377        0.123       62.416       20.321        0.106      344.779       21.840      863.719
10/19/2013  17:01:00       82.687       36.479       24.902       45.980       39.424       35.811     2114.154     1554.256     1282.402        0.687        0.248       90.376       20.253        0.050      344.756       21.800      863.718
10/19/2013  17:02:00      108.245       36.913       12.608       51.440       38.355       27.836     2646.077     1471.079      774.866        0.906        0.245      114.366       25.563        0.050      344.737       21.768      863.713
10/19/2013  17:03:00       72.979       10.206       25.687       55.655       34.516       32.561     3097.431     1191.332     1060.214        0.572        0.267       73.689       27.640        0.141      344.803       21.881      863.709
10/19/2013  17:04:00       48.788       45.852       58.790       43.593       36.618       26.679     1900.307     1340.910      711.772        0.595        0.198       66.952       27.825        0.173      344.809       21.890      863.711
10/19/2013  17:05:00       39.141       50.420       41.560       39.534       31.420       43.428     1562.929      987.217     1885.982        0.512        0.222       63.829       28.852        0.204      344.881       22.014      863.715
10/19/2013  17:06:00        3.695        1.257       31.968       22.542       31.785       24.234      508.148     1010.271      587.271        0.157        0.105        3.903       20.166       26.697      344.996       22.212      863.717
10/19/2013  17:07:00        8.570      -38.565       18.828       17.157       39.080       20.279      294.350     1527.255      411.223        0.207        0.112       39.505       17.786        0.203      344.947       22.128      863.713
10/19/2013  17:08:00       32.469       30.623       43.052       42.640       35.779       32.059     1818.140     1280.154     1027.765        0.399        0.206       44.632       30.469        0.466      344.796       21.870      863.715
10/19/2013  17:09:00       50.632       55.454       55.525       40.174       34.489       37.057     1613.956     1189.492     1373.202        0.645        0.209       75.091       25.354        0.114      344.759       21.804      863.717
10/19/2013  17:10:00       61.118       39.117       22.733       56.015       37.832       40.368     3137.663     1431.246     1629.546        0.599        0.310       72.564       35.743        0.243      344.737       21.769      863.724
10/19/2013  17:11:00       47.819       40.016       48.709       40.703       32.174       24.583     1656.695     1035.163      604.305        0.478        0.165       62.353       22.167        0.126      344.868       21.992      863.730
10/19/2013  17:12:00       87.524       58.647       52.496       64.333       44.960       45.473     4138.698     2021.390     2067.777        1.104        0.411      105.356       37.637        0.128      344.792       21.863      863.729
10/19/2013  17:13:00       78.241       39.323       47.913       48.092       34.414       32.915     2312.814     1184.300     1083.391        0.727        0.229       87.567       19.852        0.051      344.766       21.817      863.726
10/19/2013  17:14:00       49.239       27.376       21.369       29.834       31.869       19.218      890.055     1015.617      369.322        0.295        0.114       56.337       16.709        0.088      344.767       21.818      863.729
10/19/2013  17:15:00       23.217       39.878       31.614       25.194       26.226       19.112      634.729      687.796      365.251        0.241        0.084       46.144       16.881        0.134      344.795       21.867      863.727
10/19/2013  17:16:00       43.871       32.538       28.135       46.099       35.217       25.052     2125.155     1240.261      627.583        0.388        0.200       54.621       25.726        0.222      344.744       21.779      863.726
10/19/2013  17:17:00       42.171       75.494       78.467       47.137       42.358       29.109     2221.934     1794.195      847.344        0.925        0.243       86.474       22.970        0.071      344.731       21.758      863.720
10/19/2013  17:18:00       61.966       52.460       54.872       52.337       36.616       24.884     2739.151     1340.695      619.193        0.715        0.235       81.190       16.451        0.041      344.747       21.782      863.721
10/19/2013  17:19:00       53.287       49.541       35.288       46.547       27.582       31.373     2166.605      760.741      984.235        0.522        0.196       72.759       24.674        0.115      344.756       21.799      863.718
10/19/2013  17:20:00       44.675       61.339       52.318       47.498       32.362       31.119     2256.092     1047.287      968.401        0.638        0.214       75.884       29.351        0.150      344.822       21.912      863.719
10/19/2013  17:21:00       56.636       45.300       36.579       31.663       37.213       39.494     1002.535     1384.826     1559.745        0.527        0.197       72.524       34.181        0.222      344.741       21.773      863.722
10/19/2013  17:22:00       21.049       20.769       13.513       22.745       19.436       15.996      517.334      377.752      255.861        0.110        0.058       29.571       12.599        0.182      344.771       21.826      863.718
10/19/2013  17:23:00       90.706       63.337        8.062       39.659       29.528       20.461     1572.804      871.892      418.652        0.758        0.143      110.631        9.767        0.008      344.756       21.800      863.710
10/19/2013  17:24:00       91.731       51.893       12.882       25.736       22.001       15.010      662.348      484.064      225.304        0.632        0.069      105.392        7.280        0.005      344.652       21.620      863.712
10/19/2013  17:25:00       67.384       42.795       27.659       29.722       34.108       21.768      883.427     1163.367      473.842        0.483        0.126       79.825       13.346        0.028      344.624       21.574      863.701
10/19/2013  17:26:00      113.836       45.476       29.526       67.442       39.912       40.437     4548.424     1592.995     1635.157        1.184        0.389      122.583       31.337        0.065      344.574       21.489      863.694
10/19/2013  17:27:00       46.145       32.037       27.334       46.323       37.442       35.485     2145.840     1401.870     1259.151        0.435        0.240       56.176       27.872        0.246      344.586       21.510      863.688
10/19/2013  17:28:00      147.184       92.484       17.888       41.221       33.892       33.067     1699.162     1148.693     1093.416        1.724        0.197      173.829       24.346        0.020      344.587       21.511      863.690
10/19/2013  17:29:00      117.674       80.480        6.405       58.440       31.370       33.995     3415.250      984.054     1155.629        1.296        0.278      142.563       18.272        0.016      344.618       21.564      863.690
10/19/2013  17:30:00       89.562       63.311       14.649       35.334       26.035       21.069     1248.470      677.806      443.904        0.731        0.119      109.680       15.816        0.021      344.480       21.328      863.702
10/19/2013  17:31:00       49.986       43.970       -3.487       43.912       34.962       24.010     1928.227     1222.365      576.458        0.408        0.186       66.573       19.758        0.088      344.528       21.413      863.701
10/19/2013  17:32:00       73.711       50.615       12.827       22.056       22.105       25.693      486.479      488.637      660.141        0.490        0.082       89.415       16.322        0.033      344.597       21.528      863.692
10/19/2013  17:33:00       26.382       42.274        4.632       30.581       24.995       24.490      935.176      624.757      599.750        0.233        0.108       49.831       16.765        0.113      344.610       21.552      863.692
10/19/2013  17:34:00       17.711       70.886       -7.908       39.939       46.248       24.998     1595.107     2138.868      624.894        0.488        0.218       73.065       24.564        0.113      344.595       21.526      863.690
10/19/2013  17:35:00       24.296       66.283       -3.406       29.397       46.350       21.687      864.164     2148.349      470.336        0.424        0.174       70.595       25.479        0.130      344.591       21.518      863.688
10/19/2013  17:36:00       52.085       35.759        4.539       29.235       25.176       20.748      854.669      633.813      430.462        0.297        0.096       63.179       16.872        0.071      344.565       21.475      863.683
10/19/2013  17:37:00       16.637       29.745       -1.085       15.226       17.933       10.331      231.819      321.582      106.732        0.091        0.033       34.082        8.916        0.068      344.539       21.429      863.671
10/19/2013  17:38:00       13.068        6.307       -0.327       11.238        7.803        5.867      126.289       60.892       34.427        0.022        0.011       14.510        4.912        0.115      344.557       21.460      863.668
10/19/2013  17:39:00       24.960        7.894        4.264       16.002        6.904        5.848      256.063       47.668       34.197        0.052        0.017       26.179        4.051        0.024      344.574       21.489      863.669
10/19/2013  17:40:00       16.917        9.957        3.059       20.170       13.527        9.995      406.818      182.985       99.904        0.054        0.034       19.630        5.783        0.087      344.558       21.462      863.665
10/19/2013  17:41:00       19.169       30.474       -2.108       15.514       16.137       12.470      240.687      260.408      155.495        0.098        0.033       36.001       10.444        0.084      344.537       21.427      863.662
10/19/2013  17:42:00       16.789       11.347       -0.066       19.449       23.324       14.334      378.262      544.028      205.462        0.077        0.056       20.264       10.955        0.292      344.537       21.427      863.661
10/19/2013  17:43:00       13.005       10.985        5.916        5.670        6.694        6.786       32.153       44.810       46.055        0.022        0.006       17.023        3.022        0.032      344.595       21.525      863.664
10/19/2013  17:44:00       16.316        8.567        1.171        9.593        4.444        5.578       92.019       19.748       31.114        0.024        0.007       18.428        4.097        0.049      344.630       21.589      863.668
10/19/2013  17:45:00       21.727       13.174        1.644       10.290        8.548        7.278      105.892       73.071       52.976        0.044        0.012       25.409        5.845        0.053      344.628       21.583      863.658
10/19/2013  17:46:00       35.671       15.163        4.755       13.100        6.756        4.507      171.614       45.647       20.309        0.088        0.012       38.760        3.838        0.010      344.668       21.652      863.655
10/19/2013  17:47:00       40.599       12.982        3.498       15.929       12.513       10.527      253.746      156.570      110.821        0.118        0.026       42.624        4.773        0.013      344.678       21.671      863.654
10/19/2013  17:48:00       17.076       -2.124        1.581        7.470        8.060        8.302       55.807       64.958       68.918        0.024        0.009       17.208        4.056        0.056      344.659       21.635      863.647
10/19/2013  17:49:00       20.574        1.012        0.427        8.179        8.642       10.098       66.902       74.677      101.970        0.033        0.012       20.599        6.608        0.103      344.652       21.625      863.651
10/19/2013  17:50:00       23.274        5.347        1.301        5.304        5.595        4.904       28.131       31.305       24.046        0.033        0.004       23.880        2.681        0.013      344.635       21.596      863.653
10/19/2013  17:51:00       29.226        7.810        5.813        6.208        7.594        6.108       38.535       57.663       37.309        0.054        0.007       30.252        4.809        0.025      344.633       21.593      863.652
10/19/2013  17:52:00       17.862       10.436       -4.521       10.683        8.362        4.998      114.122       69.930       24.980        0.033        0.010       20.687        4.216        0.042      344.675       21.660      863.649
10/19/2013  17:53:00        3.870        9.542       -0.723        6.838        8.649        3.948       46.758       74.798       15.590        0.012        0.007       10.297        4.251        0.170      344.615       21.558      863.650
10/19/2013  17:54:00        7.681       23.803       -0.840       12.382        5.906        3.590      153.326       34.882       12.886        0.041        0.010       25.012        4.327        0.030      344.574       21.489      863.649
10/19/2013  17:55:00        2.930       12.429        0.362        4.841        9.062        3.621       23.433       82.114       13.108        0.014        0.006       12.770        3.727        0.085      344.549       21.447      863.655
10/19/2013  17:56:00       -4.621        1.051       -2.180        4.648        3.208        2.364       21.602       10.288        5.588        0.003        0.002        4.739        1.482        0.098      344.474       21.315      863.663
10/19/2013  17:57:00      -27.558       -8.940       -7.307        9.045       11.093        7.032       81.808      123.065       49.447        0.057        0.013       28.972        5.431        0.035      344.273       20.977      863.662
10/19/2013  17:58:00      -38.535       -0.781       -6.089        8.280        7.818        7.353       68.562       61.114       54.063        0.085        0.009       38.543        5.413        0.020      344.153       20.770      863.664
10/19/2013  17:59:00      -36.601       17.624       -8.084        7.171        6.845        5.331       51.429       46.855       28.422        0.092        0.006       40.623        3.215        0.006      344.132       20.733      863.664
10/19/2013  18:00:00       -7.497       40.489       -5.592       16.648       18.000        7.790      277.159      324.003       60.688        0.119        0.033       41.178        6.312        0.023      344.402       21.193      863.671
10/19/2013  18:01:00        3.717       84.091      -14.610       19.727       18.278        9.297      389.151      334.070       86.425        0.405        0.040       84.173        8.109        0.009      344.177       20.810      863.694
10/19/2013  18:02:00       14.602      158.313      -26.442       20.223       34.659       16.234      408.956     1201.280      263.554        1.392        0.094      158.985       14.817        0.009      344.138       20.743      863.711
10/19/2013  18:03:00       33.151      152.505      -27.060       24.866       31.054       22.341      618.311      964.352      499.112        1.359        0.104      156.067       15.219        0.010      344.038       20.573      863.712
10/19/2013  18:04:00      -20.173      153.548      -19.417       20.262       22.762       12.001      410.531      518.119      144.036        1.272        0.054      154.868        8.205        0.003      344.069       20.624      863.716
10/19/2013  18:05:00      -79.363       74.084      -18.455       45.667       46.913       16.513     2085.503     2200.855      272.686        0.834        0.228      108.568       13.913        0.016      343.726       20.041      863.725
10/19/2013  18:06:00     -147.646        1.919      -17.541       52.458       55.175       28.990     2751.839     3044.269      840.414        1.437        0.332      147.659       27.848        0.036      343.202       19.146      863.740
10/19/2013  18:07:00     -176.001       -5.548      -13.612       68.166       42.214       31.475     4646.660     1781.997      990.686        1.930        0.371      176.088       29.388        0.028      343.096       18.966      863.749
10/19/2013  18:08:00     -218.480        8.196      -26.126       55.859       79.168       33.500     3120.272     6267.641     1122.233        2.950        0.526      218.634       23.651        0.012      343.056       18.895      863.756
10/19/2013  18:09:00     -185.660      -12.193      -17.243       49.582       46.963       31.667     2458.382     2205.499     1002.826        2.029        0.283      186.060       26.580        0.020      342.994       18.793      863.772
10/19/2013  18:10:00     -135.494      -29.303      -20.914       39.826       36.837       27.823     1586.075     1356.989      774.109        1.169        0.186      138.626       14.978        0.012      343.052       18.893      863.795
10/19/2013  18:11:00      -97.019      -11.459       -8.437       51.699       36.376       40.657     2672.765     1323.232     1652.995        0.763        0.282       97.694       36.879        0.143      343.042       18.875      863.804
10/19/2013  18:12:00     -121.256       37.404      -19.408       58.054       69.782       36.932     3370.282     4869.527     1363.991        1.304        0.480      126.894       33.465        0.070      343.079       18.938      863.800
10/19/2013  18:13:00     -151.608      -39.286      -19.702       58.112       75.036       45.928     3377.052     5630.461     2109.419        1.801        0.556      156.615       27.864        0.032      342.990       18.786      863.814
10/19/2013  18:14:00     -122.294       -5.260      -10.774       47.226       91.906       45.742     2230.270     8446.629     2092.359        1.393        0.638      122.408       46.888        0.147      342.991       18.787      863.822
10/19/2013  18:15:00     -148.074       25.393      -12.475       73.483       51.924       39.171     5399.722     2696.134     1534.336        1.618        0.482      150.236       29.913        0.040      342.985       18.777      863.821
10/19/2013  18:16:00     -152.461        3.537      -18.424       53.440       57.021       34.692     2855.840     3251.444     1203.565        1.545        0.366      152.502       29.316        0.037      342.984       18.777      863.833
10/19/2013  18:17:00     -143.532        8.480      -13.890       65.482       49.072       26.037     4287.842     2408.080      677.938        1.412        0.369      143.782       28.826        0.040      342.921       18.668      863.841
10/19/2013  18:18:00     -149.088        1.018      -16.763       37.725       43.970       24.838     1423.139     1933.341      616.940        1.324        0.199      149.091       11.896        0.006      342.943       18.708      863.855
10/19/2013  18:19:00      -92.377       17.948      -16.400       55.458       33.982       26.191     3075.552     1154.804      685.966        0.702        0.246       94.104       23.953        0.065      342.937       18.694      863.854
10/19/2013  18:20:00     -123.504        4.899      -26.167       33.760       40.218       26.511     1139.712     1617.455      702.839        0.971        0.173      123.601       19.072        0.024      342.886       18.609      863.854
10/19/2013  18:21:00     -101.567       36.219      -14.489       44.435       56.515       26.871     1974.467     3193.963      722.028        0.886        0.295      107.832       24.295        0.051      342.857       18.561      863.861
10/19/2013  18:22:00      -86.574       24.526       -7.244       34.420       32.996       27.983     1184.735     1088.704      783.069        0.560        0.153       89.981       16.165        0.032      342.841       18.532      863.867
10/19/2013  18:23:00      -46.888       46.403       -9.442       38.469       30.465       24.796     1479.899      928.126      614.863        0.373        0.151       65.968       23.715        0.129      342.733       18.349      863.869
10/19/2013  18:24:00     -140.016       67.009      -27.388       47.831       56.819       33.344     2287.810     3228.342     1111.815        1.574        0.331      155.224       21.909        0.020      342.896       18.627      863.891
10/19/2013  18:25:00     -117.026      155.441      -25.446       54.305       60.780       33.886     2949.080     3694.261     1148.273        2.315        0.390      194.569       29.787        0.023      342.855       18.555      863.905
10/19/2013  18:26:00      -90.180      201.273      -22.674       48.017       80.165       41.774     2305.666     6426.359     1745.062        2.982        0.524      220.552       34.774        0.025      342.877       18.591      863.909
10/19/2013  18:27:00     -138.828      152.647      -31.716       55.922       76.322       38.731     3127.313     5824.981     1500.107        2.701        0.523      206.335       38.226        0.034      342.926       18.675      863.923
10/19/2013  18:28:00     -146.849      137.281      -29.012       62.754       69.873       43.187     3938.093     4882.288     1865.080        2.597        0.534      201.024       32.651        0.026      342.907       18.644      863.930
10/19/2013  18:29:00     -155.952      198.649      -25.687       77.496       89.365       50.553     6005.564     7986.014     2555.628        4.049        0.827      252.552       48.068        0.036      342.884       18.601      863.932
10/19/2013  18:30:00     -143.776      198.166      -34.234       66.324       79.486       47.939     4398.920     6317.964     2298.166        3.706        0.651      244.829       43.573        0.032      342.915       18.655      863.937
10/19/2013  18:31:00     -138.570      152.284      -18.474       57.387       65.736       45.403     3293.278     4321.279     2061.473        2.620        0.484      205.893       34.618        0.028      342.881       18.598      863.943
10/19/2013  18:32:00     -109.044      165.023      -22.564       49.981       53.012       30.731     2498.088     2810.277      944.421        2.294        0.313      197.796       21.242        0.012      342.877       18.592      863.951
10/19/2013  18:33:00     -158.555      163.808      -22.834       63.496      105.808       45.708     4031.725    11195.305     2089.199        3.490        0.866      227.976       51.010        0.050      342.880       18.597      863.956
10/19/2013  18:34:00     -143.101      106.404      -22.356       75.112       75.142       42.521     5641.865     5646.314     1808.009        2.270        0.655      178.325       51.027        0.082      342.888       18.611      863.966
10/19/2013  18:35:00      -91.588       93.644       -8.302       80.161       68.586       36.519     6425.801     4704.015     1333.665        1.484        0.623      130.987       29.032        0.049      342.868       18.580      863.981
10/19/2013  18:36:00      -97.016      135.330      -13.075       61.360       84.055       40.068     3765.034     7065.222     1605.405        2.016        0.622      166.512       40.591        0.059      342.835       18.522      864.003
10/19/2013  18:37:00     -156.709      175.384      -31.947       74.690       80.093       44.882     5578.580     6414.963     2014.363        3.517        0.700      235.196       43.168        0.034      342.799       18.457      864.010
10/19/2013  18:38:00     -165.362      139.130      -33.182       66.582       72.544       40.993     4433.186     5262.692     1680.464        2.959        0.569      216.106       38.226        0.031      342.822       18.498      864.016
10/19/2013  18:39:00     -151.443      199.022      -34.555       60.107       88.665       37.574     3612.909     7861.479     1411.809        3.831        0.644      250.089       32.899        0.017      342.840       18.528      864.018
10/19/2013  18:40:00     -151.309      146.566      -29.548       50.067       61.691       31.993     2506.711     3805.751     1023.582        2.629        0.367      210.656       27.194        0.017      342.843       18.533      864.030
10/19/2013  18:41:00     -119.122      173.582      -19.528       61.978       73.751       37.503     3841.222     5439.236     1406.511        2.769        0.534      210.525       35.434        0.028      342.806       18.469      864.036
10/19/2013  18:42:00     -121.847      104.249      -19.595       58.342       64.990       41.337     3403.756     4223.667     1708.781        1.772        0.467      160.358       41.649        0.067      342.742       18.364      864.039
10/19/2013  18:43:00     -124.119      133.660      -26.585       62.693       71.941       31.842     3930.453     5175.542     1013.883        2.205        0.506      182.402       37.895        0.043      342.765       18.403      864.050
10/19/2013  18:44:00     -103.888      160.461      -31.902       50.233       53.797       27.395     2523.316     2894.109      750.509        2.186        0.308      191.156       22.174        0.013      342.794       18.452      864.058
10/19/2013  18:45:00     -115.620      153.041      -31.559       53.210       76.317       34.392     2831.295     5824.265     1182.816        2.381        0.492      191.806       35.308        0.034      342.781       18.429      864.059
10/19/2013  18:46:00     -110.782       98.450      -22.883       38.874       43.575       23.391     1511.198     1898.748      547.158        1.322        0.198      148.206       18.226        0.015      342.789       18.444      864.058
10/19/2013  18:47:00      -91.901      164.999      -26.085       62.735       86.039       36.908     3935.697     7402.755     1362.177        2.452        0.635      188.866       36.082        0.036      342.865       18.574      864.062
10/19/2013  18:48:00     -114.279      115.420      -23.330       58.785       56.731       32.831     3455.700     3218.441     1077.905        1.734        0.388      162.424       34.234        0.044      342.844       18.537      864.071
10/19/2013  18:49:00     -100.533      164.562      -21.791       82.714       76.400       40.028     6841.544     5837.017     1602.216        2.597        0.714      192.840       36.812        0.036      342.846       18.539      864.077
10/19/2013  18:50:00     -153.811      147.506      -33.393       70.341       73.025       41.025     4947.842     5332.646     1683.086        2.925        0.598      213.110       42.100        0.039      342.937       18.696      864.083
10/19/2013  18:51:00     -143.131      149.118      -40.367       54.030       60.168       34.560     2919.269     3620.162     1194.381        2.604        0.387      206.695       36.923        0.032      342.981       18.768      864.091
10/19/2013  18:52:00     -143.492      136.926      -26.157       53.516       58.492       31.973     2863.992     3421.337     1022.301        2.366        0.365      198.340       29.870        0.023      342.907       18.642      864.084
10/19/2013  18:53:00     -157.794      138.791      -25.202       60.966       79.668       47.298     3716.905     6346.993     2237.104        2.855        0.615      210.148       42.689        0.041      342.950       18.714      864.092
10/19/2013  18:54:00     -142.511      129.810      -23.204       68.626       86.962       47.403     4709.521     7562.410     2247.069        2.611        0.726      192.769       44.742        0.054      342.945       18.706      864.097
10/19/2013  18:55:00     -115.887       72.916       -3.787       36.855       46.426       29.611     1358.276     2155.411      876.833        1.158        0.220      136.919       17.327        0.016      342.813       18.485      864.107
10/19/2013  18:56:00     -164.374      142.811      -42.642       59.267       63.746       37.569     3512.538     4063.568     1411.413        2.911        0.449      217.747       40.562        0.035      342.925       18.673      864.112
10/19/2013  18:57:00     -117.214      127.757      -19.888       63.383       59.990       36.190     4017.460     3598.754     1309.725        1.969        0.446      173.381       34.625        0.040      342.863       18.569      864.120
10/19/2013  18:58:00      -95.014      100.439      -18.779       64.275       53.626       37.251     4131.332     2875.731     1387.669        1.393        0.420      138.260       35.643        0.066      342.783       18.434      864.119
10/19/2013  18:59:00      -87.953      110.514      -13.927       45.328       53.407       33.132     2054.641     2852.344     1097.734        1.307        0.300      141.241       25.384        0.032      342.848       18.544      864.119
10/19/2013  19:00:00      -84.170      126.332      -22.954       36.804       50.063       24.656     1354.533     2506.314      607.901        1.402        0.223      151.804       17.990        0.014      342.824       18.504      864.126
10/19/2013  19:01:00      -60.428      123.957      -13.951       72.519       66.223       39.606     5258.992     4385.480     1568.641        1.521        0.561      137.902       46.682        0.115      342.771       18.414      864.137
10/19/2013  19:02:00      -18.858      130.121      -19.178       25.013       37.719       23.834      625.673     1422.708      568.083        1.014        0.131      131.480       20.038        0.023      342.792       18.449      864.146
10/19/2013  19:03:00       -8.534      135.180      -17.148       27.699       25.386       17.596      767.214      644.453      309.611        1.018        0.086      135.450       11.527        0.007      342.793       18.452      864.153
10/19/2013  19:04:00       22.670       76.906       -9.425       42.702       57.384       25.273     1823.485     3292.904      638.722        0.614        0.288       80.177       25.746        0.103      342.657       18.219      864.151
10/19/2013  19:05:00       59.494       45.087        4.090       39.743       23.740       21.322     1579.532      563.584      454.610        0.409        0.130       74.648       13.029        0.030      342.517       17.982      864.167
10/19/2013  19:06:00       44.686       41.502       -8.400       44.833       24.617       17.108     2010.023      605.974      292.687        0.335        0.145       60.985        9.821        0.026      342.400       17.783      864.172
10/19/2013  19:07:00       11.706       54.862       15.947       51.498       56.387       36.679     2652.058     3179.522     1345.321        0.529        0.359       56.097       24.311        0.188      342.310       17.629      864.181
10/19/2013  19:08:00        9.627      128.522      -10.984       49.061       78.799       36.272     2407.030     6209.232     1315.690        1.333        0.497      128.882       45.824        0.126      342.501       17.954      864.191
10/19/2013  19:09:00       30.303      107.073       -9.294       35.055       40.207       29.568     1228.860     1616.621      874.261        0.809        0.186      111.279       25.360        0.052      342.388       17.763      864.200
10/19/2013  19:10:00       26.930       53.159       -4.677       32.227       38.409       23.385     1038.555     1475.246      546.859        0.332        0.153       59.591       24.846        0.174      342.252       17.533      864.212
10/19/2013  19:11:00       73.239       56.043       -2.202       33.799       25.470       21.202     1142.360      648.744      449.536        0.537        0.112       92.221       15.731        0.029      342.263       17.550      864.219
10/19/2013  19:12:00       47.626       42.089       15.415       37.169       21.252       25.543     1381.513      451.644      652.458        0.338        0.124       63.558       16.646        0.069      342.178       17.405      864.227
10/19/2013  19:13:00       94.357       51.921       -6.245       27.990       22.844       21.416      783.456      521.860      458.635        0.670        0.088      107.698       12.177        0.013      342.246       17.520      864.234
10/19/2013  19:14:00       65.691       56.201        3.597       31.854       26.164       27.509     1014.674      684.577      756.749        0.497        0.123       86.452       19.498        0.051      342.143       17.346      864.256
10/19/2013  19:15:00       39.519       49.369        9.380       31.291       30.526       26.191      979.128      931.862      685.979        0.334        0.130       63.238       22.318        0.125      342.122       17.310      864.266
10/19/2013  19:16:00       29.164       66.331       -7.809       20.402       28.382       17.542      416.227      805.546      307.728        0.342        0.076       72.459       19.201        0.070      342.164       17.381      864.274
10/19/2013  19:17:00       26.668       38.617        0.184       22.572       26.325       15.593      509.492      693.031      243.148        0.182        0.072       46.931       16.358        0.121      342.055       17.197      864.281
10/19/2013  19:18:00       38.209       39.032       -6.803       26.506       25.405       15.416      702.549      645.421      237.645        0.231        0.079       54.621        7.287        0.018      342.028       17.151      864.283
10/19/2013  19:19:00       55.399       52.499        5.345       31.561       31.345       33.920      996.073      982.504     1150.560        0.449        0.156       76.323       23.124        0.092      342.135       17.332      864.286
10/19/2013  19:20:00       -4.103       53.855       11.538       33.851       44.808       26.997     1145.862     2007.735      728.845        0.347        0.194       54.011       25.957        0.231      341.985       17.079      864.281
10/19/2013  19:21:00      -27.957      143.291      -14.639       34.543       53.383       24.196     1193.240     2849.724      585.441        1.308        0.231      145.992       26.345        0.033      342.157       17.370      864.285
10/19/2013  19:22:00      -20.693      114.972      -14.574       36.754       30.904       18.502     1350.876      955.055      342.313        0.825        0.132      116.819       17.387        0.022      342.140       17.341      864.272
10/19/2013  19:23:00       -6.016      178.451      -32.667       31.780       45.627       22.485     1009.995     2081.838      505.597        1.827        0.180      178.552       22.130        0.015      342.176       17.401      864.279
10/19/2013  19:24:00       -1.624      161.553      -20.238       40.110       44.869       27.833     1608.819     2013.256      774.651        1.545        0.220      161.561       20.845        0.017      342.050       17.188      864.288
10/19/2013  19:25:00       -8.302      136.755      -12.883       26.409       37.200       21.446      697.417     1383.847      459.944        1.074        0.127      137.007       14.983        0.012      342.036       17.165      864.296
10/19/2013  19:26:00        3.645      106.117      -15.441       34.168       37.891       22.087     1167.473     1435.743      487.850        0.730        0.155      106.180       22.153        0.044      341.969       17.052      864.300
10/19/2013  19:27:00        0.510      129.390      -20.759       22.597       24.680       14.659      510.621      609.095      214.878        0.925        0.067      129.391       11.652        0.008      342.051       17.190      864.317
10/19/2013  19:28:00       -9.323      123.838      -20.399       29.726       39.399       19.337      883.661     1552.277      373.909        0.932        0.140      124.188       20.736        0.028      342.060       17.204      864.317
10/19/2013  19:29:00        4.234      118.393      -18.302       24.005       27.954       12.576      576.252      781.423      158.168        0.794        0.076      118.469       10.227        0.007      341.968       17.050      864.329
10/19/2013  19:30:00      -20.699      122.668      -21.636       19.431       28.075       19.685      377.554      788.192      387.512        0.875        0.078      124.402       18.915        0.023      342.038       17.169      864.340
10/19/2013  19:31:00       -7.327      156.064      -21.949       32.042       32.351       15.330     1026.658     1046.612      235.010        1.360        0.115      156.236       14.061        0.008      342.035       17.162      864.345
10/19/2013  19:32:00      -14.409      103.369      -15.358       24.315       21.841       13.728      591.242      477.048      188.444        0.619        0.063      104.368       12.332        0.014      341.989       17.086      864.356
10/19/2013  19:33:00       -7.788       74.028      -13.242       22.133       30.112       13.700      489.860      906.751      187.689        0.365        0.079       74.437       14.772        0.039      341.996       17.097      864.383
10/19/2013  19:34:00      -32.696        8.962       -3.464        9.927       13.820        6.810       98.552      190.992       46.381        0.075        0.017       33.902        3.897        0.013      342.026       17.147      864.399
10/19/2013  19:35:00      -24.600      -14.650       -0.040       15.180       12.606       11.308      230.421      158.917      127.865        0.067        0.026       28.632        9.566        0.112      341.934       16.992      864.417
10/19/2013  19:36:00      -32.495      -24.171        4.312       24.931       25.042       12.938      621.568      627.104      167.394        0.154        0.071       40.499        8.807        0.047      341.887       16.912      864.438
10/19/2013  19:37:00      -25.487      -29.710       16.113       32.663       29.119       17.857     1066.864      847.910      318.886        0.201        0.112       39.145       17.632        0.203      341.715       16.620      864.456
10/19/2013  19:38:00     -116.651      -64.218        0.989       45.044       33.924       22.765     2028.933     1150.807      518.246        1.071        0.185      133.160       22.150        0.028      341.733       16.652      864.480
10/19/2013  19:39:00     -123.780      -12.300      -18.407       37.951       18.572       18.588     1440.296      344.927      345.510        0.897        0.107      124.390       19.356        0.024      341.858       16.862      864.503
10/19/2013  19:40:00      -71.136       82.654      -19.370       40.235       70.126       24.133     1618.831     4917.590      582.396        0.969        0.356      109.051       27.818        0.065      341.945       17.012      864.524
10/19/2013  19:41:00      -36.457      168.935      -25.168       24.550       48.736       21.061      602.715     2375.161      443.574        1.696        0.171      172.824       17.495        0.010      342.031       17.153      864.525
10/19/2013  19:42:00      -10.065      187.140      -21.466       37.180       31.861       22.231     1382.330     1015.094      494.211        1.924        0.145      187.411       14.782        0.006      341.969       17.051      864.523
10/19/2013  19:43:00      -29.159      243.521      -25.324       42.894       79.049       30.879     1839.906     6248.668      953.531        3.492        0.452      245.261       31.703        0.017      342.080       17.236      864.520
10/19/2013  19:44:00      -43.362      160.280      -18.188       26.433       50.410       17.910      698.730     2541.177      320.760        1.573        0.178      166.042       15.281        0.008      342.120       17.307      864.534
10/19/2013  19:45:00      -86.849       74.373      -19.121       34.901       38.798       21.522     1218.086     1505.252      463.208        0.831        0.159      114.342       18.047        0.025      341.943       17.007      864.540
10/19/2013  19:46:00      -51.085       27.816      -13.142       27.670       24.824       16.350      765.626      616.223      267.317        0.260        0.082       58.167       14.059        0.058      341.895       16.926      864.555
10/19/2013  19:47:00      -15.062       43.607        1.034       38.303       36.266       17.537     1467.089     1315.230      307.546        0.261        0.154       46.135       16.172        0.123      341.825       16.807      864.569
10/19/2013  19:48:00       15.207       82.523       -7.472       15.914       35.112       18.014      253.258     1232.825      324.521        0.445        0.091       83.913       18.499        0.049      341.792       16.751      864.572
10/19/2013  19:49:00       33.826       57.975       -3.941       21.274       29.457       18.003      452.574      867.702      324.107        0.308        0.082       67.122       15.118        0.051      341.609       16.441      864.563
10/19/2013  19:50:00       31.895       23.535       -1.299       26.033       32.940       17.979      677.697     1085.018      323.236        0.183        0.104       39.638       20.287        0.262      341.607       16.436      864.566
10/19/2013  19:51:00       20.897        8.875        0.684       12.972       17.644       13.421      168.279      311.298      180.124        0.059        0.033       22.703        9.593        0.179      341.483       16.228      864.578
10/19/2013  19:52:00        6.911       -2.524        3.029       12.776       15.020       14.437      163.222      225.594      208.416        0.033        0.030        7.357       11.240        2.334      341.488       16.234      864.591
10/19/2013  19:53:00       10.841      -10.505        0.241       12.667       11.421        6.951      160.454      130.441       48.312        0.028        0.017       15.096        6.585        0.190      341.560       16.357      864.589
10/19/2013  19:54:00       26.068       13.275        0.886       15.133       10.298        7.407      228.993      106.043       54.869        0.062        0.019       29.254        3.210        0.012      341.598       16.421      864.582
10/19/2013  19:55:00       33.055       12.316        3.457        8.639        8.282        7.402       74.628       68.589       54.790        0.073        0.010       35.275        5.036        0.020      341.504       16.260      864.568
10/19/2013  19:56:00       35.203       -2.703       -0.172       14.272       13.213        8.220      203.689      174.580       67.569        0.085        0.022       35.307        8.060        0.052      341.464       16.195      864.560
10/19/2013  19:57:00       -5.654        4.283       -2.026       11.863       12.502        9.087      140.727      156.291       82.576        0.022        0.019        7.093        6.829        0.927      341.403       16.091      864.557
10/19/2013  19:58:00        7.252       24.539       -8.720       18.195       14.058        7.203      331.069      197.631       51.884        0.066        0.029       25.588       10.327        0.163      341.431       16.139      864.556
10/19/2013  19:59:00      -26.758        6.539       -8.171       20.938       18.896        8.030      438.380      357.049       64.484        0.084        0.043       27.546        9.318        0.114      341.536       16.315      864.567
10/19/2013  20:00:00      -47.685        4.782       -9.456       21.381       10.774       10.866      457.142      116.089      118.074        0.154        0.035       47.925        6.231        0.017      341.387       16.064      864.577
10/19/2013  20:01:00      -74.172       22.699      -15.632       10.068       15.831       10.503      101.368      250.629      110.309        0.336        0.023       77.568        3.485        0.002      341.451       16.172      864.585
10/19/2013  20:02:00      -73.446       83.989      -19.935       16.285       25.426       12.378      265.195      646.487      153.215        0.696        0.053      111.573        9.117        0.007      341.559       16.357      864.601
10/19/2013  20:03:00      -33.932      110.719      -14.227       18.720       12.257        9.289      350.421      150.230       86.283        0.710        0.029      115.802        4.947        0.002      341.728       16.642      864.598
10/19/2013  20:04:00      -25.386      121.116      -15.930       17.314       20.080        9.832      299.765      403.202       96.669        0.818        0.040      123.747        6.871        0.003      341.731       16.647      864.616
10/19/2013  20:05:00      -71.762       44.157      -14.676       16.634       25.212       11.194      276.675      635.620      125.299        0.418        0.052       84.260       10.966        0.017      341.598       16.422      864.612
10/19/2013  20:06:00      -74.548      -20.641      -13.778       11.439       11.464       10.593      130.858      131.432      112.213        0.327        0.019       77.353        7.756        0.010      341.179       15.711      864.619
10/19/2013  20:07:00      -67.267       -9.623      -14.404       10.984       15.655        7.845      120.646      245.089       61.543        0.263        0.021       67.952        6.228        0.008      341.117       15.609      864.619
10/19/2013  20:08:00      -49.447       59.614      -16.020       16.450       45.062       14.128      270.617     2030.596      199.590        0.438        0.125       77.452       21.176        0.075      341.540       16.324      864.621
10/19/2013  20:09:00      -40.071       87.178      -15.740       24.874       21.739       11.554      618.712      472.579      133.503        0.534        0.061       95.946        8.311        0.008      341.782       16.736      864.633
10/19/2013  20:10:00      -62.300       62.585       -9.238       24.221       41.829       17.432      586.638     1749.638      303.863        0.526        0.132       88.307       25.044        0.080      341.703       16.600      864.625
10/19/2013  20:11:00      -74.482      -25.661      -11.606       24.874       17.105       17.717      618.695      292.568      313.907        0.378        0.061       78.779       18.148        0.053      340.962       15.345      864.642
10/19/2013  20:12:00     -104.075      -10.561      -18.515       16.272       17.298        8.551      264.767      299.223       73.121        0.596        0.032      104.609        7.675        0.005      340.772       15.024      864.644
10/19/2013  20:13:00      -51.581       10.056      -10.695       12.702       16.782        7.854      161.329      281.643       61.679        0.169        0.025       52.552        6.458        0.015      341.479       16.220      864.642
10/19/2013  20:14:00      -45.630       56.610      -12.945       13.645       17.331       11.401      186.189      300.349      129.979        0.304        0.031       72.710        8.970        0.015      341.749       16.678      864.651
10/19/2013  20:15:00      -68.223      -14.103       -8.365       25.881       32.446       10.790      669.828     1052.722      116.416        0.338        0.092       69.665       13.356        0.037      341.019       15.441      864.651
10/19/2013  20:16:00     -108.814      -25.197      -17.840       12.736       13.456        9.288      162.207      181.070       86.265        0.661        0.021      111.693        3.475        0.001      340.555       14.655      864.660
10/19/2013  20:17:00     -123.304      -49.248      -25.746       37.780       28.973       19.587     1427.357      839.416      383.659        1.047        0.133      132.776       14.623        0.012      340.455       14.488      864.659
10/19/2013  20:18:00     -158.719      -45.922      -25.162       33.718       27.302       18.392     1136.893      745.388      338.272        1.508        0.111      165.228        6.585        0.002      340.278       14.187      864.667
10/19/2013  20:19:00     -127.873      -46.283      -13.478       22.960       22.259       15.202      527.157      495.471      231.116        0.996        0.063      135.991       11.938        0.008      340.263       14.162      864.658
10/19/2013  20:20:00     -115.587      -21.415      -12.617       52.279       34.786       30.302     2733.099     1210.036      918.209        0.942        0.243      117.554       29.780        0.064      340.183       14.027      864.668
10/19/2013  20:21:00     -164.087      -52.892      -17.388       37.108       45.959       27.952     1377.039     2112.189      781.302        1.715        0.214      172.401       20.726        0.014      340.174       14.012      864.668
10/19/2013  20:22:00     -145.440      -18.540       -9.429       54.825       35.208       25.586     3005.831     1239.619      654.634        1.324        0.245      146.617       25.260        0.030      340.152       13.974      864.666
10/19/2013  20:23:00     -132.608      -29.253      -10.691       39.279       31.647       20.545     1542.838     1001.505      422.086        1.076        0.148      135.796       22.402        0.027      340.113       13.909      864.665
10/19/2013  20:24:00     -102.040      -34.139       -3.407       31.824       26.636       16.783     1012.787      709.494      281.670        0.680        0.100      107.600       14.994        0.019      340.132       13.941      864.651
10/19/2013  20:25:00     -140.729      -33.218       -9.752       29.708       31.442       16.870      882.594      988.627      284.593        1.158        0.108      144.596       11.508        0.006      340.166       13.999      864.649
10/19/2013  20:26:00     -155.614      -42.919      -15.990       34.490       35.369       22.182     1189.534     1250.953      492.045        1.462        0.147      161.424       17.684        0.012      340.099       13.886      864.643
10/19/2013  20:27:00     -165.640      -19.964      -11.233       43.249       31.900       22.113     1870.465     1017.589      488.970        1.567        0.169      166.838       22.593        0.018      339.963       13.657      864.653
10/19/2013  20:28:00     -163.946      -33.696       -4.697       49.915       28.999       22.298     2491.496      840.917      497.223        1.593        0.191      167.373       26.069        0.024      340.091       13.872      864.654
10/19/2013  20:29:00     -176.946      -30.598      -12.803       47.147       31.822       21.144     2222.796     1012.640      447.062        1.805        0.184      179.572       20.696        0.013      340.045       13.795      864.660
10/19/2013  20:30:00     -160.727      -59.597      -12.081       20.716       19.579       14.007      429.133      383.331      196.191        1.527        0.050      171.420        9.368        0.003      340.009       13.735      864.676
10/19/2013  20:31:00     -106.572      -33.518       -6.003       29.097       28.874       21.343      846.610      833.732      455.540        0.733        0.107      111.719       14.163        0.016      340.202       14.059      864.685
10/19/2013  20:32:00      -80.739      -15.605       -8.207       30.968       18.050       10.742      959.017      325.796      115.389        0.411        0.070       82.234       13.367        0.026      340.357       14.320      864.691
10/19/2013  20:33:00     -192.182      -96.445       -6.115       45.966       22.673       17.956     2112.858      514.049      322.401        2.461        0.147      215.025       17.416        0.007      340.075       13.843      864.708
10/19/2013  20:34:00     -127.165      -15.753       -3.449       42.927       21.169       22.745     1842.745      448.121      517.336        0.962        0.140      128.137       23.750        0.034      340.093       13.875      864.738
10/19/2013  20:35:00     -130.979      -24.825      -14.087       27.623       20.321       16.315      763.056      412.956      266.172        0.971        0.072      133.310       14.603        0.012      340.147       13.967      864.733
10/19/2013  20:36:00      -92.673      -20.767       -4.682       44.061       21.848       17.518     1941.356      477.317      306.890        0.588        0.136       94.971       20.020        0.044      340.124       13.928      864.742
10/19/2013  20:37:00     -159.857      -90.528       -9.543       39.502       26.550       17.671     1560.381      704.911      312.278        1.821        0.129      183.711       13.579        0.005      340.062       13.824      864.744
10/19/2013  20:38:00     -151.135      -42.892      -10.071       30.450       29.331       19.925      927.220      860.321      397.010        1.348        0.109      157.103       12.483        0.006      339.961       13.653      864.752
10/19/2013  20:39:00      -95.561       -1.956      -11.245       44.767       21.747       19.657     2004.082      472.940      386.401        0.606        0.143       95.581       23.572        0.061      339.856       13.477      864.747
10/19/2013  20:40:00      -93.236       -5.181       -3.246       34.574       25.530       18.875     1195.377      651.758      356.255        0.547        0.110       93.379       14.857        0.025      340.043       13.791      864.743
10/19/2013  20:41:00     -102.200      -20.095       -8.353       27.251       25.875       17.340      742.593      669.513      300.690        0.632        0.086      104.157       15.103        0.021      340.016       13.746      864.748
10/19/2013  20:42:00     -120.316      -58.444      -11.303       20.237       21.998       14.959      409.537      483.928      223.771        0.957        0.056      133.760       11.824        0.008      340.054       13.810      864.747
10/19/2013  20:43:00     -116.912      -41.454       -6.513       28.130       23.115       18.508      791.276      534.317      342.549        0.855        0.083      124.044       17.487        0.020      339.967       13.663      864.760
10/19/2013  20:44:00     -125.708      -45.580      -13.618       15.444       12.837       14.356      238.506      164.777      206.098        0.934        0.030      133.716        6.657        0.002      339.983       13.691      864.765
10/19/2013  20:45:00     -142.420      -48.282      -13.357       25.990       19.471       14.496      675.498      379.128      210.145        1.203        0.063      150.381       14.659        0.010      339.903       13.556      864.773
10/19/2013  20:46:00     -145.801      -37.404      -12.902       16.554       26.511       13.051      274.043      702.820      170.329        1.199        0.057      150.522        9.166        0.004      340.007       13.730      864.777
10/19/2013  20:47:00     -110.697      -48.006       -2.059       34.285       31.445       20.358     1175.429      988.812      414.461        0.857        0.129      120.658       16.735        0.019      339.886       13.526      864.775
10/19/2013  20:48:00     -107.383      -41.524       -6.162       35.276       24.325       15.783     1244.421      591.685      249.119        0.769        0.104      115.132       13.538        0.014      339.923       13.589      864.776
10/19/2013  20:49:00     -124.953      -58.829        2.200       35.485       42.768       24.669     1259.203     1829.081      608.562        1.139        0.185      138.109       21.122        0.023      339.914       13.575      864.777
10/19/2013  20:50:00     -109.656      -48.970       -2.284       36.744       45.461       18.412     1350.131     2066.668      339.015        0.909        0.188      120.094       11.632        0.009      339.906       13.561      864.785
10/19/2013  20:51:00     -126.878      -43.313        3.620       30.999       27.450       19.251      960.964      753.508      370.585        1.004        0.104      134.067       16.879        0.016      339.789       13.364      864.785
10/19/2013  20:52:00      -91.379      -49.596        2.508       57.434       30.749       19.470     3298.663      945.506      379.100        0.772        0.231      103.971       18.823        0.033      339.875       13.509      864.794
10/19/2013  20:53:00      -98.295      -39.219        3.582       39.578       26.756       17.874     1566.397      715.863      319.473        0.691        0.130      105.830       18.132        0.029      339.813       13.403      864.788
10/19/2013  20:54:00      -73.213      -40.040        5.129       46.339       28.647       18.914     2147.334      820.658      357.742        0.516        0.166       83.447       19.042        0.052      339.766       13.325      864.783
10/19/2013  20:55:00     -128.223      -65.045        0.672       44.270       31.989       23.219     1959.861     1023.271      539.143        1.210        0.176      143.778       24.333        0.029      339.894       13.538      864.779
10/19/2013  20:56:00     -147.973      -49.322       -2.170       47.512       27.395       22.827     2257.412      750.465      521.075        1.393        0.176      155.977       25.952        0.028      339.942       13.620      864.776
10/19/2013  20:57:00     -144.563      -63.770       -0.054       40.989       36.709       20.342     1680.075     1347.528      413.817        1.420        0.172      158.003       21.664        0.019      339.968       13.664      864.774
10/19/2013  20:58:00     -104.854      -45.164        8.296       48.735       37.826       23.457     2375.107     1430.779      550.209        0.873        0.218      114.167       20.498        0.032      339.986       13.694      864.776
10/19/2013  20:59:00     -100.764      -41.906        3.625       48.915       30.867       22.490     2392.691      952.784      505.807        0.789        0.193      109.130       19.515        0.032      340.059       13.819      864.776
10/19/2013  21:00:00      -70.372      -47.360        4.467       62.980       32.216       25.598     3966.455     1037.863      655.236        0.644        0.283       84.825       27.634        0.106      339.994       13.707      864.791
10/19/2013  21:01:00     -100.413      -66.694        1.349       56.128       32.662       25.679     3150.346     1066.829      659.411        0.970        0.244      120.544       26.036        0.047      340.098       13.883      864.791
10/19/2013  21:02:00     -147.700      -83.549       -6.748       50.491       40.207       29.698     2549.368     1616.565      881.951        1.694        0.252      169.693       21.651        0.016      340.282       14.195      864.804
10/19/2013  21:03:00     -103.164      -72.229        3.242       41.161       43.309       26.079     1694.214     1875.663      680.119        1.006        0.212      125.936       26.944        0.046      340.126       13.930      864.809
10/19/2013  21:04:00     -125.860      -72.844       -1.397       32.174       25.284       16.793     1035.176      639.261      282.021        1.155        0.098      145.420       16.049        0.012      340.112       13.907      864.827
10/19/2013  21:05:00     -108.117      -59.229        2.286       36.090       41.441       23.091     1302.499     1717.344      533.205        0.938        0.178      123.277       20.636        0.028      340.048       13.799      864.844
10/19/2013  21:06:00     -122.858      -47.680       -1.215       46.724       44.236       23.601     2183.153     1956.821      556.995        1.103        0.235      131.786       21.032        0.025      340.019       13.752      864.846
10/19/2013  21:07:00     -101.276      -36.922        5.727       45.949       43.587       25.688     2111.311     1899.807      659.875        0.816        0.234      107.797       20.136        0.035      340.036       13.780      864.848
10/19/2013  21:08:00     -115.562      -30.146        5.457       52.699       43.910       30.148     2777.152     1928.094      908.900        0.995        0.281      119.429       27.427        0.053      339.961       13.654      864.846
10/19/2013  21:09:00      -26.736      -34.928       18.217       40.884       37.142       22.871     1671.491     1379.525      523.065        0.292        0.179       43.986       18.980        0.186      339.868       13.496      864.845
10/19/2013  21:10:00      -15.513      -15.882        2.592       15.363       21.950       11.449      236.016      481.824      131.081        0.067        0.042       22.201        9.933        0.200      339.891       13.534      864.852
10/19/2013  21:11:00      -35.398      -13.162       -2.078       24.348       15.673       15.354      592.834      245.640      235.735        0.125        0.054       37.766       12.283        0.106      340.026       13.764      864.858
10/19/2013  21:12:00      -25.428       -9.437        3.220       13.893       10.188        7.282      193.028      103.792       53.024        0.055        0.017       27.123        5.382        0.039      339.994       13.708      864.861
10/19/2013  21:13:00      -39.672      -15.776        2.852       35.369       12.300        9.728     1250.995      151.294       94.644        0.166        0.075       42.693       15.797        0.137      339.934       13.609      864.852
10/19/2013  21:14:00      -64.359      -20.875       -2.958       16.438       10.483       10.350      270.192      109.901      107.121        0.254        0.024       67.660        9.953        0.022      339.912       13.570      864.855
10/19/2013  21:15:00      -32.324      -16.870        4.620       20.251       11.851        6.972      410.122      140.449       48.615        0.097        0.030       36.462        6.587        0.033      339.784       13.355      864.841
10/19/2013  21:16:00      -20.819      -35.273        3.830       18.478       20.524       13.279      341.420      421.236      176.321        0.132        0.047       40.959       12.762        0.097      339.742       13.285      864.850
10/19/2013  21:17:00      -20.435      -29.937        8.498       28.483       21.146       19.795      811.277      447.174      391.851        0.152        0.083       36.247       18.957        0.274      339.635       13.104      864.847
10/19/2013  21:18:00      -27.374      -43.507        4.446       39.811       32.415       25.096     1584.897     1050.709      629.804        0.296        0.163       51.402       27.232        0.281      339.547       12.955      864.860
10/19/2013  21:19:00      -53.243      -40.822        2.926       33.611       26.858       14.211     1129.699      721.341      201.948        0.328        0.103       67.092       15.636        0.054      339.561       12.977      864.882
10/19/2013  21:20:00      -35.861      -34.237        1.383       35.990       18.284       13.386     1295.256      334.291      179.190        0.213        0.090       49.580       15.260        0.095      339.618       13.073      864.896
10/19/2013  21:21:00      -36.339      -28.213        1.276       34.941       23.407       14.790     1220.896      547.894      218.752        0.205        0.099       46.006       10.047        0.048      339.666       13.156      864.924
10/19/2013  21:22:00      -32.320      -41.762        3.477       24.607       14.709       14.071      605.519      216.342      197.994        0.191        0.051       52.808       13.542        0.066      339.540       12.944      864.951
10/19/2013  21:23:00      -58.331      -22.560       -1.339       16.101       26.599       13.136      259.246      707.495      172.556        0.253        0.057       62.541       13.157        0.044      339.486       12.851      864.961
10/19/2013  21:24:00      -76.779      -10.391       -3.687       31.588       17.915       16.113      997.795      320.942      259.629        0.380        0.079       77.479       14.892        0.037      339.430       12.757      864.983
10/19/2013  21:25:00     -121.862       -5.008       -8.175       20.070       20.423       13.530      402.824      417.082      183.058        0.797        0.050      121.965       10.670        0.008      339.352       12.625      864.987
10/19/2013  21:26:00     -104.149      -36.620       -4.901       22.053       23.477       14.085      486.343      551.183      198.401        0.672        0.062      110.399       10.330        0.009      339.183       12.343      865.004
10/19/2013  21:27:00     -107.582       -7.805       -8.169       36.821       28.993       18.670     1355.783      840.572      348.552        0.712        0.127      107.865       18.927        0.031      339.061       12.136      865.022
10/19/2013  21:28:00      -91.537      -16.973        1.110       27.402       27.058       19.292      750.875      732.123      372.166        0.526        0.093       93.097       14.343        0.024      339.018       12.065      865.037
10/19/2013  21:29:00      -95.659      -35.251        0.343       36.978       24.375       19.508     1367.338      594.135      380.553        0.637        0.117      101.947       20.023        0.039      339.111       12.220      865.053
10/19/2013  21:30:00      -54.642      -27.031        3.279       41.647       27.139       19.440     1734.436      736.552      377.928        0.329        0.142       60.962       16.752        0.076      339.083       12.175      865.056
10/19/2013  21:31:00      -72.593      -36.039        5.566       33.707       26.295       16.853     1136.181      691.443      284.015        0.436        0.106       81.046       17.659        0.047      339.010       12.051      865.063
10/19/2013  21:32:00      -25.141      -30.748        2.680       38.802       22.387       13.676     1505.565      501.187      187.045        0.189        0.110       39.718       14.864        0.140      339.127       12.248      865.068
10/19/2013  21:33:00      -73.085      -41.927        2.725       28.942       21.489       15.732      837.652      461.781      247.503        0.433        0.077       84.257       15.790        0.035      339.090       12.186      865.065
10/19/2013  21:34:00      -82.757      -44.709        3.932       39.221       21.253       21.356     1538.281      451.676      456.079        0.565        0.122       94.062       23.014        0.060      339.135       12.261      865.078
10/19/2013  21:35:00      -37.241      -27.501        4.980       37.830       28.670       15.272     1431.104      821.950      233.243        0.233        0.124       46.295       16.965        0.134      339.200       12.370      865.086
10/19/2013  21:36:00      -27.721      -27.287        7.064       27.816       17.499       18.336      773.707      306.228      336.221        0.149        0.071       38.898       17.733        0.208      339.214       12.395      865.092
10/19/2013  21:37:00      -37.041      -30.839        7.204       30.945       17.818       16.071      957.616      317.486      258.283        0.195        0.077       48.199       16.131        0.112      339.091       12.188      865.095
10/19/2013  21:38:00      -70.723      -44.201        3.517       39.590       18.951       20.180     1567.349      359.128      407.221        0.465        0.117       83.400       24.342        0.085      338.987       12.011      865.092
10/19/2013  21:39:00      -91.644      -45.118        1.466       38.195       25.200       19.901     1458.821      635.063      396.064        0.646        0.124      102.148       19.526        0.037      338.947       11.945      865.099
10/19/2013  21:40:00     -109.957      -40.580       -0.619       19.141       21.483       12.789      366.361      461.530      163.552        0.736        0.050      117.206        8.469        0.005      338.998       12.031      865.108
10/19/2013  21:41:00     -126.137      -30.414       -8.862       19.280       16.972       11.841      371.708      288.054      140.200        0.886        0.040      129.752        8.251        0.004      338.974       11.992      865.113
10/19/2013  21:42:00     -122.929      -36.512       -6.096       18.646       19.051       11.972      347.686      362.934      143.317        0.867        0.043      128.237        3.637        0.001      338.938       11.929      865.129
10/19/2013  21:43:00     -128.636      -44.833       -7.683       25.725       20.250       11.920      661.795      410.058      142.080        0.991        0.061      136.225        7.036        0.003      338.928       11.913      865.128
10/19/2013  21:44:00     -135.835      -12.218      -17.963       17.812       15.941       10.692      317.281      254.126      114.312        0.980        0.034      136.384        7.993        0.003      338.900       11.866      865.135
10/19/2013  21:45:00     -130.842       -9.155      -12.742       11.013       11.170        6.870      121.280      124.772       47.195        0.883        0.015      131.162        2.355        0.000      338.886       11.841      865.132
10/19/2013  21:46:00      -79.140      -17.408       -8.556       18.087       17.902       14.514      327.139      320.491      210.645        0.375        0.043       81.032       11.822        0.021      338.825       11.740      865.143
10/19/2013  21:47:00      -46.888      -24.940       -3.004       23.986       11.027        9.729      575.309      121.584       94.660        0.181        0.040       53.108       12.209        0.053      338.796       11.692      865.150
10/19/2013  21:48:00      -19.996      -21.760        1.832       11.697       10.312        9.024      136.814      106.335       81.426        0.060        0.016       29.552        6.783        0.053      338.913       11.887      865.151
10/19/2013  21:49:00      -54.458      -25.234      -13.012       17.934       10.179        7.318      321.634      103.621       53.549        0.213        0.024       60.020        8.853        0.022      339.082       12.170      865.171
10/19/2013  21:50:00      -86.343      -26.597      -16.684       12.514        6.894        5.802      156.596       47.532       33.663        0.434        0.012       90.347        2.881        0.001      339.014       12.057      865.180
10/19/2013  21:51:00     -112.752      -42.406      -14.764       15.854       23.874       10.037      251.349      569.974      100.745        0.783        0.046      120.463        4.992        0.002      338.863       11.803      865.200
10/19/2013  21:52:00      -94.746      -43.130       -7.604       24.616       19.510       14.161      605.936      380.657      200.545        0.604        0.059      104.101        8.741        0.007      338.743       11.601      865.214
10/19/2013  21:53:00      -94.493      -36.921       -9.871       18.935       16.981       17.687      358.519      288.353      312.821        0.567        0.048      101.450       11.767        0.013      338.750       11.614      865.203
10/19/2013  21:54:00     -102.419      -38.051      -13.905       12.585       15.479        9.508      158.390      239.614       90.406        0.631        0.024      109.259        4.987        0.002      338.873       11.821      865.194
10/19/2013  21:55:00     -123.252      -25.868      -19.331       15.446       11.744        8.620      238.565      137.923       74.303        0.834        0.023      125.937        5.552        0.002      338.833       11.753      865.180
10/19/2013  21:56:00     -130.136      -26.293      -19.148       10.946       10.888        8.761      119.807      118.554       76.750        0.915        0.016      132.766        4.993        0.001      338.938       11.929      865.184
10/19/2013  21:57:00      -95.285      -16.637      -16.927       22.006       20.777       14.009      484.282      431.693      196.249        0.538        0.056       96.727       13.542        0.020      338.747       11.608      865.173
10/19/2013  21:58:00     -109.014      -24.871      -14.298       22.633       20.710       12.208      512.268      428.916      149.035        0.690        0.055      111.815       10.415        0.009      338.581       11.330      865.160
10/19/2013  21:59:00     -105.482      -35.673      -17.202       24.773       17.321        8.166      613.696      300.012       66.678        0.684        0.049      111.351        2.984        0.001      338.585       11.338      865.154
10/19/2013  22:00:00      -87.885      -41.967      -18.301       20.983       23.721       13.255      440.301      562.682      175.697        0.550        0.059       97.392       14.560        0.022      338.652       11.449      865.137
10/19/2013  22:01:00     -111.185      -32.958      -20.604       16.856       12.711        9.245      284.114      161.579       85.472        0.720        0.027      115.967        7.474        0.004      338.683       11.500      865.132
10/19/2013  22:02:00     -134.016      -47.531      -22.635       19.714       12.933       10.203      388.643      167.266      104.100        1.070        0.033      142.195        6.670        0.002      338.587       11.341      865.137
10/19/2013  22:03:00     -160.065      -47.818      -23.871       14.651       13.781       12.067      214.640      189.915      145.615        1.451        0.028      167.055        5.209        0.001      338.429       11.075      865.130
10/19/2013  22:04:00     -116.403      -45.526      -10.781       23.700       21.956       15.187      561.700      482.066      230.633        0.851        0.064      124.989       11.509        0.008      338.358       10.954      865.129
10/19/2013  22:05:00     -109.037      -28.646      -11.628       19.973       21.237       13.030      398.917      451.006      169.788        0.693        0.051      112.737       10.172        0.008      338.352       10.945      865.116
10/19/2013  22:06:00     -102.277      -22.104       -6.587       31.984       23.734       20.138     1023.003      563.317      405.549        0.649        0.100      104.638       18.169        0.030      338.340       10.925      865.109
10/19/2013  22:07:00     -120.923      -50.616       -7.047       37.174       42.141       21.149     1381.940     1775.890      447.269        1.042        0.180      131.089       19.301        0.022      338.470       11.143      865.113
10/19/2013  22:08:00     -131.505      -19.597       -6.890       48.003       35.287       25.281     2304.296     1245.138      639.129        1.096        0.209      132.957       27.644        0.043      338.480       11.161      865.111
10/19/2013  22:09:00     -113.602       -7.823       -6.985       38.248       35.277       28.592     1462.935     1244.473      817.488        0.827        0.176      113.871       27.091        0.057      338.461       11.128      865.125
10/19/2013  22:10:00     -119.089      -38.440       -8.529       26.507       31.968       18.213      702.619     1021.953      331.700        0.889        0.103      125.139       13.312        0.011      338.550       11.279      865.124
10/19/2013  22:11:00      -77.838      -37.877       -0.155       36.766       26.584       18.089     1351.761      706.703      327.209        0.494        0.119       86.565       16.475        0.036      338.488       11.174      865.128
10/19/2013  22:12:00      -60.145      -41.984        6.585       58.513       33.553       18.568     3423.752     1125.783      344.783        0.516        0.245       73.349       25.050        0.117      338.435       11.086      865.134
10/19/2013  22:13:00      -88.066      -42.525       -1.666       48.546       26.377       17.432     2356.698      695.750      303.877        0.646        0.168       97.796       17.655        0.033      338.398       11.023      865.127
10/19/2013  22:14:00     -124.840      -63.347        1.428       42.573       34.250       22.880     1812.480     1173.070      523.494        1.155        0.175      139.992       22.569        0.026      338.388       11.005      865.130
10/19/2013  22:15:00     -133.069      -38.620       -2.984       39.680       33.188       20.147     1574.471     1101.424      405.915        1.114        0.154      138.560       19.946        0.021      338.359       10.956      865.113
10/19/2013  22:16:00     -139.883      -63.383       -2.035       41.805       22.345       17.630     1747.620      499.279      310.829        1.307        0.128      153.573       18.041        0.014      338.338       10.922      865.103
10/19/2013  22:17:00     -100.367      -59.159       -6.128       32.667       20.779       19.010     1067.155      431.757      361.386        0.774        0.093      116.505       15.296        0.017      338.410       11.042      865.090
10/19/2013  22:18:00     -125.926      -55.789       -5.159       17.556       22.272       10.951      308.206      496.053      119.914        0.996        0.046      137.731        5.141        0.001      338.574       11.318      865.078
10/19/2013  22:19:00     -149.555      -41.177       -7.931       21.592       20.680       19.589      466.226      427.644      383.719        1.270        0.064      155.120       15.340        0.010      338.450       11.109      865.090
10/19/2013  22:20:00     -118.772      -47.630       -3.563       43.871       30.373       22.296     1924.653      922.501      497.133        0.987        0.167      127.967       20.854        0.027      338.407       11.036      865.087
10/19/2013  22:21:00      -86.099      -42.892       -2.593       32.187       20.290       13.484     1035.984      411.690      181.829        0.544        0.081       96.191       10.782        0.013      338.406       11.035      865.089
10/19/2013  22:22:00     -138.345      -64.634       -0.440       23.217       23.889       15.363      539.017      570.682      236.036        1.233        0.067      152.698       12.655        0.007      338.377       10.987      865.100
10/19/2013  22:23:00     -111.456      -61.575       -3.464       43.903       26.444       21.620     1927.431      699.284      467.416        0.966        0.155      127.334       11.895        0.009      338.272       10.809      865.109
10/19/2013  22:24:00     -111.494      -39.464       -4.365       36.742       19.784       16.719     1349.959      391.415      279.509        0.801        0.101      118.272       18.950        0.026      338.301       10.858      865.123
10/19/2013  22:25:00     -148.996      -51.090       -5.763       18.116       15.177       12.870      328.182      230.340      165.627        1.278        0.036      157.512       10.277        0.004      338.237       10.751      865.137
10/19/2013  22:26:00     -127.248      -61.038       -9.697       19.000       18.712       14.372      360.992      350.147      206.566        1.046        0.046      141.130        9.783        0.005      338.218       10.720      865.142
10/19/2013  22:27:00     -113.530      -36.282       -8.530       22.963       24.917       15.530      527.301      620.859      241.173        0.783        0.069      119.187       13.503        0.013      338.223       10.728      865.160
10/19/2013  22:28:00     -128.709      -66.806        0.826       30.070       31.719       18.363      904.208     1006.082      337.203        1.164        0.112      145.014       16.491        0.013      338.217       10.718      865.176
10/19/2013  22:29:00     -110.130      -66.649       -0.777       24.067       17.891       16.728      579.220      320.086      279.840        0.887        0.059      128.727       12.860        0.010      338.298       10.854      865.186
10/19/2013  22:30:00     -120.230      -51.923       -5.411       17.984       17.497       10.181      323.418      306.146      103.651        0.896        0.037      130.962        7.497        0.003      338.379       10.990      865.187
10/19/2013  22:31:00     -118.064      -54.373       -5.051       26.780       18.797       14.052      717.195      353.337      197.451        0.909        0.063      129.983       13.567        0.011      338.336       10.918      865.170
10/19/2013  22:32:00     -141.739      -78.975       -7.495       24.936       22.234       14.072      621.794      494.361      198.014        1.385        0.066      162.257       10.836        0.004      338.377       10.988      865.172
10/19/2013  22:33:00     -160.886      -57.417       -8.242       29.794       27.739       15.070      887.691      769.472      227.102        1.557        0.094      170.824       12.396        0.005      338.414       11.049      865.170
10/19/2013  22:34:00     -161.369      -28.385       -8.323       60.880       29.906       23.972     3706.324      894.379      574.651        1.604        0.259      163.847       23.558        0.021      338.479       11.158      865.158
10/19/2013  22:35:00     -174.919      -25.264      -11.183       46.010       30.473       28.963     2116.899      928.600      838.866        1.762        0.194      176.734       27.048        0.023      338.598       11.358      865.162
10/19/2013  22:36:00     -195.574      -32.366      -12.052       41.278       35.635       22.380     1703.847     1269.881      500.879        2.146        0.174      198.235       20.543        0.011      338.591       11.345      865.159
10/19/2013  22:37:00     -171.651      -22.423      -14.956       46.308       30.602       22.185     2144.467      936.460      492.176        1.688        0.179      173.109       14.408        0.007      338.481       11.161      865.153
10/19/2013  22:38:00     -122.267      -29.684        0.415       38.523       34.809       21.948     1484.053     1211.662      481.708        0.950        0.159      125.819       20.793        0.027      338.381       10.993      865.154
10/19/2013  22:39:00     -131.701      -50.744       -3.145       46.991       29.075       19.284     2208.114      845.382      371.872        1.168        0.171      141.138       20.483        0.021      338.496       11.186      865.142
10/19/2013  22:40:00     -150.918      -70.855       -9.172       15.746       19.143       10.804      247.947      366.462      116.716        1.431        0.037      166.723        8.707        0.003      338.485       11.168      865.155
10/19/2013  22:41:00     -150.082      -43.231      -10.189       17.356       24.827       11.662      301.243      616.377      135.992        1.278        0.053      156.184        6.271        0.002      338.449       11.109      865.145
10/19/2013  22:42:00     -114.776      -27.051       -4.995       38.399       26.889       17.517     1474.449      723.045      306.832        0.822        0.125      117.921       21.886        0.034      338.283       10.831      865.152
10/19/2013  22:43:00     -136.356      -18.065      -12.759       31.630       32.794       20.825     1000.479     1075.471      433.674        1.080        0.125      137.548       20.414        0.022      338.229       10.739      865.158
10/19/2013  22:44:00     -153.481      -35.256      -12.773       29.386       26.202       16.779      863.551      686.529      281.538        1.340        0.092      157.478       15.240        0.009      338.281       10.825      865.159
10/19/2013  22:45:00     -118.993      -37.321       -2.960       29.911       25.675       19.153      894.674      659.201      366.855        0.874        0.096      124.708       18.103        0.021      338.283       10.828      865.165
10/19/2013  22:46:00     -110.019      -33.949        2.358       32.736       24.879       16.053     1071.634      618.979      257.702        0.760        0.097      115.138       15.697        0.019      338.223       10.728      865.164
10/19/2013  22:47:00     -121.841      -42.513        1.597       41.301       28.608       23.871     1705.768      818.434      569.808        0.987        0.155      129.045       21.178        0.027      338.158       10.619      865.159
10/19/2013  22:48:00     -162.772      -60.738       -7.988       29.072       26.441       20.221      845.208      699.104      408.877        1.610        0.098      173.735       16.334        0.009      338.142       10.593      865.164
10/19/2013  22:49:00     -143.941      -54.918       -5.526       37.179       30.332       19.141     1382.291      920.032      366.376        1.322        0.133      154.062       21.397        0.019      338.187       10.667      865.163
10/19/2013  22:50:00     -131.240      -39.356        1.692       58.918       44.473       26.242     3471.282     1977.875      688.655        1.246        0.307      137.014       28.503        0.043      338.165       10.631      865.160
10/19/2013  22:51:00     -138.055      -17.176       -7.462       47.654       38.959       25.642     2270.925     1517.806      657.529        1.193        0.222      139.119       25.813        0.034      338.153       10.610      865.162
10/19/2013  22:52:00     -165.567       10.162      -11.728       51.641       34.922       22.260     2666.829     1219.533      495.520        1.602        0.219      165.879       20.544        0.015      338.210       10.706      865.166
10/19/2013  22:53:00     -182.900       -3.880      -21.982       45.168       35.960       26.120     2040.140     1293.105      682.235        1.898        0.201      182.941       26.818        0.021      338.223       10.728      865.172
10/19/2013  22:54:00     -191.127        3.399      -11.546       50.329       54.633       32.511     2533.045     2984.775     1056.989        2.162        0.329      191.157       26.464        0.019      338.238       10.752      865.188
10/19/2013  22:55:00     -103.023      -31.276       -2.164       44.645       39.566       21.779     1993.212     1565.480      474.334        0.781        0.202      107.665       16.040        0.022      338.198       10.687      865.187
10/19/2013  22:56:00     -104.837      -44.454      -12.111       30.273       47.288       21.887      916.476     2236.202      479.029        0.837        0.182      113.873       13.264        0.014      338.200       10.691      865.193
10/19/2013  22:57:00     -127.326      -70.481      -11.532       47.613       41.072       23.817     2266.976     1686.920      567.255        1.292        0.226      145.532       19.753        0.018      338.212       10.710      865.203
10/19/2013  22:58:00     -159.894      -67.807       -7.609       39.045       37.945       24.496     1524.474     1439.792      600.041        1.689        0.178      173.678       22.129        0.016      338.133       10.577      865.206
10/19/2013  22:59:00      -73.578      -14.382        7.160       57.263       36.809       26.851     3279.031     1354.887      720.992        0.551        0.268       74.970       27.350        0.133      338.038       10.419      865.199
10/19/2013  23:00:00      -13.484      -17.921        3.007       29.104       21.069       16.203      847.046      443.891      262.550        0.103        0.078       22.427        9.711        0.187      338.087       10.500      865.193
10/19/2013  23:01:00      -87.105      -53.140       -6.711       27.895       27.988       19.605      778.113      783.352      384.368        0.620        0.097      102.035       18.079        0.031      338.122       10.558      865.178
10/19/2013  23:02:00      -48.705      -25.937       -2.617       45.769       30.178       21.760     2094.787      910.736      473.490        0.326        0.174       55.181       20.293        0.135      338.149       10.604      865.177
10/19/2013  23:03:00      -84.486       -4.470       -8.244       26.406       28.450       18.149      697.287      809.427      329.404        0.453        0.092       84.604       10.355        0.015      338.111       10.540      865.179
10/19/2013  23:04:00     -115.845       -3.178      -13.888       31.822       26.279       22.249     1012.635      690.587      495.000        0.791        0.110      115.888       15.849        0.019      338.111       10.541      865.171
10/19/2013  23:05:00     -110.191      -27.795       -9.799       28.360       41.818       20.495      804.309     1748.732      420.036        0.799        0.149      113.643       12.623        0.012      338.066       10.466      865.168
10/19/2013  23:06:00      -73.734      -41.562       -7.550       31.027       39.465       18.240      962.688     1557.481      332.710        0.504        0.143       84.642        8.751        0.011      338.024       10.393      865.183
10/19/2013  23:07:00      -90.874      -36.044       -7.135       31.279       30.077       18.498      978.378      904.656      342.168        0.592        0.111       97.761       12.898        0.017      338.044       10.427      865.181
10/19/2013  23:08:00      -98.128       -4.163       -5.189       43.378       30.321       21.199     1881.690      919.351      449.385        0.646        0.163       98.216       11.903        0.015      338.021       10.389      865.174
10/19/2013  23:09:00      -84.931      -11.491       -6.041       35.067       25.278       15.862     1229.704      638.989      251.608        0.475        0.106       85.705       17.318        0.041      338.010       10.371      865.171
10/19/2013  23:10:00      -62.799       -1.174       -3.427       22.023       23.457       12.703      485.020      550.251      161.371        0.258        0.060       62.810       13.078        0.043      338.050       10.437      865.183
10/19/2013  23:11:00      -43.098      -12.725       -8.091       21.870       13.242       11.464      478.283      175.363      131.416        0.143        0.039       44.938        5.857        0.017      338.199       10.687      865.174
10/19/2013  23:12:00      -59.566      -21.607      -10.379       13.748       16.909       12.920      189.012      285.908      166.932        0.238        0.032       63.364        7.173        0.013      338.177       10.651      865.163
10/19/2013  23:13:00      -78.060      -38.917       -9.342       12.614       12.833       10.631      159.108      164.678      113.018        0.407        0.022       87.223        6.404        0.005      338.087       10.499      865.157
10/19/2013  23:14:00      -73.754      -26.497      -10.012       15.610       21.971       11.375      243.673      482.744      129.395        0.355        0.043       78.369        4.145        0.003      338.119       10.552      865.146
10/19/2013  23:15:00      -75.451      -20.635      -14.843       11.229       14.193        9.759      126.086      201.428       95.239        0.338        0.021       78.221        9.461        0.015      338.158       10.618      865.142
10/19/2013  23:16:00      -48.343      -30.112       -8.730       17.225       13.199       10.263      296.713      174.205      105.332        0.195        0.029       56.954        8.523        0.022      338.203       10.695      865.145
10/19/2013  23:17:00      -48.337      -13.671      -12.128       15.482       13.969       13.903      239.707      195.143      193.285        0.165        0.031       50.233        5.717        0.013      338.149       10.605      865.159
10/19/2013  23:18:00      -68.459      -10.141      -15.262       17.529       11.519        8.972      307.283      132.689       80.491        0.277        0.026       69.206        6.501        0.009      338.175       10.647      865.171
10/19/2013  23:19:00      -57.113      -22.084       -9.232       13.572       12.967       10.590      184.207      168.145      112.149        0.215        0.023       61.234        5.218        0.007      337.946       10.262      865.188
10/19/2013  23:20:00      -62.378      -13.640       -8.446       17.305       12.737        8.916      299.449      162.228       79.492        0.234        0.027       63.852        4.437        0.005      338.046       10.431      865.195
10/19/2013  23:21:00      -50.287       20.462      -18.546       14.356       15.131        9.720      206.108      228.961       94.485        0.191        0.026       54.291        7.451        0.019      338.203       10.696      865.197
10/19/2013  23:22:00      -18.704       17.046       -0.542       14.059       13.998       10.596      197.659      195.942      112.268        0.057        0.025       25.306        7.701        0.093      338.404       11.032      865.195
10/19/2013  23:23:00      -46.386      -10.499       -9.502        8.234       12.871        7.081       67.799      165.666       50.145        0.132        0.014       47.559        5.988        0.016      338.240       10.756      865.195
10/19/2013  23:24:00      -52.799      -22.347      -10.897        7.407        9.260        7.120       54.866       85.742       50.701        0.180        0.010       57.333        4.405        0.006      338.040       10.421      865.184
10/19/2013  23:25:00      -68.015      -15.065      -11.695       11.381       11.897        8.771      129.520      141.534       76.926        0.267        0.017       69.663        2.255        0.001      337.996       10.347      865.186
10/19/2013  23:26:00      -81.799      -19.677       -8.626       21.471       22.585       14.664      461.002      510.093      215.046        0.417        0.059       84.132       11.002        0.017      337.995       10.345      865.187
10/19/2013  23:27:00      -47.639      -17.263      -10.203       33.973       21.649       12.873     1154.146      468.681      165.721        0.223        0.089       50.671       11.930        0.055      337.986       10.330      865.180
10/19/2013  23:28:00      -92.988      -27.523       -9.379       12.682       11.052        7.318      160.821      122.142       53.549        0.491        0.017       96.976        5.554        0.003      337.974       10.311      865.180
10/19/2013  23:29:00     -101.522      -30.186      -11.630       13.612       14.531        9.260      185.287      211.137       85.740        0.592        0.024      105.915        5.561        0.003      338.023       10.393      865.173
10/19/2013  23:30:00     -117.582      -39.651      -11.806       14.716       17.055        8.630      216.558      290.883       74.474        0.806        0.029      124.087        3.677        0.001      337.962       10.290      865.170
10/19/2013  23:31:00     -123.198      -31.828      -13.401       19.495       19.082       14.385      380.058      364.111      206.918        0.866        0.048      127.243       10.572        0.007      337.884       10.159      865.163
10/19/2013  23:32:00      -92.965      -27.429       -2.957       25.157       16.306       14.412      632.898      265.890      207.712        0.525        0.055       96.927       14.213        0.022      337.891       10.172      865.170
10/19/2013  23:33:00      -83.454      -17.325       -8.634       10.808       10.510        7.401      116.814      110.453       54.772        0.381        0.014       85.233        5.024        0.003      338.149       10.605      865.172
10/19/2013  23:34:00      -77.340      -27.753      -13.777       13.451       10.890        7.659      180.918      118.598       58.655        0.365        0.018       82.169        6.280        0.006      338.213       10.712      865.165
10/19/2013  23:35:00     -104.077      -38.230      -17.181       11.642       11.381        9.627      135.548      129.517       92.678        0.647        0.018      110.876        5.818        0.003      337.841       10.088      865.164
10/19/2013  23:36:00     -103.318      -46.138      -16.140       13.946       15.306       11.553      194.486      234.280      133.466        0.681        0.028      113.152        5.709        0.003      337.680        9.817      865.177
10/19/2013  23:37:00      -54.263        9.429       -5.273       29.098       32.106       13.959      846.685     1030.771      194.853        0.257        0.104       55.077       13.236        0.058      337.786        9.996      865.177
10/19/2013  23:38:00      -46.875       52.289      -10.173       23.276       30.169       19.237      541.778      910.145      370.073        0.343        0.091       70.224       19.790        0.079      338.569       11.310      865.174
10/19/2013  23:39:00      -67.308       39.134      -12.893       11.949       17.460       10.454      142.770      304.852      109.279        0.339        0.028       77.857        9.580        0.015      338.369       10.974      865.174
10/19/2013  23:40:00      -73.182       11.088       -9.787       13.108       18.402       10.547      171.830      338.635      111.242        0.310        0.031       74.017        7.877        0.011      337.969       10.303      865.188
10/19/2013  23:41:00      -67.065        6.192      -10.247       30.832       21.216       20.558      950.633      450.112      422.630        0.323        0.091       67.350       17.470        0.067      337.951       10.273      865.197
10/19/2013  23:42:00      -55.250       22.508      -14.274       12.042       17.078       10.991      145.006      291.660      120.791        0.216        0.028       59.659        9.760        0.027      338.176       10.650      865.200
10/19/2013  23:43:00      -61.466      -11.642       -8.284       13.959       16.043       10.820      194.860      257.375      117.075        0.228        0.028       62.558        4.195        0.004      338.073       10.476      865.206
10/19/2013  23:44:00      -78.743      -29.205      -14.865       15.095       16.746        8.813      227.865      280.414       77.672        0.393        0.029       83.984        6.152        0.005      337.901       10.188      865.213
10/19/2013  23:45:00      -86.267      -61.807      -13.658       27.848       30.371       15.825      775.504      922.372      250.428        0.670        0.097      106.123       10.224        0.009      337.686        9.828      865.227
10/19/2013  23:46:00      -57.819      -23.910       -3.101       48.829       31.661       30.608     2384.284     1002.444      936.862        0.412        0.216       62.567       26.870        0.184      337.530        9.565      865.228
10/19/2013  23:47:00      -86.914      -33.941      -18.654       36.122       26.560       20.424     1304.797      705.443      417.158        0.574        0.121       93.306       10.036        0.012      337.559        9.615      865.222
10/19/2013  23:48:00      -90.917      -60.881       -8.537       31.426       27.643       18.633      987.562      764.158      347.187        0.707        0.105      109.418       15.841        0.021      337.568        9.629      865.208
10/19/2013  23:49:00     -126.998      -42.815       -5.371       47.162       30.221       23.038     2224.264      913.335      530.742        1.083        0.183      134.021       24.001        0.032      337.520        9.549      865.200
10/19/2013  23:50:00     -134.280      -21.995      -11.996       17.710       18.190       11.510      313.653      330.871      132.473        0.972        0.039      136.070        8.470        0.004      337.625        9.726      865.203
10/19/2013  23:51:00      -78.025      -24.235       -1.291       26.526       23.840       15.450      703.636      568.362      238.691        0.409        0.076       81.703       12.739        0.024      337.565        9.625      865.190
10/19/2013  23:52:00      -57.221      -19.336       -2.868       31.670       17.626       11.940     1003.010      310.680      142.566        0.256        0.073       60.400       11.936        0.039      337.545        9.591      865.181
10/19/2013  23:53:00      -52.184        6.884       -7.293       20.911       28.427       13.125      437.264      808.077      172.265        0.212        0.071       52.636       12.560        0.057      338.088       10.501      865.173
10/19/2013  23:54:00      -32.680       50.503      -11.793       19.212       10.774        8.232      369.101      116.081       67.772        0.216        0.028       60.154        5.450        0.008      338.671       11.481      865.179
10/19/2013  23:55:00      -12.860       28.236        0.090       23.049       14.305       13.863      531.268      204.620      192.170        0.095        0.046       31.026       16.835        0.294      338.753       11.619      865.190
10/19/2013  23:56:00        1.806       17.310        4.967       13.386       12.406        8.067      179.181      153.901       65.083        0.036        0.020       17.404        6.444        0.137      338.227       10.735      865.187
10/19/2013  23:57:00      -24.526      -10.252       -0.307       10.914       33.153        9.712      119.112     1099.123       94.330        0.101        0.066       26.582       10.604        0.159      338.380       10.994      865.188
10/19/2013  23:58:00      -51.904      -25.091       -2.010       26.664        9.821       10.321      710.964       96.450      106.529        0.212        0.046       57.651       11.019        0.037      337.559        9.615      865.191
10/19/2013  23:59:00      -60.194      -29.145       -5.011       29.021       15.513       13.782      842.220      240.653      189.945        0.289        0.064       66.879        8.378        0.016      337.525        9.557      865.184
